<?xml version="1.0" encoding="UTF-8" standalone="no" ?>
<gpx xmlns="http://www.topografix.com/GPX/1/1" xmlns:xsi="http://www.w3.org/2001/XMLSchema-instance" xsi:schemaLocation="http://www.topografix.com/GPX/1/1 http://www.topografix.com/GPX/1/1/gpx.xsd" version="1.1" creator="VisuGPX - https://www.visugpx.com">
  <metadata>
    <name>Poinsenot (Val Denis)</name>
  </metadata>
  <trk>
    <name><![CDATA[Randonnée du matin3]]></name>
    <trkseg>
      <trkpt lat="47.71259" lon="5.004">
        <ele>397.09</ele>
        <time>2022-06-23T06:53:16Z</time>
      </trkpt>
      <trkpt lat="47.71259" lon="5.00404">
        <ele>397.23</ele>
        <time>2022-06-23T06:53:37Z</time>
      </trkpt>
      <trkpt lat="47.71257" lon="5.00407">
        <ele>397.48</ele>
        <time>2022-06-23T06:54:11Z</time>
      </trkpt>
      <trkpt lat="47.71254" lon="5.0041">
        <ele>397.75</ele>
        <time>2022-06-23T06:54:29Z</time>
      </trkpt>
      <trkpt lat="47.71252" lon="5.00414">
        <ele>397.91</ele>
        <time>2022-06-23T06:54:33Z</time>
      </trkpt>
      <trkpt lat="47.71249" lon="5.00414">
        <ele>398.06</ele>
        <time>2022-06-23T06:54:38Z</time>
      </trkpt>
      <trkpt lat="47.71246" lon="5.00413">
        <ele>398.23</ele>
        <time>2022-06-23T06:54:52Z</time>
      </trkpt>
      <trkpt lat="47.71243" lon="5.00412">
        <ele>398.38</ele>
        <time>2022-06-23T07:03:39Z</time>
      </trkpt>
      <trkpt lat="47.7124" lon="5.00413">
        <ele>398.58</ele>
        <time>2022-06-23T07:03:44Z</time>
      </trkpt>
      <trkpt lat="47.71238" lon="5.00411">
        <ele>398.6</ele>
        <time>2022-06-23T07:06:48Z</time>
      </trkpt>
      <trkpt lat="47.71236" lon="5.00408">
        <ele>398.54</ele>
        <time>2022-06-23T07:06:50Z</time>
      </trkpt>
      <trkpt lat="47.71233" lon="5.00406">
        <ele>398.52</ele>
        <time>2022-06-23T07:06:54Z</time>
      </trkpt>
      <trkpt lat="47.7123" lon="5.00405">
        <ele>398.53</ele>
        <time>2022-06-23T07:06:56Z</time>
      </trkpt>
      <trkpt lat="47.71228" lon="5.00402">
        <ele>398.33</ele>
        <time>2022-06-23T07:07:00Z</time>
      </trkpt>
      <trkpt lat="47.71227" lon="5.00398">
        <ele>397.99</ele>
        <time>2022-06-23T07:07:05Z</time>
      </trkpt>
      <trkpt lat="47.71228" lon="5.00394">
        <ele>397.65</ele>
        <time>2022-06-23T07:07:28Z</time>
      </trkpt>
      <trkpt lat="47.71225" lon="5.00392">
        <ele>397.4</ele>
        <time>2022-06-23T07:08:46Z</time>
      </trkpt>
      <trkpt lat="47.71223" lon="5.0039">
        <ele>397.14</ele>
        <time>2022-06-23T07:08:58Z</time>
      </trkpt>
      <trkpt lat="47.7122" lon="5.0039">
        <ele>396.95</ele>
        <time>2022-06-23T07:09:06Z</time>
      </trkpt>
      <trkpt lat="47.71223" lon="5.0039">
        <ele>397.14</ele>
        <time>2022-06-23T07:12:57Z</time>
      </trkpt>
      <trkpt lat="47.71226" lon="5.00389">
        <ele>397.15</ele>
        <time>2022-06-23T07:13:07Z</time>
      </trkpt>
      <trkpt lat="47.71225" lon="5.00393">
        <ele>397.5</ele>
        <time>2022-06-23T07:13:49Z</time>
      </trkpt>
      <trkpt lat="47.71225" lon="5.00397">
        <ele>397.89</ele>
        <time>2022-06-23T07:13:53Z</time>
      </trkpt>
      <trkpt lat="47.71225" lon="5.00401">
        <ele>398.28</ele>
        <time>2022-06-23T07:13:57Z</time>
      </trkpt>
      <trkpt lat="47.71226" lon="5.00405">
        <ele>398.64</ele>
        <time>2022-06-23T07:14:00Z</time>
      </trkpt>
      <trkpt lat="47.71228" lon="5.00408">
        <ele>398.84</ele>
        <time>2022-06-23T07:14:06Z</time>
      </trkpt>
      <trkpt lat="47.71231" lon="5.00409">
        <ele>398.8</ele>
        <time>2022-06-23T07:14:21Z</time>
      </trkpt>
      <trkpt lat="47.71234" lon="5.00406">
        <ele>398.49</ele>
        <time>2022-06-23T07:15:05Z</time>
      </trkpt>
      <trkpt lat="47.71234" lon="5.00402">
        <ele>398.24</ele>
        <time>2022-06-23T07:15:10Z</time>
      </trkpt>
      <trkpt lat="47.71233" lon="5.00397">
        <ele>397.92</ele>
        <time>2022-06-23T07:15:15Z</time>
      </trkpt>
      <trkpt lat="47.71233" lon="5.00393">
        <ele>397.66</ele>
        <time>2022-06-23T07:15:18Z</time>
      </trkpt>
      <trkpt lat="47.71231" lon="5.0039">
        <ele>397.4</ele>
        <time>2022-06-23T07:15:22Z</time>
      </trkpt>
      <trkpt lat="47.71229" lon="5.00386">
        <ele>397.17</ele>
        <time>2022-06-23T07:15:26Z</time>
      </trkpt>
      <trkpt lat="47.71227" lon="5.00383">
        <ele>397</ele>
        <time>2022-06-23T07:15:28Z</time>
      </trkpt>
      <trkpt lat="47.71226" lon="5.00378">
        <ele>396.8</ele>
        <time>2022-06-23T07:15:32Z</time>
      </trkpt>
      <trkpt lat="47.71224" lon="5.00374">
        <ele>396.56</ele>
        <time>2022-06-23T07:15:35Z</time>
      </trkpt>
      <trkpt lat="47.71224" lon="5.0037">
        <ele>396.43</ele>
        <time>2022-06-23T07:15:37Z</time>
      </trkpt>
      <trkpt lat="47.71223" lon="5.00364">
        <ele>396.16</ele>
        <time>2022-06-23T07:15:42Z</time>
      </trkpt>
      <trkpt lat="47.71222" lon="5.0036">
        <ele>396.08</ele>
        <time>2022-06-23T07:15:45Z</time>
      </trkpt>
      <trkpt lat="47.71221" lon="5.00356">
        <ele>396.36</ele>
        <time>2022-06-23T07:15:47Z</time>
      </trkpt>
      <trkpt lat="47.7122" lon="5.00352">
        <ele>396.63</ele>
        <time>2022-06-23T07:15:50Z</time>
      </trkpt>
      <trkpt lat="47.7122" lon="5.00348">
        <ele>396.91</ele>
        <time>2022-06-23T07:15:52Z</time>
      </trkpt>
      <trkpt lat="47.71219" lon="5.00344">
        <ele>397.16</ele>
        <time>2022-06-23T07:15:54Z</time>
      </trkpt>
      <trkpt lat="47.71219" lon="5.00339">
        <ele>397.5</ele>
        <time>2022-06-23T07:15:58Z</time>
      </trkpt>
      <trkpt lat="47.71219" lon="5.00335">
        <ele>397.77</ele>
        <time>2022-06-23T07:15:59Z</time>
      </trkpt>
      <trkpt lat="47.71217" lon="5.0033">
        <ele>397.79</ele>
        <time>2022-06-23T07:16:03Z</time>
      </trkpt>
      <trkpt lat="47.71216" lon="5.00326">
        <ele>397.72</ele>
        <time>2022-06-23T07:16:04Z</time>
      </trkpt>
      <trkpt lat="47.71214" lon="5.00321">
        <ele>397.57</ele>
        <time>2022-06-23T07:16:06Z</time>
      </trkpt>
      <trkpt lat="47.71214" lon="5.00317">
        <ele>397.53</ele>
        <time>2022-06-23T07:16:09Z</time>
      </trkpt>
      <trkpt lat="47.71214" lon="5.00312">
        <ele>397.48</ele>
        <time>2022-06-23T07:16:12Z</time>
      </trkpt>
      <trkpt lat="47.71214" lon="5.00308">
        <ele>397.43</ele>
        <time>2022-06-23T07:16:14Z</time>
      </trkpt>
      <trkpt lat="47.71212" lon="5.00303">
        <ele>397.31</ele>
        <time>2022-06-23T07:16:18Z</time>
      </trkpt>
      <trkpt lat="47.71211" lon="5.00299">
        <ele>397.34</ele>
        <time>2022-06-23T07:16:19Z</time>
      </trkpt>
      <trkpt lat="47.7121" lon="5.00295">
        <ele>397.41</ele>
        <time>2022-06-23T07:16:22Z</time>
      </trkpt>
      <trkpt lat="47.71209" lon="5.0029">
        <ele>397.55</ele>
        <time>2022-06-23T07:16:24Z</time>
      </trkpt>
      <trkpt lat="47.71208" lon="5.00286">
        <ele>397.71</ele>
        <time>2022-06-23T07:16:27Z</time>
      </trkpt>
      <trkpt lat="47.71208" lon="5.00281">
        <ele>397.9</ele>
        <time>2022-06-23T07:16:31Z</time>
      </trkpt>
      <trkpt lat="47.71207" lon="5.00277">
        <ele>398.17</ele>
        <time>2022-06-23T07:16:32Z</time>
      </trkpt>
      <trkpt lat="47.71205" lon="5.00273">
        <ele>398.69</ele>
        <time>2022-06-23T07:16:37Z</time>
      </trkpt>
      <trkpt lat="47.71205" lon="5.00269">
        <ele>399.07</ele>
        <time>2022-06-23T07:16:43Z</time>
      </trkpt>
      <trkpt lat="47.71207" lon="5.00265">
        <ele>399.27</ele>
        <time>2022-06-23T07:16:47Z</time>
      </trkpt>
      <trkpt lat="47.71209" lon="5.00262">
        <ele>399.36</ele>
        <time>2022-06-23T07:16:53Z</time>
      </trkpt>
      <trkpt lat="47.71212" lon="5.00261">
        <ele>399.17</ele>
        <time>2022-06-23T07:17:06Z</time>
      </trkpt>
      <trkpt lat="47.71215" lon="5.0026">
        <ele>398.97</ele>
        <time>2022-06-23T07:17:08Z</time>
      </trkpt>
      <trkpt lat="47.71218" lon="5.00261">
        <ele>398.6</ele>
        <time>2022-06-23T07:17:12Z</time>
      </trkpt>
      <trkpt lat="47.71221" lon="5.00261">
        <ele>398.32</ele>
        <time>2022-06-23T07:17:13Z</time>
      </trkpt>
      <trkpt lat="47.71224" lon="5.00261">
        <ele>398.26</ele>
        <time>2022-06-23T07:17:15Z</time>
      </trkpt>
      <trkpt lat="47.71227" lon="5.00261">
        <ele>398.34</ele>
        <time>2022-06-23T07:17:18Z</time>
      </trkpt>
      <trkpt lat="47.71231" lon="5.00261">
        <ele>398.46</ele>
        <time>2022-06-23T07:17:20Z</time>
      </trkpt>
      <trkpt lat="47.71233" lon="5.00261">
        <ele>398.52</ele>
        <time>2022-06-23T07:17:22Z</time>
      </trkpt>
      <trkpt lat="47.71236" lon="5.00262">
        <ele>398.56</ele>
        <time>2022-06-23T07:17:25Z</time>
      </trkpt>
      <trkpt lat="47.7124" lon="5.00261">
        <ele>398.71</ele>
        <time>2022-06-23T07:17:29Z</time>
      </trkpt>
      <trkpt lat="47.71243" lon="5.00261">
        <ele>398.8</ele>
        <time>2022-06-23T07:17:32Z</time>
      </trkpt>
      <trkpt lat="47.71246" lon="5.0026">
        <ele>398.9</ele>
        <time>2022-06-23T07:17:34Z</time>
      </trkpt>
      <trkpt lat="47.71249" lon="5.0026">
        <ele>398.97</ele>
        <time>2022-06-23T07:17:36Z</time>
      </trkpt>
      <trkpt lat="47.71252" lon="5.00259">
        <ele>398.93</ele>
        <time>2022-06-23T07:17:37Z</time>
      </trkpt>
      <trkpt lat="47.71255" lon="5.00258">
        <ele>398.8</ele>
        <time>2022-06-23T07:17:41Z</time>
      </trkpt>
      <trkpt lat="47.71257" lon="5.00258">
        <ele>398.71</ele>
        <time>2022-06-23T07:17:42Z</time>
      </trkpt>
      <trkpt lat="47.7126" lon="5.00258">
        <ele>398.59</ele>
        <time>2022-06-23T07:17:46Z</time>
      </trkpt>
      <trkpt lat="47.71263" lon="5.00258">
        <ele>398.47</ele>
        <time>2022-06-23T07:17:49Z</time>
      </trkpt>
      <trkpt lat="47.71266" lon="5.00258">
        <ele>398.35</ele>
        <time>2022-06-23T07:17:51Z</time>
      </trkpt>
      <trkpt lat="47.7127" lon="5.00257">
        <ele>398.1</ele>
        <time>2022-06-23T07:17:52Z</time>
      </trkpt>
      <trkpt lat="47.71273" lon="5.00257">
        <ele>397.97</ele>
        <time>2022-06-23T07:17:55Z</time>
      </trkpt>
      <trkpt lat="47.71276" lon="5.00257">
        <ele>397.84</ele>
        <time>2022-06-23T07:17:57Z</time>
      </trkpt>
      <trkpt lat="47.71279" lon="5.00257">
        <ele>397.85</ele>
        <time>2022-06-23T07:17:59Z</time>
      </trkpt>
      <trkpt lat="47.71282" lon="5.00257">
        <ele>398.1</ele>
        <time>2022-06-23T07:18:02Z</time>
      </trkpt>
      <trkpt lat="47.71285" lon="5.00256">
        <ele>398.26</ele>
        <time>2022-06-23T07:18:05Z</time>
      </trkpt>
      <trkpt lat="47.71288" lon="5.00256">
        <ele>398.51</ele>
        <time>2022-06-23T07:18:09Z</time>
      </trkpt>
      <trkpt lat="47.71291" lon="5.00255">
        <ele>398.71</ele>
        <time>2022-06-23T07:18:10Z</time>
      </trkpt>
      <trkpt lat="47.71295" lon="5.00254">
        <ele>399.02</ele>
        <time>2022-06-23T07:18:14Z</time>
      </trkpt>
      <trkpt lat="47.71298" lon="5.00253">
        <ele>399.27</ele>
        <time>2022-06-23T07:18:15Z</time>
      </trkpt>
      <trkpt lat="47.71301" lon="5.00252">
        <ele>399.54</ele>
        <time>2022-06-23T07:18:17Z</time>
      </trkpt>
      <trkpt lat="47.71304" lon="5.00252">
        <ele>399.84</ele>
        <time>2022-06-23T07:18:20Z</time>
      </trkpt>
      <trkpt lat="47.71307" lon="5.00251">
        <ele>399.9</ele>
        <time>2022-06-23T07:18:24Z</time>
      </trkpt>
      <trkpt lat="47.71309" lon="5.0025">
        <ele>399.75</ele>
        <time>2022-06-23T07:18:26Z</time>
      </trkpt>
      <trkpt lat="47.71312" lon="5.0025">
        <ele>399.54</ele>
        <time>2022-06-23T07:18:29Z</time>
      </trkpt>
      <trkpt lat="47.71315" lon="5.00252">
        <ele>399.34</ele>
        <time>2022-06-23T07:18:31Z</time>
      </trkpt>
      <trkpt lat="47.71318" lon="5.00253">
        <ele>399.15</ele>
        <time>2022-06-23T07:18:35Z</time>
      </trkpt>
      <trkpt lat="47.7132" lon="5.00255">
        <ele>399.05</ele>
        <time>2022-06-23T07:18:38Z</time>
      </trkpt>
      <trkpt lat="47.71322" lon="5.00258">
        <ele>398.99</ele>
        <time>2022-06-23T07:18:40Z</time>
      </trkpt>
      <trkpt lat="47.71324" lon="5.00262">
        <ele>398.96</ele>
        <time>2022-06-23T07:18:44Z</time>
      </trkpt>
      <trkpt lat="47.71325" lon="5.00266">
        <ele>399</ele>
        <time>2022-06-23T07:18:47Z</time>
      </trkpt>
      <trkpt lat="47.71326" lon="5.0027">
        <ele>399.06</ele>
        <time>2022-06-23T07:18:51Z</time>
      </trkpt>
      <trkpt lat="47.71326" lon="5.00275">
        <ele>399.19</ele>
        <time>2022-06-23T07:18:54Z</time>
      </trkpt>
      <trkpt lat="47.71326" lon="5.00279">
        <ele>399.22</ele>
        <time>2022-06-23T07:18:57Z</time>
      </trkpt>
      <trkpt lat="47.71326" lon="5.00283">
        <ele>399.08</ele>
        <time>2022-06-23T07:18:59Z</time>
      </trkpt>
      <trkpt lat="47.71327" lon="5.00287">
        <ele>398.9</ele>
        <time>2022-06-23T07:19:03Z</time>
      </trkpt>
      <trkpt lat="47.71327" lon="5.00291">
        <ele>398.75</ele>
        <time>2022-06-23T07:19:06Z</time>
      </trkpt>
      <trkpt lat="47.71328" lon="5.00295">
        <ele>398.57</ele>
        <time>2022-06-23T07:19:08Z</time>
      </trkpt>
      <trkpt lat="47.71328" lon="5.003">
        <ele>398.39</ele>
        <time>2022-06-23T07:19:12Z</time>
      </trkpt>
      <trkpt lat="47.71329" lon="5.00305">
        <ele>398.18</ele>
        <time>2022-06-23T07:19:14Z</time>
      </trkpt>
      <trkpt lat="47.7133" lon="5.0031">
        <ele>397.62</ele>
        <time>2022-06-23T07:19:17Z</time>
      </trkpt>
      <trkpt lat="47.71331" lon="5.00315">
        <ele>397.04</ele>
        <time>2022-06-23T07:19:19Z</time>
      </trkpt>
      <trkpt lat="47.71333" lon="5.00319">
        <ele>396.55</ele>
        <time>2022-06-23T07:19:22Z</time>
      </trkpt>
      <trkpt lat="47.71334" lon="5.00324">
        <ele>395.95</ele>
        <time>2022-06-23T07:19:24Z</time>
      </trkpt>
      <trkpt lat="47.71336" lon="5.00329">
        <ele>395.26</ele>
        <time>2022-06-23T07:19:27Z</time>
      </trkpt>
      <trkpt lat="47.71338" lon="5.00333">
        <ele>394.7</ele>
        <time>2022-06-23T07:19:29Z</time>
      </trkpt>
      <trkpt lat="47.7134" lon="5.00337">
        <ele>394.29</ele>
        <time>2022-06-23T07:19:30Z</time>
      </trkpt>
      <trkpt lat="47.71342" lon="5.0034">
        <ele>393.97</ele>
        <time>2022-06-23T07:19:32Z</time>
      </trkpt>
      <trkpt lat="47.71345" lon="5.00343">
        <ele>393.61</ele>
        <time>2022-06-23T07:19:34Z</time>
      </trkpt>
      <trkpt lat="47.71348" lon="5.00346">
        <ele>393.27</ele>
        <time>2022-06-23T07:19:36Z</time>
      </trkpt>
      <trkpt lat="47.7135" lon="5.00348">
        <ele>393.06</ele>
        <time>2022-06-23T07:19:39Z</time>
      </trkpt>
      <trkpt lat="47.71353" lon="5.00351">
        <ele>392.76</ele>
        <time>2022-06-23T07:19:40Z</time>
      </trkpt>
      <trkpt lat="47.71356" lon="5.00355">
        <ele>392.44</ele>
        <time>2022-06-23T07:19:42Z</time>
      </trkpt>
      <trkpt lat="47.71358" lon="5.00357">
        <ele>392.28</ele>
        <time>2022-06-23T07:19:45Z</time>
      </trkpt>
      <trkpt lat="47.7136" lon="5.00361">
        <ele>392.04</ele>
        <time>2022-06-23T07:19:46Z</time>
      </trkpt>
      <trkpt lat="47.71362" lon="5.00364">
        <ele>391.88</ele>
        <time>2022-06-23T07:19:48Z</time>
      </trkpt>
      <trkpt lat="47.71364" lon="5.00368">
        <ele>391.61</ele>
        <time>2022-06-23T07:19:51Z</time>
      </trkpt>
      <trkpt lat="47.71365" lon="5.00372">
        <ele>391.49</ele>
        <time>2022-06-23T07:19:53Z</time>
      </trkpt>
      <trkpt lat="47.71366" lon="5.00375">
        <ele>391.38</ele>
        <time>2022-06-23T07:19:56Z</time>
      </trkpt>
      <trkpt lat="47.71367" lon="5.0038">
        <ele>391.3</ele>
        <time>2022-06-23T07:20:00Z</time>
      </trkpt>
      <trkpt lat="47.71368" lon="5.00384">
        <ele>391.21</ele>
        <time>2022-06-23T07:20:01Z</time>
      </trkpt>
      <trkpt lat="47.71368" lon="5.00389">
        <ele>391.26</ele>
        <time>2022-06-23T07:20:05Z</time>
      </trkpt>
      <trkpt lat="47.71369" lon="5.00395">
        <ele>391.27</ele>
        <time>2022-06-23T07:20:07Z</time>
      </trkpt>
      <trkpt lat="47.71369" lon="5.00399">
        <ele>391.35</ele>
        <time>2022-06-23T07:20:10Z</time>
      </trkpt>
      <trkpt lat="47.7137" lon="5.00404">
        <ele>391.39</ele>
        <time>2022-06-23T07:20:12Z</time>
      </trkpt>
      <trkpt lat="47.7137" lon="5.00409">
        <ele>391.5</ele>
        <time>2022-06-23T07:20:14Z</time>
      </trkpt>
      <trkpt lat="47.71371" lon="5.00413">
        <ele>391.55</ele>
        <time>2022-06-23T07:20:16Z</time>
      </trkpt>
      <trkpt lat="47.71372" lon="5.00417">
        <ele>391.62</ele>
        <time>2022-06-23T07:20:17Z</time>
      </trkpt>
      <trkpt lat="47.71374" lon="5.0042">
        <ele>391.66</ele>
        <time>2022-06-23T07:20:19Z</time>
      </trkpt>
      <trkpt lat="47.71376" lon="5.00424">
        <ele>391.73</ele>
        <time>2022-06-23T07:20:21Z</time>
      </trkpt>
      <trkpt lat="47.71378" lon="5.00426">
        <ele>391.73</ele>
        <time>2022-06-23T07:20:24Z</time>
      </trkpt>
      <trkpt lat="47.71381" lon="5.00427">
        <ele>391.66</ele>
        <time>2022-06-23T07:20:25Z</time>
      </trkpt>
      <trkpt lat="47.71384" lon="5.00427">
        <ele>391.55</ele>
        <time>2022-06-23T07:20:29Z</time>
      </trkpt>
      <trkpt lat="47.71387" lon="5.00427">
        <ele>391.44</ele>
        <time>2022-06-23T07:20:30Z</time>
      </trkpt>
      <trkpt lat="47.71391" lon="5.00425">
        <ele>391.43</ele>
        <time>2022-06-23T07:20:34Z</time>
      </trkpt>
      <trkpt lat="47.71394" lon="5.00425">
        <ele>391.61</ele>
        <time>2022-06-23T07:20:35Z</time>
      </trkpt>
      <trkpt lat="47.71397" lon="5.00425">
        <ele>391.8</ele>
        <time>2022-06-23T07:20:39Z</time>
      </trkpt>
      <trkpt lat="47.714" lon="5.00424">
        <ele>391.96</ele>
        <time>2022-06-23T07:20:41Z</time>
      </trkpt>
      <trkpt lat="47.71402" lon="5.00422">
        <ele>392.05</ele>
        <time>2022-06-23T07:20:44Z</time>
      </trkpt>
      <trkpt lat="47.71406" lon="5.0042">
        <ele>392.28</ele>
        <time>2022-06-23T07:20:46Z</time>
      </trkpt>
      <trkpt lat="47.71408" lon="5.00418">
        <ele>392.39</ele>
        <time>2022-06-23T07:20:49Z</time>
      </trkpt>
      <trkpt lat="47.71411" lon="5.00416">
        <ele>392.58</ele>
        <time>2022-06-23T07:20:51Z</time>
      </trkpt>
      <trkpt lat="47.71414" lon="5.00414">
        <ele>392.79</ele>
        <time>2022-06-23T07:20:53Z</time>
      </trkpt>
      <trkpt lat="47.71417" lon="5.00413">
        <ele>393.05</ele>
        <time>2022-06-23T07:20:55Z</time>
      </trkpt>
      <trkpt lat="47.71419" lon="5.0041">
        <ele>393.36</ele>
        <time>2022-06-23T07:20:59Z</time>
      </trkpt>
      <trkpt lat="47.7142" lon="5.00406">
        <ele>393.53</ele>
        <time>2022-06-23T07:21:00Z</time>
      </trkpt>
      <trkpt lat="47.71422" lon="5.00402">
        <ele>393.87</ele>
        <time>2022-06-23T07:21:04Z</time>
      </trkpt>
      <trkpt lat="47.71424" lon="5.00399">
        <ele>394.22</ele>
        <time>2022-06-23T07:21:05Z</time>
      </trkpt>
      <trkpt lat="47.71426" lon="5.00395">
        <ele>394.61</ele>
        <time>2022-06-23T07:21:09Z</time>
      </trkpt>
      <trkpt lat="47.71427" lon="5.00391">
        <ele>394.83</ele>
        <time>2022-06-23T07:21:11Z</time>
      </trkpt>
      <trkpt lat="47.71429" lon="5.00386">
        <ele>395.12</ele>
        <time>2022-06-23T07:21:15Z</time>
      </trkpt>
      <trkpt lat="47.7143" lon="5.00382">
        <ele>395.15</ele>
        <time>2022-06-23T07:21:17Z</time>
      </trkpt>
      <trkpt lat="47.7143" lon="5.00378">
        <ele>395.01</ele>
        <time>2022-06-23T07:21:20Z</time>
      </trkpt>
      <trkpt lat="47.71431" lon="5.00373">
        <ele>395.01</ele>
        <time>2022-06-23T07:21:24Z</time>
      </trkpt>
      <trkpt lat="47.71432" lon="5.00368">
        <ele>395.01</ele>
        <time>2022-06-23T07:21:25Z</time>
      </trkpt>
      <trkpt lat="47.71432" lon="5.00364">
        <ele>394.86</ele>
        <time>2022-06-23T07:21:27Z</time>
      </trkpt>
      <trkpt lat="47.71433" lon="5.0036">
        <ele>394.9</ele>
        <time>2022-06-23T07:21:29Z</time>
      </trkpt>
      <trkpt lat="47.71433" lon="5.00355">
        <ele>394.72</ele>
        <time>2022-06-23T07:21:32Z</time>
      </trkpt>
      <trkpt lat="47.71434" lon="5.00351">
        <ele>394.76</ele>
        <time>2022-06-23T07:21:35Z</time>
      </trkpt>
      <trkpt lat="47.71434" lon="5.00347">
        <ele>394.61</ele>
        <time>2022-06-23T07:21:38Z</time>
      </trkpt>
      <trkpt lat="47.71434" lon="5.00342">
        <ele>394.43</ele>
        <time>2022-06-23T07:21:40Z</time>
      </trkpt>
      <trkpt lat="47.71434" lon="5.00337">
        <ele>394.25</ele>
        <time>2022-06-23T07:21:42Z</time>
      </trkpt>
      <trkpt lat="47.71434" lon="5.00333">
        <ele>394.11</ele>
        <time>2022-06-23T07:21:44Z</time>
      </trkpt>
      <trkpt lat="47.71434" lon="5.00328">
        <ele>393.93</ele>
        <time>2022-06-23T07:21:46Z</time>
      </trkpt>
      <trkpt lat="47.71435" lon="5.00324">
        <ele>393.96</ele>
        <time>2022-06-23T07:21:48Z</time>
      </trkpt>
      <trkpt lat="47.71435" lon="5.00319">
        <ele>393.78</ele>
        <time>2022-06-23T07:21:50Z</time>
      </trkpt>
      <trkpt lat="47.71435" lon="5.00314">
        <ele>393.6</ele>
        <time>2022-06-23T07:21:53Z</time>
      </trkpt>
      <trkpt lat="47.71436" lon="5.0031">
        <ele>393.64</ele>
        <time>2022-06-23T07:21:54Z</time>
      </trkpt>
      <trkpt lat="47.71436" lon="5.00306">
        <ele>393.5</ele>
        <time>2022-06-23T07:21:56Z</time>
      </trkpt>
      <trkpt lat="47.71436" lon="5.00301">
        <ele>393.37</ele>
        <time>2022-06-23T07:21:59Z</time>
      </trkpt>
      <trkpt lat="47.71437" lon="5.00296">
        <ele>393.41</ele>
        <time>2022-06-23T07:22:00Z</time>
      </trkpt>
      <trkpt lat="47.71437" lon="5.00292">
        <ele>393.3</ele>
        <time>2022-06-23T07:22:02Z</time>
      </trkpt>
      <trkpt lat="47.71437" lon="5.00288">
        <ele>393.2</ele>
        <time>2022-06-23T07:22:05Z</time>
      </trkpt>
      <trkpt lat="47.71438" lon="5.00283">
        <ele>393.22</ele>
        <time>2022-06-23T07:22:07Z</time>
      </trkpt>
      <trkpt lat="47.71438" lon="5.00278">
        <ele>393.08</ele>
        <time>2022-06-23T07:22:10Z</time>
      </trkpt>
      <trkpt lat="47.71439" lon="5.00274">
        <ele>393.08</ele>
        <time>2022-06-23T07:22:12Z</time>
      </trkpt>
      <trkpt lat="47.71439" lon="5.0027">
        <ele>392.94</ele>
        <time>2022-06-23T07:22:15Z</time>
      </trkpt>
      <trkpt lat="47.7144" lon="5.00266">
        <ele>392.94</ele>
        <time>2022-06-23T07:22:16Z</time>
      </trkpt>
      <trkpt lat="47.71441" lon="5.00261">
        <ele>392.9</ele>
        <time>2022-06-23T07:22:20Z</time>
      </trkpt>
      <trkpt lat="47.71442" lon="5.00257">
        <ele>392.9</ele>
        <time>2022-06-23T07:22:22Z</time>
      </trkpt>
      <trkpt lat="47.71443" lon="5.00253">
        <ele>392.9</ele>
        <time>2022-06-23T07:22:24Z</time>
      </trkpt>
      <trkpt lat="47.71445" lon="5.00249">
        <ele>393.12</ele>
        <time>2022-06-23T07:22:27Z</time>
      </trkpt>
      <trkpt lat="47.71446" lon="5.00245">
        <ele>393.32</ele>
        <time>2022-06-23T07:22:30Z</time>
      </trkpt>
      <trkpt lat="47.71447" lon="5.0024">
        <ele>393.49</ele>
        <time>2022-06-23T07:22:32Z</time>
      </trkpt>
      <trkpt lat="47.71449" lon="5.00235">
        <ele>393.81</ele>
        <time>2022-06-23T07:22:35Z</time>
      </trkpt>
      <trkpt lat="47.71451" lon="5.00232">
        <ele>394.11</ele>
        <time>2022-06-23T07:22:36Z</time>
      </trkpt>
      <trkpt lat="47.71452" lon="5.00228">
        <ele>394.2</ele>
        <time>2022-06-23T07:22:37Z</time>
      </trkpt>
      <trkpt lat="47.71453" lon="5.00224">
        <ele>394.27</ele>
        <time>2022-06-23T07:22:40Z</time>
      </trkpt>
      <trkpt lat="47.71455" lon="5.0022">
        <ele>394.39</ele>
        <time>2022-06-23T07:22:42Z</time>
      </trkpt>
      <trkpt lat="47.71457" lon="5.00217">
        <ele>394.52</ele>
        <time>2022-06-23T07:22:43Z</time>
      </trkpt>
      <trkpt lat="47.71459" lon="5.00214">
        <ele>394.66</ele>
        <time>2022-06-23T07:22:45Z</time>
      </trkpt>
      <trkpt lat="47.71461" lon="5.00211">
        <ele>394.82</ele>
        <time>2022-06-23T07:22:47Z</time>
      </trkpt>
      <trkpt lat="47.71464" lon="5.00208">
        <ele>395.15</ele>
        <time>2022-06-23T07:22:50Z</time>
      </trkpt>
      <trkpt lat="47.71466" lon="5.00205">
        <ele>395.35</ele>
        <time>2022-06-23T07:22:53Z</time>
      </trkpt>
      <trkpt lat="47.71469" lon="5.00203">
        <ele>395.76</ele>
        <time>2022-06-23T07:22:54Z</time>
      </trkpt>
      <trkpt lat="47.71472" lon="5.002">
        <ele>396.16</ele>
        <time>2022-06-23T07:22:58Z</time>
      </trkpt>
      <trkpt lat="47.71475" lon="5.00199">
        <ele>396.76</ele>
        <time>2022-06-23T07:22:59Z</time>
      </trkpt>
      <trkpt lat="47.71478" lon="5.00198">
        <ele>397.38</ele>
        <time>2022-06-23T07:23:01Z</time>
      </trkpt>
      <trkpt lat="47.71481" lon="5.00197">
        <ele>397.99</ele>
        <time>2022-06-23T07:23:04Z</time>
      </trkpt>
      <trkpt lat="47.71485" lon="5.00197">
        <ele>398.85</ele>
        <time>2022-06-23T07:23:08Z</time>
      </trkpt>
      <trkpt lat="47.71488" lon="5.00197">
        <ele>399.5</ele>
        <time>2022-06-23T07:23:09Z</time>
      </trkpt>
      <trkpt lat="47.71491" lon="5.00197">
        <ele>400.15</ele>
        <time>2022-06-23T07:23:13Z</time>
      </trkpt>
      <trkpt lat="47.71494" lon="5.00197">
        <ele>400.8</ele>
        <time>2022-06-23T07:23:14Z</time>
      </trkpt>
      <trkpt lat="47.71497" lon="5.00198">
        <ele>401.48</ele>
        <time>2022-06-23T07:23:17Z</time>
      </trkpt>
      <trkpt lat="47.715" lon="5.00199">
        <ele>402.16</ele>
        <time>2022-06-23T07:23:20Z</time>
      </trkpt>
      <trkpt lat="47.71503" lon="5.00199">
        <ele>402.81</ele>
        <time>2022-06-23T07:23:21Z</time>
      </trkpt>
      <trkpt lat="47.71506" lon="5.00201">
        <ele>403.53</ele>
        <time>2022-06-23T07:23:24Z</time>
      </trkpt>
      <trkpt lat="47.71508" lon="5.00203">
        <ele>404.04</ele>
        <time>2022-06-23T07:23:25Z</time>
      </trkpt>
      <trkpt lat="47.71512" lon="5.00205">
        <ele>404.97</ele>
        <time>2022-06-23T07:23:29Z</time>
      </trkpt>
      <trkpt lat="47.71515" lon="5.00207">
        <ele>405.69</ele>
        <time>2022-06-23T07:23:32Z</time>
      </trkpt>
      <trkpt lat="47.71517" lon="5.00209">
        <ele>406.2</ele>
        <time>2022-06-23T07:23:34Z</time>
      </trkpt>
      <trkpt lat="47.7152" lon="5.00212">
        <ele>406.95</ele>
        <time>2022-06-23T07:23:38Z</time>
      </trkpt>
      <trkpt lat="47.71523" lon="5.00215">
        <ele>407.71</ele>
        <time>2022-06-23T07:23:41Z</time>
      </trkpt>
      <trkpt lat="47.71526" lon="5.00218">
        <ele>408.46</ele>
        <time>2022-06-23T07:23:44Z</time>
      </trkpt>
      <trkpt lat="47.71529" lon="5.00221">
        <ele>409.26</ele>
        <time>2022-06-23T07:23:47Z</time>
      </trkpt>
      <trkpt lat="47.71532" lon="5.00222">
        <ele>410.06</ele>
        <time>2022-06-23T07:23:48Z</time>
      </trkpt>
      <trkpt lat="47.71534" lon="5.00224">
        <ele>410.58</ele>
        <time>2022-06-23T07:23:53Z</time>
      </trkpt>
      <trkpt lat="47.71537" lon="5.00225">
        <ele>411.36</ele>
        <time>2022-06-23T07:23:55Z</time>
      </trkpt>
      <trkpt lat="47.7154" lon="5.00224">
        <ele>412.11</ele>
        <time>2022-06-23T07:24:00Z</time>
      </trkpt>
      <trkpt lat="47.71543" lon="5.00222">
        <ele>412.83</ele>
        <time>2022-06-23T07:24:02Z</time>
      </trkpt>
      <trkpt lat="47.71545" lon="5.00221">
        <ele>413.3</ele>
        <time>2022-06-23T07:24:11Z</time>
      </trkpt>
      <trkpt lat="47.71548" lon="5.0022">
        <ele>414.02</ele>
        <time>2022-06-23T07:24:13Z</time>
      </trkpt>
      <trkpt lat="47.71551" lon="5.00219">
        <ele>414.74</ele>
        <time>2022-06-23T07:24:15Z</time>
      </trkpt>
      <trkpt lat="47.71554" lon="5.00218">
        <ele>415.46</ele>
        <time>2022-06-23T07:24:18Z</time>
      </trkpt>
      <trkpt lat="47.71556" lon="5.00216">
        <ele>415.93</ele>
        <time>2022-06-23T07:24:22Z</time>
      </trkpt>
      <trkpt lat="47.7156" lon="5.00213">
        <ele>417.11</ele>
        <time>2022-06-23T07:24:25Z</time>
      </trkpt>
      <trkpt lat="47.71563" lon="5.0021">
        <ele>417.89</ele>
        <time>2022-06-23T07:24:28Z</time>
      </trkpt>
      <trkpt lat="47.71565" lon="5.00207">
        <ele>418.29</ele>
        <time>2022-06-23T07:24:33Z</time>
      </trkpt>
      <trkpt lat="47.71568" lon="5.00205">
        <ele>419.03</ele>
        <time>2022-06-23T07:24:34Z</time>
      </trkpt>
      <trkpt lat="47.7157" lon="5.00202">
        <ele>419.34</ele>
        <time>2022-06-23T07:24:37Z</time>
      </trkpt>
      <trkpt lat="47.71573" lon="5.00199">
        <ele>419.87</ele>
        <time>2022-06-23T07:24:38Z</time>
      </trkpt>
      <trkpt lat="47.71575" lon="5.00196">
        <ele>420.07</ele>
        <time>2022-06-23T07:24:42Z</time>
      </trkpt>
      <trkpt lat="47.71577" lon="5.00192">
        <ele>420.23</ele>
        <time>2022-06-23T07:24:44Z</time>
      </trkpt>
      <trkpt lat="47.71579" lon="5.00189">
        <ele>420.52</ele>
        <time>2022-06-23T07:24:47Z</time>
      </trkpt>
      <trkpt lat="47.71581" lon="5.00186">
        <ele>420.8</ele>
        <time>2022-06-23T07:24:48Z</time>
      </trkpt>
      <trkpt lat="47.71583" lon="5.00183">
        <ele>421.09</ele>
        <time>2022-06-23T07:24:52Z</time>
      </trkpt>
      <trkpt lat="47.71585" lon="5.0018">
        <ele>421.32</ele>
        <time>2022-06-23T07:24:53Z</time>
      </trkpt>
      <trkpt lat="47.71587" lon="5.00177">
        <ele>421.5</ele>
        <time>2022-06-23T07:24:57Z</time>
      </trkpt>
      <trkpt lat="47.71589" lon="5.00174">
        <ele>421.66</ele>
        <time>2022-06-23T07:24:58Z</time>
      </trkpt>
      <trkpt lat="47.71591" lon="5.0017">
        <ele>421.69</ele>
        <time>2022-06-23T07:25:01Z</time>
      </trkpt>
      <trkpt lat="47.71593" lon="5.00166">
        <ele>421.68</ele>
        <time>2022-06-23T07:25:05Z</time>
      </trkpt>
      <trkpt lat="47.71595" lon="5.00163">
        <ele>421.76</ele>
        <time>2022-06-23T07:25:06Z</time>
      </trkpt>
      <trkpt lat="47.71597" lon="5.00158">
        <ele>421.68</ele>
        <time>2022-06-23T07:25:10Z</time>
      </trkpt>
      <trkpt lat="47.71599" lon="5.00154">
        <ele>421.71</ele>
        <time>2022-06-23T07:25:12Z</time>
      </trkpt>
      <trkpt lat="47.71601" lon="5.0015">
        <ele>421.76</ele>
        <time>2022-06-23T07:25:15Z</time>
      </trkpt>
      <trkpt lat="47.71602" lon="5.00147">
        <ele>421.71</ele>
        <time>2022-06-23T07:25:16Z</time>
      </trkpt>
      <trkpt lat="47.71604" lon="5.00142">
        <ele>421.72</ele>
        <time>2022-06-23T07:25:20Z</time>
      </trkpt>
      <trkpt lat="47.71605" lon="5.00138">
        <ele>421.59</ele>
        <time>2022-06-23T07:25:21Z</time>
      </trkpt>
      <trkpt lat="47.71606" lon="5.00133">
        <ele>421.3</ele>
        <time>2022-06-23T07:25:24Z</time>
      </trkpt>
      <trkpt lat="47.71607" lon="5.00129">
        <ele>421.1</ele>
        <time>2022-06-23T07:25:27Z</time>
      </trkpt>
      <trkpt lat="47.71609" lon="5.00124">
        <ele>420.98</ele>
        <time>2022-06-23T07:25:30Z</time>
      </trkpt>
      <trkpt lat="47.71612" lon="5.0012">
        <ele>421.23</ele>
        <time>2022-06-23T07:25:33Z</time>
      </trkpt>
      <trkpt lat="47.71614" lon="5.00117">
        <ele>421.53</ele>
        <time>2022-06-23T07:25:34Z</time>
      </trkpt>
      <trkpt lat="47.71615" lon="5.00113">
        <ele>421.44</ele>
        <time>2022-06-23T07:25:38Z</time>
      </trkpt>
      <trkpt lat="47.71617" lon="5.00108">
        <ele>421.77</ele>
        <time>2022-06-23T07:25:40Z</time>
      </trkpt>
      <trkpt lat="47.71618" lon="5.00104">
        <ele>421.91</ele>
        <time>2022-06-23T07:25:42Z</time>
      </trkpt>
      <trkpt lat="47.7162" lon="5.001">
        <ele>422.35</ele>
        <time>2022-06-23T07:25:44Z</time>
      </trkpt>
      <trkpt lat="47.71621" lon="5.00095">
        <ele>422.42</ele>
        <time>2022-06-23T07:25:48Z</time>
      </trkpt>
      <trkpt lat="47.71622" lon="5.00091">
        <ele>422.52</ele>
        <time>2022-06-23T07:25:49Z</time>
      </trkpt>
      <trkpt lat="47.71623" lon="5.00088">
        <ele>422.66</ele>
        <time>2022-06-23T07:25:51Z</time>
      </trkpt>
      <trkpt lat="47.71625" lon="5.00083">
        <ele>422.98</ele>
        <time>2022-06-23T07:25:55Z</time>
      </trkpt>
      <trkpt lat="47.71627" lon="5.00079">
        <ele>423.33</ele>
        <time>2022-06-23T07:25:57Z</time>
      </trkpt>
      <trkpt lat="47.71629" lon="5.00074">
        <ele>423.6</ele>
        <time>2022-06-23T07:26:01Z</time>
      </trkpt>
      <trkpt lat="47.7163" lon="5.00071">
        <ele>423.69</ele>
        <time>2022-06-23T07:26:03Z</time>
      </trkpt>
      <trkpt lat="47.71632" lon="5.00067">
        <ele>423.99</ele>
        <time>2022-06-23T07:26:05Z</time>
      </trkpt>
      <trkpt lat="47.71634" lon="5.00063">
        <ele>424.26</ele>
        <time>2022-06-23T07:26:08Z</time>
      </trkpt>
      <trkpt lat="47.71636" lon="5.0006">
        <ele>424.58</ele>
        <time>2022-06-23T07:26:10Z</time>
      </trkpt>
      <trkpt lat="47.71638" lon="5.00057">
        <ele>424.88</ele>
        <time>2022-06-23T07:26:13Z</time>
      </trkpt>
      <trkpt lat="47.71641" lon="5.00054">
        <ele>425.32</ele>
        <time>2022-06-23T07:26:14Z</time>
      </trkpt>
      <trkpt lat="47.71643" lon="5.00052">
        <ele>425.59</ele>
        <time>2022-06-23T07:26:18Z</time>
      </trkpt>
      <trkpt lat="47.71646" lon="5.0005">
        <ele>426.03</ele>
        <time>2022-06-23T07:26:19Z</time>
      </trkpt>
      <trkpt lat="47.71649" lon="5.00047">
        <ele>426.4</ele>
        <time>2022-06-23T07:26:22Z</time>
      </trkpt>
      <trkpt lat="47.71651" lon="5.00045">
        <ele>426.63</ele>
        <time>2022-06-23T07:26:24Z</time>
      </trkpt>
      <trkpt lat="47.71654" lon="5.00044">
        <ele>427.08</ele>
        <time>2022-06-23T07:26:28Z</time>
      </trkpt>
      <trkpt lat="47.71657" lon="5.00043">
        <ele>427.51</ele>
        <time>2022-06-23T07:26:29Z</time>
      </trkpt>
      <trkpt lat="47.7166" lon="5.00041">
        <ele>427.88</ele>
        <time>2022-06-23T07:26:33Z</time>
      </trkpt>
      <trkpt lat="47.71663" lon="5.00039">
        <ele>428.23</ele>
        <time>2022-06-23T07:26:35Z</time>
      </trkpt>
      <trkpt lat="47.71666" lon="5.00037">
        <ele>428.56</ele>
        <time>2022-06-23T07:26:38Z</time>
      </trkpt>
      <trkpt lat="47.71669" lon="5.00036">
        <ele>428.72</ele>
        <time>2022-06-23T07:26:41Z</time>
      </trkpt>
      <trkpt lat="47.71672" lon="5.00034">
        <ele>428.81</ele>
        <time>2022-06-23T07:26:42Z</time>
      </trkpt>
      <trkpt lat="47.71675" lon="5.00033">
        <ele>428.99</ele>
        <time>2022-06-23T07:26:45Z</time>
      </trkpt>
      <trkpt lat="47.71678" lon="5.00032">
        <ele>429.22</ele>
        <time>2022-06-23T07:26:47Z</time>
      </trkpt>
      <trkpt lat="47.71681" lon="5.00031">
        <ele>429.48</ele>
        <time>2022-06-23T07:26:49Z</time>
      </trkpt>
      <trkpt lat="47.71684" lon="5.0003">
        <ele>429.78</ele>
        <time>2022-06-23T07:26:53Z</time>
      </trkpt>
      <trkpt lat="47.71688" lon="5.00029">
        <ele>430.22</ele>
        <time>2022-06-23T07:26:55Z</time>
      </trkpt>
      <trkpt lat="47.71691" lon="5.00027">
        <ele>430.57</ele>
        <time>2022-06-23T07:26:57Z</time>
      </trkpt>
      <trkpt lat="47.71693" lon="5.00026">
        <ele>430.72</ele>
        <time>2022-06-23T07:27:00Z</time>
      </trkpt>
      <trkpt lat="47.71696" lon="5.00024">
        <ele>430.36</ele>
        <time>2022-06-23T07:27:01Z</time>
      </trkpt>
      <trkpt lat="47.71699" lon="5.00022">
        <ele>429.65</ele>
        <time>2022-06-23T07:27:05Z</time>
      </trkpt>
      <trkpt lat="47.71702" lon="5.0002">
        <ele>429.1</ele>
        <time>2022-06-23T07:27:06Z</time>
      </trkpt>
      <trkpt lat="47.71704" lon="5.00018">
        <ele>428.88</ele>
        <time>2022-06-23T07:27:08Z</time>
      </trkpt>
      <trkpt lat="47.71707" lon="5.00016">
        <ele>428.64</ele>
        <time>2022-06-23T07:27:09Z</time>
      </trkpt>
      <trkpt lat="47.7171" lon="5.00014">
        <ele>428.58</ele>
        <time>2022-06-23T07:27:12Z</time>
      </trkpt>
      <trkpt lat="47.71712" lon="5.00011">
        <ele>428.94</ele>
        <time>2022-06-23T07:27:14Z</time>
      </trkpt>
      <trkpt lat="47.71715" lon="5.00009">
        <ele>429.23</ele>
        <time>2022-06-23T07:27:17Z</time>
      </trkpt>
      <trkpt lat="47.71719" lon="5.00007">
        <ele>429.71</ele>
        <time>2022-06-23T07:27:19Z</time>
      </trkpt>
      <trkpt lat="47.71721" lon="5.00005">
        <ele>430.34</ele>
        <time>2022-06-23T07:27:22Z</time>
      </trkpt>
      <trkpt lat="47.71724" lon="5.00003">
        <ele>430.7</ele>
        <time>2022-06-23T07:27:24Z</time>
      </trkpt>
      <trkpt lat="47.71727" lon="5.00002">
        <ele>430.42</ele>
        <time>2022-06-23T07:27:26Z</time>
      </trkpt>
      <trkpt lat="47.7173" lon="5">
        <ele>430.32</ele>
        <time>2022-06-23T07:27:29Z</time>
      </trkpt>
      <trkpt lat="47.71732" lon="4.99998">
        <ele>430.01</ele>
        <time>2022-06-23T07:27:32Z</time>
      </trkpt>
      <trkpt lat="47.71735" lon="4.99997">
        <ele>429.49</ele>
        <time>2022-06-23T07:27:33Z</time>
      </trkpt>
      <trkpt lat="47.71738" lon="4.99996">
        <ele>429</ele>
        <time>2022-06-23T07:27:36Z</time>
      </trkpt>
      <trkpt lat="47.71741" lon="4.99995">
        <ele>428.55</ele>
        <time>2022-06-23T07:27:39Z</time>
      </trkpt>
      <trkpt lat="47.71743" lon="4.99994">
        <ele>428.32</ele>
        <time>2022-06-23T07:27:40Z</time>
      </trkpt>
      <trkpt lat="47.71747" lon="4.99992">
        <ele>427.93</ele>
        <time>2022-06-23T07:27:43Z</time>
      </trkpt>
      <trkpt lat="47.7175" lon="4.9999">
        <ele>427.8</ele>
        <time>2022-06-23T07:27:47Z</time>
      </trkpt>
      <trkpt lat="47.71752" lon="4.99988">
        <ele>428.39</ele>
        <time>2022-06-23T07:27:48Z</time>
      </trkpt>
      <trkpt lat="47.71755" lon="4.99986">
        <ele>429.15</ele>
        <time>2022-06-23T07:27:51Z</time>
      </trkpt>
      <trkpt lat="47.71758" lon="4.99984">
        <ele>430</ele>
        <time>2022-06-23T07:27:55Z</time>
      </trkpt>
      <trkpt lat="47.71761" lon="4.99982">
        <ele>430.92</ele>
        <time>2022-06-23T07:27:56Z</time>
      </trkpt>
      <trkpt lat="47.71763" lon="4.99981">
        <ele>431.49</ele>
        <time>2022-06-23T07:27:58Z</time>
      </trkpt>
      <trkpt lat="47.71766" lon="4.9998">
        <ele>432.25</ele>
        <time>2022-06-23T07:28:01Z</time>
      </trkpt>
      <trkpt lat="47.71769" lon="4.9998">
        <ele>432.75</ele>
        <time>2022-06-23T07:28:03Z</time>
      </trkpt>
      <trkpt lat="47.71772" lon="4.99978">
        <ele>433.89</ele>
        <time>2022-06-23T07:28:07Z</time>
      </trkpt>
      <trkpt lat="47.71775" lon="4.99976">
        <ele>435.11</ele>
        <time>2022-06-23T07:28:08Z</time>
      </trkpt>
      <trkpt lat="47.71778" lon="4.99975">
        <ele>435.96</ele>
        <time>2022-06-23T07:28:10Z</time>
      </trkpt>
      <trkpt lat="47.71781" lon="4.99974">
        <ele>435.73</ele>
        <time>2022-06-23T07:28:13Z</time>
      </trkpt>
      <trkpt lat="47.71784" lon="4.99973">
        <ele>435.43</ele>
        <time>2022-06-23T07:28:16Z</time>
      </trkpt>
      <trkpt lat="47.71787" lon="4.99972">
        <ele>434.99</ele>
        <time>2022-06-23T07:28:18Z</time>
      </trkpt>
      <trkpt lat="47.7179" lon="4.99971">
        <ele>434.28</ele>
        <time>2022-06-23T07:28:21Z</time>
      </trkpt>
      <trkpt lat="47.71792" lon="4.9997">
        <ele>433.81</ele>
        <time>2022-06-23T07:28:22Z</time>
      </trkpt>
      <trkpt lat="47.71795" lon="4.99969">
        <ele>433.18</ele>
        <time>2022-06-23T07:28:25Z</time>
      </trkpt>
      <trkpt lat="47.71798" lon="4.99967">
        <ele>432.56</ele>
        <time>2022-06-23T07:28:28Z</time>
      </trkpt>
      <trkpt lat="47.71801" lon="4.99966">
        <ele>432.02</ele>
        <time>2022-06-23T07:28:31Z</time>
      </trkpt>
      <trkpt lat="47.71804" lon="4.99965">
        <ele>431.52</ele>
        <time>2022-06-23T07:28:32Z</time>
      </trkpt>
      <trkpt lat="47.71806" lon="4.99964">
        <ele>431.3</ele>
        <time>2022-06-23T07:28:36Z</time>
      </trkpt>
      <trkpt lat="47.7181" lon="4.99963">
        <ele>431.38</ele>
        <time>2022-06-23T07:28:38Z</time>
      </trkpt>
      <trkpt lat="47.71813" lon="4.99962">
        <ele>431.49</ele>
        <time>2022-06-23T07:28:40Z</time>
      </trkpt>
      <trkpt lat="47.71815" lon="4.99961">
        <ele>431.61</ele>
        <time>2022-06-23T07:28:43Z</time>
      </trkpt>
      <trkpt lat="47.71818" lon="4.9996">
        <ele>431.78</ele>
        <time>2022-06-23T07:28:45Z</time>
      </trkpt>
      <trkpt lat="47.71821" lon="4.99959">
        <ele>431.98</ele>
        <time>2022-06-23T07:28:49Z</time>
      </trkpt>
      <trkpt lat="47.71824" lon="4.99958">
        <ele>432.21</ele>
        <time>2022-06-23T07:28:50Z</time>
      </trkpt>
      <trkpt lat="47.71827" lon="4.99957">
        <ele>432.47</ele>
        <time>2022-06-23T07:28:54Z</time>
      </trkpt>
      <trkpt lat="47.7183" lon="4.99956">
        <ele>432.76</ele>
        <time>2022-06-23T07:28:56Z</time>
      </trkpt>
      <trkpt lat="47.71832" lon="4.99955">
        <ele>433.03</ele>
        <time>2022-06-23T07:28:57Z</time>
      </trkpt>
      <trkpt lat="47.71835" lon="4.99954">
        <ele>434.08</ele>
        <time>2022-06-23T07:29:01Z</time>
      </trkpt>
      <trkpt lat="47.71839" lon="4.99953">
        <ele>436.17</ele>
        <time>2022-06-23T07:29:03Z</time>
      </trkpt>
      <trkpt lat="47.71842" lon="4.99952">
        <ele>437.78</ele>
        <time>2022-06-23T07:29:05Z</time>
      </trkpt>
      <trkpt lat="47.71845" lon="4.99951">
        <ele>439.38</ele>
        <time>2022-06-23T07:29:08Z</time>
      </trkpt>
      <trkpt lat="47.71848" lon="4.99951">
        <ele>440.81</ele>
        <time>2022-06-23T07:29:10Z</time>
      </trkpt>
      <trkpt lat="47.7185" lon="4.9995">
        <ele>441.92</ele>
        <time>2022-06-23T07:29:13Z</time>
      </trkpt>
      <trkpt lat="47.71853" lon="4.99949">
        <ele>443.5</ele>
        <time>2022-06-23T07:29:16Z</time>
      </trkpt>
      <trkpt lat="47.71857" lon="4.99948">
        <ele>445.55</ele>
        <time>2022-06-23T07:29:19Z</time>
      </trkpt>
      <trkpt lat="47.7186" lon="4.99947">
        <ele>447.11</ele>
        <time>2022-06-23T07:29:21Z</time>
      </trkpt>
      <trkpt lat="47.71863" lon="4.99946">
        <ele>447.87</ele>
        <time>2022-06-23T07:29:24Z</time>
      </trkpt>
      <trkpt lat="47.71865" lon="4.99945">
        <ele>448.08</ele>
        <time>2022-06-23T07:29:28Z</time>
      </trkpt>
      <trkpt lat="47.71868" lon="4.99946">
        <ele>448.11</ele>
        <time>2022-06-23T07:29:33Z</time>
      </trkpt>
      <trkpt lat="47.71871" lon="4.99947">
        <ele>448.18</ele>
        <time>2022-06-23T07:29:35Z</time>
      </trkpt>
      <trkpt lat="47.71874" lon="4.99947">
        <ele>448.35</ele>
        <time>2022-06-23T07:30:06Z</time>
      </trkpt>
      <trkpt lat="47.71877" lon="4.99947">
        <ele>448.52</ele>
        <time>2022-06-23T07:31:33Z</time>
      </trkpt>
      <trkpt lat="47.71874" lon="4.99949">
        <ele>448.26</ele>
        <time>2022-06-23T07:32:35Z</time>
      </trkpt>
      <trkpt lat="47.71878" lon="4.99951">
        <ele>448.52</ele>
        <time>2022-06-23T07:32:44Z</time>
      </trkpt>
      <trkpt lat="47.71882" lon="4.99951">
        <ele>448.87</ele>
        <time>2022-06-23T07:32:48Z</time>
      </trkpt>
      <trkpt lat="47.71886" lon="4.99953">
        <ele>449.32</ele>
        <time>2022-06-23T07:32:50Z</time>
      </trkpt>
      <trkpt lat="47.7189" lon="4.99954">
        <ele>449.93</ele>
        <time>2022-06-23T07:32:54Z</time>
      </trkpt>
      <trkpt lat="47.71895" lon="4.99955">
        <ele>451.14</ele>
        <time>2022-06-23T07:32:56Z</time>
      </trkpt>
      <trkpt lat="47.71898" lon="4.99956">
        <ele>451.96</ele>
        <time>2022-06-23T07:32:58Z</time>
      </trkpt>
      <trkpt lat="47.71901" lon="4.99958">
        <ele>453</ele>
        <time>2022-06-23T07:33:00Z</time>
      </trkpt>
      <trkpt lat="47.71904" lon="4.99959">
        <ele>453.93</ele>
        <time>2022-06-23T07:33:02Z</time>
      </trkpt>
      <trkpt lat="47.71908" lon="4.9996">
        <ele>455.18</ele>
        <time>2022-06-23T07:33:06Z</time>
      </trkpt>
      <trkpt lat="47.71911" lon="4.99961">
        <ele>456.22</ele>
        <time>2022-06-23T07:33:09Z</time>
      </trkpt>
      <trkpt lat="47.71914" lon="4.99962">
        <ele>457.31</ele>
        <time>2022-06-23T07:33:11Z</time>
      </trkpt>
      <trkpt lat="47.71916" lon="4.99964">
        <ele>458.43</ele>
        <time>2022-06-23T07:33:12Z</time>
      </trkpt>
      <trkpt lat="47.71919" lon="4.99966">
        <ele>459.01</ele>
        <time>2022-06-23T07:33:14Z</time>
      </trkpt>
      <trkpt lat="47.71922" lon="4.99968">
        <ele>459.3</ele>
        <time>2022-06-23T07:33:18Z</time>
      </trkpt>
      <trkpt lat="47.71925" lon="4.99969">
        <ele>459.28</ele>
        <time>2022-06-23T07:33:20Z</time>
      </trkpt>
      <trkpt lat="47.71928" lon="4.99969">
        <ele>458.99</ele>
        <time>2022-06-23T07:33:21Z</time>
      </trkpt>
      <trkpt lat="47.71932" lon="4.99969">
        <ele>458.61</ele>
        <time>2022-06-23T07:33:23Z</time>
      </trkpt>
      <trkpt lat="47.71935" lon="4.99971">
        <ele>458.76</ele>
        <time>2022-06-23T07:33:25Z</time>
      </trkpt>
      <trkpt lat="47.71938" lon="4.99973">
        <ele>458.86</ele>
        <time>2022-06-23T07:33:28Z</time>
      </trkpt>
      <trkpt lat="47.7194" lon="4.99976">
        <ele>459.3</ele>
        <time>2022-06-23T07:33:31Z</time>
      </trkpt>
      <trkpt lat="47.71943" lon="4.99977">
        <ele>459.19</ele>
        <time>2022-06-23T07:33:33Z</time>
      </trkpt>
      <trkpt lat="47.71946" lon="4.99979">
        <ele>459.3</ele>
        <time>2022-06-23T07:33:35Z</time>
      </trkpt>
      <trkpt lat="47.71948" lon="4.99982">
        <ele>459.73</ele>
        <time>2022-06-23T07:33:38Z</time>
      </trkpt>
      <trkpt lat="47.71951" lon="4.99984">
        <ele>459.84</ele>
        <time>2022-06-23T07:33:40Z</time>
      </trkpt>
      <trkpt lat="47.71954" lon="4.99986">
        <ele>459.94</ele>
        <time>2022-06-23T07:33:43Z</time>
      </trkpt>
      <trkpt lat="47.71957" lon="4.99989">
        <ele>460.27</ele>
        <time>2022-06-23T07:33:45Z</time>
      </trkpt>
      <trkpt lat="47.7196" lon="4.9999">
        <ele>460.16</ele>
        <time>2022-06-23T07:33:47Z</time>
      </trkpt>
      <trkpt lat="47.71962" lon="4.99992">
        <ele>460.38</ele>
        <time>2022-06-23T07:33:49Z</time>
      </trkpt>
      <trkpt lat="47.71966" lon="4.99995">
        <ele>460.59</ele>
        <time>2022-06-23T07:33:52Z</time>
      </trkpt>
      <trkpt lat="47.71969" lon="4.99998">
        <ele>460.92</ele>
        <time>2022-06-23T07:33:54Z</time>
      </trkpt>
      <trkpt lat="47.71972" lon="5">
        <ele>461.02</ele>
        <time>2022-06-23T07:33:57Z</time>
      </trkpt>
      <trkpt lat="47.71975" lon="5.00002">
        <ele>460.16</ele>
        <time>2022-06-23T07:33:59Z</time>
      </trkpt>
      <trkpt lat="47.71978" lon="5.00004">
        <ele>459.27</ele>
        <time>2022-06-23T07:34:02Z</time>
      </trkpt>
      <trkpt lat="47.71981" lon="5.00007">
        <ele>458.5</ele>
        <time>2022-06-23T07:34:04Z</time>
      </trkpt>
      <trkpt lat="47.71984" lon="5.0001">
        <ele>457.79</ele>
        <time>2022-06-23T07:34:05Z</time>
      </trkpt>
      <trkpt lat="47.71986" lon="5.00012">
        <ele>457.33</ele>
        <time>2022-06-23T07:34:07Z</time>
      </trkpt>
      <trkpt lat="47.71988" lon="5.00015">
        <ele>457.01</ele>
        <time>2022-06-23T07:34:10Z</time>
      </trkpt>
      <trkpt lat="47.7199" lon="5.00018">
        <ele>456.73</ele>
        <time>2022-06-23T07:34:13Z</time>
      </trkpt>
      <trkpt lat="47.71993" lon="5.00021">
        <ele>456.16</ele>
        <time>2022-06-23T07:34:15Z</time>
      </trkpt>
      <trkpt lat="47.71995" lon="5.00023">
        <ele>455.81</ele>
        <time>2022-06-23T07:34:16Z</time>
      </trkpt>
      <trkpt lat="47.71998" lon="5.00026">
        <ele>455.33</ele>
        <time>2022-06-23T07:34:20Z</time>
      </trkpt>
      <trkpt lat="47.72" lon="5.00029">
        <ele>455.18</ele>
        <time>2022-06-23T07:34:22Z</time>
      </trkpt>
      <trkpt lat="47.72002" lon="5.00032">
        <ele>455.15</ele>
        <time>2022-06-23T07:34:23Z</time>
      </trkpt>
      <trkpt lat="47.72005" lon="5.00036">
        <ele>455.14</ele>
        <time>2022-06-23T07:34:27Z</time>
      </trkpt>
      <trkpt lat="47.72007" lon="5.00038">
        <ele>455.08</ele>
        <time>2022-06-23T07:34:28Z</time>
      </trkpt>
      <trkpt lat="47.72011" lon="5.00042">
        <ele>455.09</ele>
        <time>2022-06-23T07:34:33Z</time>
      </trkpt>
      <trkpt lat="47.72014" lon="5.00045">
        <ele>455.2</ele>
        <time>2022-06-23T07:34:34Z</time>
      </trkpt>
      <trkpt lat="47.72017" lon="5.00047">
        <ele>455.18</ele>
        <time>2022-06-23T07:34:36Z</time>
      </trkpt>
      <trkpt lat="47.7202" lon="5.0005">
        <ele>455.46</ele>
        <time>2022-06-23T07:34:40Z</time>
      </trkpt>
      <trkpt lat="47.72023" lon="5.00054">
        <ele>456.11</ele>
        <time>2022-06-23T07:34:41Z</time>
      </trkpt>
      <trkpt lat="47.72026" lon="5.00058">
        <ele>456.45</ele>
        <time>2022-06-23T07:34:44Z</time>
      </trkpt>
      <trkpt lat="47.72029" lon="5.00061">
        <ele>456.6</ele>
        <time>2022-06-23T07:34:46Z</time>
      </trkpt>
      <trkpt lat="47.72032" lon="5.00064">
        <ele>456.96</ele>
        <time>2022-06-23T07:34:48Z</time>
      </trkpt>
      <trkpt lat="47.72034" lon="5.00066">
        <ele>457.21</ele>
        <time>2022-06-23T07:34:52Z</time>
      </trkpt>
      <trkpt lat="47.72037" lon="5.00069">
        <ele>457.61</ele>
        <time>2022-06-23T07:34:53Z</time>
      </trkpt>
      <trkpt lat="47.72039" lon="5.00072">
        <ele>458.02</ele>
        <time>2022-06-23T07:34:56Z</time>
      </trkpt>
      <trkpt lat="47.72042" lon="5.00074">
        <ele>458.33</ele>
        <time>2022-06-23T07:34:58Z</time>
      </trkpt>
      <trkpt lat="47.72044" lon="5.00077">
        <ele>458.77</ele>
        <time>2022-06-23T07:34:59Z</time>
      </trkpt>
      <trkpt lat="47.72046" lon="5.0008">
        <ele>459.22</ele>
        <time>2022-06-23T07:35:03Z</time>
      </trkpt>
      <trkpt lat="47.72049" lon="5.00082">
        <ele>459.58</ele>
        <time>2022-06-23T07:35:05Z</time>
      </trkpt>
      <trkpt lat="47.72052" lon="5.00083">
        <ele>459.83</ele>
        <time>2022-06-23T07:35:10Z</time>
      </trkpt>
      <trkpt lat="47.72053" lon="5.00087">
        <ele>460.56</ele>
        <time>2022-06-23T07:35:14Z</time>
      </trkpt>
      <trkpt lat="47.72055" lon="5.00091">
        <ele>461.35</ele>
        <time>2022-06-23T07:35:21Z</time>
      </trkpt>
      <trkpt lat="47.72057" lon="5.00094">
        <ele>461.91</ele>
        <time>2022-06-23T07:35:24Z</time>
      </trkpt>
      <trkpt lat="47.72059" lon="5.00096">
        <ele>462.23</ele>
        <time>2022-06-23T07:35:29Z</time>
      </trkpt>
      <trkpt lat="47.72059" lon="5.001">
        <ele>462.9</ele>
        <time>2022-06-23T07:36:25Z</time>
      </trkpt>
      <trkpt lat="47.72062" lon="5.00099">
        <ele>462.66</ele>
        <time>2022-06-23T07:39:27Z</time>
      </trkpt>
      <trkpt lat="47.72064" lon="5.00101">
        <ele>462.9</ele>
        <time>2022-06-23T07:39:30Z</time>
      </trkpt>
      <trkpt lat="47.72066" lon="5.00104">
        <ele>463.26</ele>
        <time>2022-06-23T07:39:31Z</time>
      </trkpt>
      <trkpt lat="47.72069" lon="5.00106">
        <ele>463.38</ele>
        <time>2022-06-23T07:39:35Z</time>
      </trkpt>
      <trkpt lat="47.72071" lon="5.00108">
        <ele>463.51</ele>
        <time>2022-06-23T07:39:36Z</time>
      </trkpt>
      <trkpt lat="47.72074" lon="5.0011">
        <ele>463.55</ele>
        <time>2022-06-23T07:39:40Z</time>
      </trkpt>
      <trkpt lat="47.72076" lon="5.00112">
        <ele>463.63</ele>
        <time>2022-06-23T07:39:42Z</time>
      </trkpt>
      <trkpt lat="47.72079" lon="5.00113">
        <ele>463.53</ele>
        <time>2022-06-23T07:39:44Z</time>
      </trkpt>
      <trkpt lat="47.72082" lon="5.00116">
        <ele>463.63</ele>
        <time>2022-06-23T07:39:47Z</time>
      </trkpt>
      <trkpt lat="47.72084" lon="5.00119">
        <ele>463.76</ele>
        <time>2022-06-23T07:39:49Z</time>
      </trkpt>
      <trkpt lat="47.72086" lon="5.00123">
        <ele>463.9</ele>
        <time>2022-06-23T07:39:53Z</time>
      </trkpt>
      <trkpt lat="47.72088" lon="5.00126">
        <ele>463.94</ele>
        <time>2022-06-23T07:39:55Z</time>
      </trkpt>
      <trkpt lat="47.7209" lon="5.00129">
        <ele>463.97</ele>
        <time>2022-06-23T07:39:57Z</time>
      </trkpt>
      <trkpt lat="47.72092" lon="5.00132">
        <ele>464.01</ele>
        <time>2022-06-23T07:39:59Z</time>
      </trkpt>
      <trkpt lat="47.72095" lon="5.00135">
        <ele>463.9</ele>
        <time>2022-06-23T07:40:04Z</time>
      </trkpt>
      <trkpt lat="47.72097" lon="5.00138">
        <ele>463.94</ele>
        <time>2022-06-23T07:40:04Z</time>
      </trkpt>
      <trkpt lat="47.721" lon="5.00141">
        <ele>463.57</ele>
        <time>2022-06-23T07:40:07Z</time>
      </trkpt>
      <trkpt lat="47.72103" lon="5.00144">
        <ele>463.11</ele>
        <time>2022-06-23T07:40:10Z</time>
      </trkpt>
      <trkpt lat="47.72105" lon="5.00147">
        <ele>462.82</ele>
        <time>2022-06-23T07:40:11Z</time>
      </trkpt>
      <trkpt lat="47.72108" lon="5.00149">
        <ele>462.41</ele>
        <time>2022-06-23T07:40:14Z</time>
      </trkpt>
      <trkpt lat="47.7211" lon="5.00151">
        <ele>462.14</ele>
        <time>2022-06-23T07:40:16Z</time>
      </trkpt>
      <trkpt lat="47.72112" lon="5.00154">
        <ele>461.97</ele>
        <time>2022-06-23T07:40:18Z</time>
      </trkpt>
      <trkpt lat="47.72114" lon="5.00158">
        <ele>461.9</ele>
        <time>2022-06-23T07:40:19Z</time>
      </trkpt>
      <trkpt lat="47.72115" lon="5.00162">
        <ele>461.86</ele>
        <time>2022-06-23T07:40:23Z</time>
      </trkpt>
      <trkpt lat="47.72116" lon="5.00167">
        <ele>461.8</ele>
        <time>2022-06-23T07:40:24Z</time>
      </trkpt>
      <trkpt lat="47.72119" lon="5.00174">
        <ele>461.26</ele>
        <time>2022-06-23T07:40:27Z</time>
      </trkpt>
      <trkpt lat="47.72121" lon="5.00179">
        <ele>460.91</ele>
        <time>2022-06-23T07:40:32Z</time>
      </trkpt>
      <trkpt lat="47.72122" lon="5.00184">
        <ele>460.6</ele>
        <time>2022-06-23T07:40:37Z</time>
      </trkpt>
      <trkpt lat="47.72123" lon="5.00188">
        <ele>460.36</ele>
        <time>2022-06-23T07:40:38Z</time>
      </trkpt>
      <trkpt lat="47.72124" lon="5.00192">
        <ele>460.14</ele>
        <time>2022-06-23T07:40:43Z</time>
      </trkpt>
      <trkpt lat="47.72125" lon="5.00196">
        <ele>460.06</ele>
        <time>2022-06-23T07:40:44Z</time>
      </trkpt>
      <trkpt lat="47.72125" lon="5.002">
        <ele>460.2</ele>
        <time>2022-06-23T07:40:48Z</time>
      </trkpt>
      <trkpt lat="47.72127" lon="5.00205">
        <ele>460.38</ele>
        <time>2022-06-23T07:40:48Z</time>
      </trkpt>
      <trkpt lat="47.72128" lon="5.0021">
        <ele>460.56</ele>
        <time>2022-06-23T07:40:50Z</time>
      </trkpt>
      <trkpt lat="47.72128" lon="5.00214">
        <ele>460.7</ele>
        <time>2022-06-23T07:40:51Z</time>
      </trkpt>
      <trkpt lat="47.72129" lon="5.00219">
        <ele>460.88</ele>
        <time>2022-06-23T07:40:55Z</time>
      </trkpt>
      <trkpt lat="47.7213" lon="5.00223">
        <ele>461.04</ele>
        <time>2022-06-23T07:40:57Z</time>
      </trkpt>
      <trkpt lat="47.72131" lon="5.00228">
        <ele>461.24</ele>
        <time>2022-06-23T07:41:01Z</time>
      </trkpt>
      <trkpt lat="47.72132" lon="5.00232">
        <ele>461.35</ele>
        <time>2022-06-23T07:41:02Z</time>
      </trkpt>
      <trkpt lat="47.72134" lon="5.00236">
        <ele>461.35</ele>
        <time>2022-06-23T07:41:06Z</time>
      </trkpt>
      <trkpt lat="47.72135" lon="5.00242">
        <ele>461.4</ele>
        <time>2022-06-23T07:41:08Z</time>
      </trkpt>
      <trkpt lat="47.72136" lon="5.00247">
        <ele>461.37</ele>
        <time>2022-06-23T07:41:12Z</time>
      </trkpt>
      <trkpt lat="47.72137" lon="5.00251">
        <ele>461.24</ele>
        <time>2022-06-23T07:41:13Z</time>
      </trkpt>
      <trkpt lat="47.72137" lon="5.00256">
        <ele>461.09</ele>
        <time>2022-06-23T07:41:18Z</time>
      </trkpt>
      <trkpt lat="47.72137" lon="5.00261">
        <ele>460.93</ele>
        <time>2022-06-23T07:41:20Z</time>
      </trkpt>
      <trkpt lat="47.72137" lon="5.00266">
        <ele>460.77</ele>
        <time>2022-06-23T07:41:21Z</time>
      </trkpt>
      <trkpt lat="47.72137" lon="5.00271">
        <ele>460.62</ele>
        <time>2022-06-23T07:41:25Z</time>
      </trkpt>
      <trkpt lat="47.72138" lon="5.00276">
        <ele>460.25</ele>
        <time>2022-06-23T07:41:27Z</time>
      </trkpt>
      <trkpt lat="47.72138" lon="5.0028">
        <ele>460.27</ele>
        <time>2022-06-23T07:41:28Z</time>
      </trkpt>
      <trkpt lat="47.72138" lon="5.00285">
        <ele>460.45</ele>
        <time>2022-06-23T07:41:31Z</time>
      </trkpt>
      <trkpt lat="47.72139" lon="5.00289">
        <ele>460.4</ele>
        <time>2022-06-23T07:41:32Z</time>
      </trkpt>
      <trkpt lat="47.72139" lon="5.00294">
        <ele>460.58</ele>
        <time>2022-06-23T07:41:36Z</time>
      </trkpt>
      <trkpt lat="47.7214" lon="5.00299">
        <ele>460.71</ele>
        <time>2022-06-23T07:41:37Z</time>
      </trkpt>
      <trkpt lat="47.72141" lon="5.00304">
        <ele>460.86</ele>
        <time>2022-06-23T07:41:39Z</time>
      </trkpt>
      <trkpt lat="47.72141" lon="5.00308">
        <ele>461.1</ele>
        <time>2022-06-23T07:41:42Z</time>
      </trkpt>
      <trkpt lat="47.72141" lon="5.00313">
        <ele>461.46</ele>
        <time>2022-06-23T07:41:45Z</time>
      </trkpt>
      <trkpt lat="47.72141" lon="5.00317">
        <ele>461.75</ele>
        <time>2022-06-23T07:41:49Z</time>
      </trkpt>
      <trkpt lat="47.72142" lon="5.00322">
        <ele>462.07</ele>
        <time>2022-06-23T07:41:50Z</time>
      </trkpt>
      <trkpt lat="47.72142" lon="5.00327">
        <ele>462.43</ele>
        <time>2022-06-23T07:41:51Z</time>
      </trkpt>
      <trkpt lat="47.72142" lon="5.00332">
        <ele>462.79</ele>
        <time>2022-06-23T07:41:56Z</time>
      </trkpt>
      <trkpt lat="47.72142" lon="5.00336">
        <ele>463.18</ele>
        <time>2022-06-23T07:42:00Z</time>
      </trkpt>
      <trkpt lat="47.72142" lon="5.00341">
        <ele>463.72</ele>
        <time>2022-06-23T07:42:03Z</time>
      </trkpt>
      <trkpt lat="47.72141" lon="5.00345">
        <ele>464.18</ele>
        <time>2022-06-23T07:42:06Z</time>
      </trkpt>
      <trkpt lat="47.7214" lon="5.0035">
        <ele>464.76</ele>
        <time>2022-06-23T07:42:08Z</time>
      </trkpt>
      <trkpt lat="47.72139" lon="5.00356">
        <ele>465.44</ele>
        <time>2022-06-23T07:42:11Z</time>
      </trkpt>
      <trkpt lat="47.72138" lon="5.00363">
        <ele>466.36</ele>
        <time>2022-06-23T07:42:14Z</time>
      </trkpt>
      <trkpt lat="47.72138" lon="5.00368">
        <ele>466.88</ele>
        <time>2022-06-23T07:42:15Z</time>
      </trkpt>
      <trkpt lat="47.72138" lon="5.00373">
        <ele>467.4</ele>
        <time>2022-06-23T07:42:18Z</time>
      </trkpt>
      <trkpt lat="47.72138" lon="5.00378">
        <ele>467.93</ele>
        <time>2022-06-23T07:42:21Z</time>
      </trkpt>
      <trkpt lat="47.72138" lon="5.00383">
        <ele>468.45</ele>
        <time>2022-06-23T07:42:25Z</time>
      </trkpt>
      <trkpt lat="47.72138" lon="5.00387">
        <ele>468.87</ele>
        <time>2022-06-23T07:42:26Z</time>
      </trkpt>
      <trkpt lat="47.72138" lon="5.00392">
        <ele>469.39</ele>
        <time>2022-06-23T07:42:30Z</time>
      </trkpt>
      <trkpt lat="47.72139" lon="5.00397">
        <ele>469.88</ele>
        <time>2022-06-23T07:42:32Z</time>
      </trkpt>
      <trkpt lat="47.7214" lon="5.00403">
        <ele>470.54</ele>
        <time>2022-06-23T07:42:35Z</time>
      </trkpt>
      <trkpt lat="47.72141" lon="5.00408">
        <ele>471.12</ele>
        <time>2022-06-23T07:42:35Z</time>
      </trkpt>
      <trkpt lat="47.72141" lon="5.00415">
        <ele>471.89</ele>
        <time>2022-06-23T07:42:39Z</time>
      </trkpt>
      <trkpt lat="47.72142" lon="5.0042">
        <ele>472.7</ele>
        <time>2022-06-23T07:42:42Z</time>
      </trkpt>
      <trkpt lat="47.72143" lon="5.00424">
        <ele>473.43</ele>
        <time>2022-06-23T07:42:44Z</time>
      </trkpt>
      <trkpt lat="47.72144" lon="5.00428">
        <ele>474.15</ele>
        <time>2022-06-23T07:42:47Z</time>
      </trkpt>
      <trkpt lat="47.72146" lon="5.00432">
        <ele>474.87</ele>
        <time>2022-06-23T07:42:50Z</time>
      </trkpt>
      <trkpt lat="47.72149" lon="5.00436">
        <ele>475.59</ele>
        <time>2022-06-23T07:42:52Z</time>
      </trkpt>
      <trkpt lat="47.72151" lon="5.00439">
        <ele>476.11</ele>
        <time>2022-06-23T07:42:55Z</time>
      </trkpt>
      <trkpt lat="47.72153" lon="5.00442">
        <ele>476.6</ele>
        <time>2022-06-23T07:42:57Z</time>
      </trkpt>
      <trkpt lat="47.72155" lon="5.00446">
        <ele>477.14</ele>
        <time>2022-06-23T07:42:58Z</time>
      </trkpt>
      <trkpt lat="47.72156" lon="5.00449">
        <ele>477.39</ele>
        <time>2022-06-23T07:43:00Z</time>
      </trkpt>
      <trkpt lat="47.72157" lon="5.00455">
        <ele>477.89</ele>
        <time>2022-06-23T07:43:03Z</time>
      </trkpt>
      <trkpt lat="47.72159" lon="5.00459">
        <ele>478.19</ele>
        <time>2022-06-23T07:43:06Z</time>
      </trkpt>
      <trkpt lat="47.7216" lon="5.00465">
        <ele>478.66</ele>
        <time>2022-06-23T07:43:09Z</time>
      </trkpt>
      <trkpt lat="47.72161" lon="5.0047">
        <ele>479.03</ele>
        <time>2022-06-23T07:43:11Z</time>
      </trkpt>
      <trkpt lat="47.72162" lon="5.00474">
        <ele>479.06</ele>
        <time>2022-06-23T07:43:15Z</time>
      </trkpt>
      <trkpt lat="47.72163" lon="5.0048">
        <ele>478.65</ele>
        <time>2022-06-23T07:43:17Z</time>
      </trkpt>
      <trkpt lat="47.72166" lon="5.00485">
        <ele>478.13</ele>
        <time>2022-06-23T07:43:19Z</time>
      </trkpt>
      <trkpt lat="47.72168" lon="5.00489">
        <ele>477.8</ele>
        <time>2022-06-23T07:43:20Z</time>
      </trkpt>
      <trkpt lat="47.72169" lon="5.00493">
        <ele>477.55</ele>
        <time>2022-06-23T07:43:24Z</time>
      </trkpt>
      <trkpt lat="47.72171" lon="5.00497">
        <ele>477.34</ele>
        <time>2022-06-23T07:43:27Z</time>
      </trkpt>
      <trkpt lat="47.72172" lon="5.00501">
        <ele>477.19</ele>
        <time>2022-06-23T07:43:30Z</time>
      </trkpt>
      <trkpt lat="47.72173" lon="5.00505">
        <ele>477.23</ele>
        <time>2022-06-23T07:43:31Z</time>
      </trkpt>
      <trkpt lat="47.72174" lon="5.00509">
        <ele>477.26</ele>
        <time>2022-06-23T07:43:33Z</time>
      </trkpt>
      <trkpt lat="47.72175" lon="5.00513">
        <ele>477.3</ele>
        <time>2022-06-23T07:43:36Z</time>
      </trkpt>
      <trkpt lat="47.72177" lon="5.00517">
        <ele>477.37</ele>
        <time>2022-06-23T07:43:37Z</time>
      </trkpt>
      <trkpt lat="47.72178" lon="5.00522">
        <ele>477.41</ele>
        <time>2022-06-23T07:43:42Z</time>
      </trkpt>
      <trkpt lat="47.7218" lon="5.00526">
        <ele>477.48</ele>
        <time>2022-06-23T07:43:43Z</time>
      </trkpt>
      <trkpt lat="47.72181" lon="5.00531">
        <ele>477.52</ele>
        <time>2022-06-23T07:43:46Z</time>
      </trkpt>
      <trkpt lat="47.72182" lon="5.00535">
        <ele>477.55</ele>
        <time>2022-06-23T07:43:50Z</time>
      </trkpt>
      <trkpt lat="47.72183" lon="5.0054">
        <ele>477.59</ele>
        <time>2022-06-23T07:43:52Z</time>
      </trkpt>
      <trkpt lat="47.72185" lon="5.00545">
        <ele>477.66</ele>
        <time>2022-06-23T07:43:54Z</time>
      </trkpt>
      <trkpt lat="47.72186" lon="5.00549">
        <ele>477.7</ele>
        <time>2022-06-23T07:43:57Z</time>
      </trkpt>
      <trkpt lat="47.72187" lon="5.00554">
        <ele>477.73</ele>
        <time>2022-06-23T07:43:58Z</time>
      </trkpt>
      <trkpt lat="47.72188" lon="5.00558">
        <ele>477.77</ele>
        <time>2022-06-23T07:44:00Z</time>
      </trkpt>
      <trkpt lat="47.72189" lon="5.00563">
        <ele>477.8</ele>
        <time>2022-06-23T07:44:03Z</time>
      </trkpt>
      <trkpt lat="47.7219" lon="5.00568">
        <ele>477.84</ele>
        <time>2022-06-23T07:44:06Z</time>
      </trkpt>
      <trkpt lat="47.72192" lon="5.00573">
        <ele>477.91</ele>
        <time>2022-06-23T07:44:08Z</time>
      </trkpt>
      <trkpt lat="47.72193" lon="5.00577">
        <ele>477.95</ele>
        <time>2022-06-23T07:44:10Z</time>
      </trkpt>
      <trkpt lat="47.72194" lon="5.00581">
        <ele>477.98</ele>
        <time>2022-06-23T07:44:12Z</time>
      </trkpt>
      <trkpt lat="47.72196" lon="5.00585">
        <ele>478.01</ele>
        <time>2022-06-23T07:44:13Z</time>
      </trkpt>
      <trkpt lat="47.72198" lon="5.00589">
        <ele>478.08</ele>
        <time>2022-06-23T07:44:17Z</time>
      </trkpt>
      <trkpt lat="47.72201" lon="5.00592">
        <ele>478.22</ele>
        <time>2022-06-23T07:44:17Z</time>
      </trkpt>
      <trkpt lat="47.72203" lon="5.00596">
        <ele>478.42</ele>
        <time>2022-06-23T07:44:19Z</time>
      </trkpt>
      <trkpt lat="47.72205" lon="5.00601">
        <ele>478.73</ele>
        <time>2022-06-23T07:44:23Z</time>
      </trkpt>
      <trkpt lat="47.72207" lon="5.00605">
        <ele>479.06</ele>
        <time>2022-06-23T07:44:25Z</time>
      </trkpt>
      <trkpt lat="47.72209" lon="5.00611">
        <ele>479.57</ele>
        <time>2022-06-23T07:44:27Z</time>
      </trkpt>
      <trkpt lat="47.7221" lon="5.00615">
        <ele>480</ele>
        <time>2022-06-23T07:44:30Z</time>
      </trkpt>
      <trkpt lat="47.72211" lon="5.0062">
        <ele>480.5</ele>
        <time>2022-06-23T07:44:32Z</time>
      </trkpt>
      <trkpt lat="47.72213" lon="5.00625">
        <ele>481</ele>
        <time>2022-06-23T07:44:33Z</time>
      </trkpt>
      <trkpt lat="47.72214" lon="5.0063">
        <ele>481.4</ele>
        <time>2022-06-23T07:44:36Z</time>
      </trkpt>
      <trkpt lat="47.72215" lon="5.00635">
        <ele>481.75</ele>
        <time>2022-06-23T07:44:38Z</time>
      </trkpt>
      <trkpt lat="47.72217" lon="5.00639">
        <ele>482.01</ele>
        <time>2022-06-23T07:44:40Z</time>
      </trkpt>
      <trkpt lat="47.72218" lon="5.00644">
        <ele>482.31</ele>
        <time>2022-06-23T07:44:45Z</time>
      </trkpt>
      <trkpt lat="47.72219" lon="5.0065">
        <ele>482.71</ele>
        <time>2022-06-23T07:44:46Z</time>
      </trkpt>
      <trkpt lat="47.72221" lon="5.00655">
        <ele>483.11</ele>
        <time>2022-06-23T07:44:48Z</time>
      </trkpt>
      <trkpt lat="47.72223" lon="5.0066">
        <ele>483.52</ele>
        <time>2022-06-23T07:44:51Z</time>
      </trkpt>
      <trkpt lat="47.72225" lon="5.00664">
        <ele>483.81</ele>
        <time>2022-06-23T07:44:53Z</time>
      </trkpt>
      <trkpt lat="47.72226" lon="5.00667">
        <ele>484.02</ele>
        <time>2022-06-23T07:44:54Z</time>
      </trkpt>
      <trkpt lat="47.72228" lon="5.00671">
        <ele>484.25</ele>
        <time>2022-06-23T07:44:58Z</time>
      </trkpt>
      <trkpt lat="47.7223" lon="5.00675">
        <ele>484.43</ele>
        <time>2022-06-23T07:44:58Z</time>
      </trkpt>
      <trkpt lat="47.72231" lon="5.00678">
        <ele>484.56</ele>
        <time>2022-06-23T07:45:03Z</time>
      </trkpt>
      <trkpt lat="47.72234" lon="5.00683">
        <ele>484.68</ele>
        <time>2022-06-23T07:45:06Z</time>
      </trkpt>
      <trkpt lat="47.72235" lon="5.00687">
        <ele>484.79</ele>
        <time>2022-06-23T07:45:08Z</time>
      </trkpt>
      <trkpt lat="47.72236" lon="5.00691">
        <ele>484.88</ele>
        <time>2022-06-23T07:45:10Z</time>
      </trkpt>
      <trkpt lat="47.72237" lon="5.00697">
        <ele>485.08</ele>
        <time>2022-06-23T07:45:13Z</time>
      </trkpt>
      <trkpt lat="47.72239" lon="5.00701">
        <ele>485.17</ele>
        <time>2022-06-23T07:45:15Z</time>
      </trkpt>
      <trkpt lat="47.7224" lon="5.00705">
        <ele>485.34</ele>
        <time>2022-06-23T07:45:17Z</time>
      </trkpt>
      <trkpt lat="47.72241" lon="5.00709">
        <ele>485.53</ele>
        <time>2022-06-23T07:45:19Z</time>
      </trkpt>
      <trkpt lat="47.72242" lon="5.00713">
        <ele>485.72</ele>
        <time>2022-06-23T07:45:21Z</time>
      </trkpt>
      <trkpt lat="47.72244" lon="5.0072">
        <ele>486.07</ele>
        <time>2022-06-23T07:45:23Z</time>
      </trkpt>
      <trkpt lat="47.72246" lon="5.00725">
        <ele>486.14</ele>
        <time>2022-06-23T07:45:26Z</time>
      </trkpt>
      <trkpt lat="47.72248" lon="5.0073">
        <ele>486.07</ele>
        <time>2022-06-23T07:45:27Z</time>
      </trkpt>
      <trkpt lat="47.7225" lon="5.00733">
        <ele>486</ele>
        <time>2022-06-23T07:45:28Z</time>
      </trkpt>
      <trkpt lat="47.72252" lon="5.00738">
        <ele>485.9</ele>
        <time>2022-06-23T07:45:31Z</time>
      </trkpt>
      <trkpt lat="47.72253" lon="5.00742">
        <ele>485.86</ele>
        <time>2022-06-23T07:45:33Z</time>
      </trkpt>
      <trkpt lat="47.72255" lon="5.00746">
        <ele>485.79</ele>
        <time>2022-06-23T07:45:34Z</time>
      </trkpt>
      <trkpt lat="47.72258" lon="5.00751">
        <ele>485.65</ele>
        <time>2022-06-23T07:45:36Z</time>
      </trkpt>
      <trkpt lat="47.7226" lon="5.00755">
        <ele>485.34</ele>
        <time>2022-06-23T07:45:37Z</time>
      </trkpt>
      <trkpt lat="47.72262" lon="5.00759">
        <ele>485.06</ele>
        <time>2022-06-23T07:45:39Z</time>
      </trkpt>
      <trkpt lat="47.72263" lon="5.00763">
        <ele>484.82</ele>
        <time>2022-06-23T07:45:42Z</time>
      </trkpt>
      <trkpt lat="47.72265" lon="5.00767">
        <ele>484.57</ele>
        <time>2022-06-23T07:45:45Z</time>
      </trkpt>
      <trkpt lat="47.72267" lon="5.0077">
        <ele>484.39</ele>
        <time>2022-06-23T07:45:47Z</time>
      </trkpt>
      <trkpt lat="47.72268" lon="5.00774">
        <ele>484.18</ele>
        <time>2022-06-23T07:45:51Z</time>
      </trkpt>
      <trkpt lat="47.7227" lon="5.00779">
        <ele>484.03</ele>
        <time>2022-06-23T07:45:53Z</time>
      </trkpt>
      <trkpt lat="47.72271" lon="5.00782">
        <ele>484.11</ele>
        <time>2022-06-23T07:45:54Z</time>
      </trkpt>
      <trkpt lat="47.72272" lon="5.00787">
        <ele>484.26</ele>
        <time>2022-06-23T07:45:56Z</time>
      </trkpt>
      <trkpt lat="47.72273" lon="5.00791">
        <ele>484.39</ele>
        <time>2022-06-23T07:46:00Z</time>
      </trkpt>
      <trkpt lat="47.72274" lon="5.00795">
        <ele>484.54</ele>
        <time>2022-06-23T07:46:02Z</time>
      </trkpt>
      <trkpt lat="47.72276" lon="5.00799">
        <ele>484.72</ele>
        <time>2022-06-23T07:46:04Z</time>
      </trkpt>
      <trkpt lat="47.72277" lon="5.00804">
        <ele>484.92</ele>
        <time>2022-06-23T07:46:07Z</time>
      </trkpt>
      <trkpt lat="47.72278" lon="5.00808">
        <ele>484.82</ele>
        <time>2022-06-23T07:46:08Z</time>
      </trkpt>
      <trkpt lat="47.72279" lon="5.00812">
        <ele>484.51</ele>
        <time>2022-06-23T07:46:10Z</time>
      </trkpt>
      <trkpt lat="47.7228" lon="5.00815">
        <ele>484.29</ele>
        <time>2022-06-23T07:46:11Z</time>
      </trkpt>
      <trkpt lat="47.72281" lon="5.00821">
        <ele>483.9</ele>
        <time>2022-06-23T07:46:15Z</time>
      </trkpt>
      <trkpt lat="47.72283" lon="5.00827">
        <ele>483.56</ele>
        <time>2022-06-23T07:46:18Z</time>
      </trkpt>
      <trkpt lat="47.72285" lon="5.00832">
        <ele>483.33</ele>
        <time>2022-06-23T07:46:21Z</time>
      </trkpt>
      <trkpt lat="47.72285" lon="5.00836">
        <ele>483.31</ele>
        <time>2022-06-23T07:46:22Z</time>
      </trkpt>
      <trkpt lat="47.72288" lon="5.00842">
        <ele>483.45</ele>
        <time>2022-06-23T07:46:25Z</time>
      </trkpt>
      <trkpt lat="47.72289" lon="5.00846">
        <ele>483.49</ele>
        <time>2022-06-23T07:46:26Z</time>
      </trkpt>
      <trkpt lat="47.72292" lon="5.00852">
        <ele>483.5</ele>
        <time>2022-06-23T07:46:28Z</time>
      </trkpt>
      <trkpt lat="47.72294" lon="5.00855">
        <ele>483.45</ele>
        <time>2022-06-23T07:46:29Z</time>
      </trkpt>
      <trkpt lat="47.72296" lon="5.00859">
        <ele>483.37</ele>
        <time>2022-06-23T07:46:30Z</time>
      </trkpt>
      <trkpt lat="47.72298" lon="5.00862">
        <ele>483.35</ele>
        <time>2022-06-23T07:46:33Z</time>
      </trkpt>
      <trkpt lat="47.72299" lon="5.00866">
        <ele>483.68</ele>
        <time>2022-06-23T07:46:37Z</time>
      </trkpt>
      <trkpt lat="47.72301" lon="5.0087">
        <ele>484.02</ele>
        <time>2022-06-23T07:46:38Z</time>
      </trkpt>
      <trkpt lat="47.72302" lon="5.00875">
        <ele>484.5</ele>
        <time>2022-06-23T07:46:42Z</time>
      </trkpt>
      <trkpt lat="47.72303" lon="5.00879">
        <ele>484.91</ele>
        <time>2022-06-23T07:46:43Z</time>
      </trkpt>
      <trkpt lat="47.72305" lon="5.00884">
        <ele>485.46</ele>
        <time>2022-06-23T07:46:47Z</time>
      </trkpt>
      <trkpt lat="47.72307" lon="5.00888">
        <ele>485.65</ele>
        <time>2022-06-23T07:46:49Z</time>
      </trkpt>
      <trkpt lat="47.72308" lon="5.00893">
        <ele>485.46</ele>
        <time>2022-06-23T07:46:51Z</time>
      </trkpt>
      <trkpt lat="47.7231" lon="5.00897">
        <ele>485.09</ele>
        <time>2022-06-23T07:46:53Z</time>
      </trkpt>
      <trkpt lat="47.72312" lon="5.00901">
        <ele>484.81</ele>
        <time>2022-06-23T07:46:55Z</time>
      </trkpt>
      <trkpt lat="47.72314" lon="5.00905">
        <ele>484.61</ele>
        <time>2022-06-23T07:47:00Z</time>
      </trkpt>
      <trkpt lat="47.72316" lon="5.00908">
        <ele>484.47</ele>
        <time>2022-06-23T07:47:02Z</time>
      </trkpt>
      <trkpt lat="47.72317" lon="5.00913">
        <ele>484.5</ele>
        <time>2022-06-23T07:47:04Z</time>
      </trkpt>
      <trkpt lat="47.72319" lon="5.00919">
        <ele>484.43</ele>
        <time>2022-06-23T07:47:08Z</time>
      </trkpt>
      <trkpt lat="47.72321" lon="5.00924">
        <ele>484.18</ele>
        <time>2022-06-23T07:47:09Z</time>
      </trkpt>
      <trkpt lat="47.72322" lon="5.00928">
        <ele>484</ele>
        <time>2022-06-23T07:47:12Z</time>
      </trkpt>
      <trkpt lat="47.72323" lon="5.00932">
        <ele>483.82</ele>
        <time>2022-06-23T07:47:14Z</time>
      </trkpt>
      <trkpt lat="47.72324" lon="5.00936">
        <ele>483.64</ele>
        <time>2022-06-23T07:47:16Z</time>
      </trkpt>
      <trkpt lat="47.72325" lon="5.0094">
        <ele>483.46</ele>
        <time>2022-06-23T07:47:19Z</time>
      </trkpt>
      <trkpt lat="47.72327" lon="5.00943">
        <ele>483.28</ele>
        <time>2022-06-23T07:47:20Z</time>
      </trkpt>
      <trkpt lat="47.72328" lon="5.00947">
        <ele>483.16</ele>
        <time>2022-06-23T07:47:23Z</time>
      </trkpt>
      <trkpt lat="47.72329" lon="5.00952">
        <ele>483.07</ele>
        <time>2022-06-23T07:47:26Z</time>
      </trkpt>
      <trkpt lat="47.7233" lon="5.00957">
        <ele>483.01</ele>
        <time>2022-06-23T07:47:29Z</time>
      </trkpt>
      <trkpt lat="47.72331" lon="5.00962">
        <ele>482.98</ele>
        <time>2022-06-23T07:47:31Z</time>
      </trkpt>
      <trkpt lat="47.72332" lon="5.00967">
        <ele>482.97</ele>
        <time>2022-06-23T07:47:33Z</time>
      </trkpt>
      <trkpt lat="47.72334" lon="5.00971">
        <ele>482.95</ele>
        <time>2022-06-23T07:47:34Z</time>
      </trkpt>
      <trkpt lat="47.72335" lon="5.00975">
        <ele>482.97</ele>
        <time>2022-06-23T07:47:37Z</time>
      </trkpt>
      <trkpt lat="47.72337" lon="5.00981">
        <ele>483.01</ele>
        <time>2022-06-23T07:47:39Z</time>
      </trkpt>
      <trkpt lat="47.72339" lon="5.00984">
        <ele>482.93</ele>
        <time>2022-06-23T07:47:40Z</time>
      </trkpt>
      <trkpt lat="47.72341" lon="5.00988">
        <ele>482.86</ele>
        <time>2022-06-23T07:47:43Z</time>
      </trkpt>
      <trkpt lat="47.72342" lon="5.00992">
        <ele>482.87</ele>
        <time>2022-06-23T07:47:45Z</time>
      </trkpt>
      <trkpt lat="47.72344" lon="5.00997">
        <ele>482.78</ele>
        <time>2022-06-23T07:47:47Z</time>
      </trkpt>
      <trkpt lat="47.72346" lon="5.01003">
        <ele>482.52</ele>
        <time>2022-06-23T07:47:51Z</time>
      </trkpt>
      <trkpt lat="47.72347" lon="5.01007">
        <ele>482.27</ele>
        <time>2022-06-23T07:47:52Z</time>
      </trkpt>
      <trkpt lat="47.72348" lon="5.01012">
        <ele>481.98</ele>
        <time>2022-06-23T07:47:57Z</time>
      </trkpt>
      <trkpt lat="47.7235" lon="5.01016">
        <ele>481.62</ele>
        <time>2022-06-23T07:48:00Z</time>
      </trkpt>
      <trkpt lat="47.72351" lon="5.0102">
        <ele>481.37</ele>
        <time>2022-06-23T07:48:04Z</time>
      </trkpt>
      <trkpt lat="47.72353" lon="5.01023">
        <ele>481.05</ele>
        <time>2022-06-23T07:48:08Z</time>
      </trkpt>
      <trkpt lat="47.72355" lon="5.01026">
        <ele>480.72</ele>
        <time>2022-06-23T07:48:11Z</time>
      </trkpt>
      <trkpt lat="47.72357" lon="5.01029">
        <ele>480.43</ele>
        <time>2022-06-23T07:48:16Z</time>
      </trkpt>
      <trkpt lat="47.7236" lon="5.01032">
        <ele>480.11</ele>
        <time>2022-06-23T07:48:36Z</time>
      </trkpt>
      <trkpt lat="47.72362" lon="5.01033">
        <ele>479.96</ele>
        <time>2022-06-23T07:48:40Z</time>
      </trkpt>
      <trkpt lat="47.72365" lon="5.01035">
        <ele>479.79</ele>
        <time>2022-06-23T07:48:49Z</time>
      </trkpt>
      <trkpt lat="47.72366" lon="5.01038">
        <ele>479.69</ele>
        <time>2022-06-23T07:49:19Z</time>
      </trkpt>
      <trkpt lat="47.72366" lon="5.01034">
        <ele>479.75</ele>
        <time>2022-06-23T07:49:40Z</time>
      </trkpt>
      <trkpt lat="47.72366" lon="5.0103">
        <ele>479.8</ele>
        <time>2022-06-23T07:50:49Z</time>
      </trkpt>
      <trkpt lat="47.72369" lon="5.01029">
        <ele>479.69</ele>
        <time>2022-06-23T07:55:19Z</time>
      </trkpt>
      <trkpt lat="47.72366" lon="5.01027">
        <ele>479.86</ele>
        <time>2022-06-23T07:56:07Z</time>
      </trkpt>
      <trkpt lat="47.72364" lon="5.0103">
        <ele>479.88</ele>
        <time>2022-06-23T07:56:15Z</time>
      </trkpt>
      <trkpt lat="47.72363" lon="5.01034">
        <ele>479.9</ele>
        <time>2022-06-23T07:56:22Z</time>
      </trkpt>
      <trkpt lat="47.72363" lon="5.01039">
        <ele>479.88</ele>
        <time>2022-06-23T07:56:27Z</time>
      </trkpt>
      <trkpt lat="47.72364" lon="5.01044">
        <ele>479.77</ele>
        <time>2022-06-23T07:56:29Z</time>
      </trkpt>
      <trkpt lat="47.72365" lon="5.01048">
        <ele>479.66</ele>
        <time>2022-06-23T07:56:32Z</time>
      </trkpt>
      <trkpt lat="47.72366" lon="5.01052">
        <ele>479.52</ele>
        <time>2022-06-23T07:56:38Z</time>
      </trkpt>
      <trkpt lat="47.72366" lon="5.01056">
        <ele>479.44</ele>
        <time>2022-06-23T07:56:39Z</time>
      </trkpt>
      <trkpt lat="47.72367" lon="5.01061">
        <ele>478.97</ele>
        <time>2022-06-23T07:56:43Z</time>
      </trkpt>
      <trkpt lat="47.72368" lon="5.01066">
        <ele>478.5</ele>
        <time>2022-06-23T07:56:45Z</time>
      </trkpt>
      <trkpt lat="47.7237" lon="5.01069">
        <ele>478.07</ele>
        <time>2022-06-23T07:56:47Z</time>
      </trkpt>
      <trkpt lat="47.72371" lon="5.01074">
        <ele>477.6</ele>
        <time>2022-06-23T07:56:51Z</time>
      </trkpt>
      <trkpt lat="47.72373" lon="5.01078">
        <ele>477.1</ele>
        <time>2022-06-23T07:56:52Z</time>
      </trkpt>
      <trkpt lat="47.72374" lon="5.01081">
        <ele>476.78</ele>
        <time>2022-06-23T07:56:54Z</time>
      </trkpt>
      <trkpt lat="47.72376" lon="5.01085">
        <ele>476.18</ele>
        <time>2022-06-23T07:56:58Z</time>
      </trkpt>
      <trkpt lat="47.72377" lon="5.01089">
        <ele>475.58</ele>
        <time>2022-06-23T07:57:02Z</time>
      </trkpt>
      <trkpt lat="47.72379" lon="5.01093">
        <ele>474.9</ele>
        <time>2022-06-23T07:57:03Z</time>
      </trkpt>
      <trkpt lat="47.7238" lon="5.01096">
        <ele>474.45</ele>
        <time>2022-06-23T07:57:07Z</time>
      </trkpt>
      <trkpt lat="47.72382" lon="5.011">
        <ele>473.8</ele>
        <time>2022-06-23T07:57:11Z</time>
      </trkpt>
      <trkpt lat="47.72384" lon="5.01104">
        <ele>473.17</ele>
        <time>2022-06-23T07:57:15Z</time>
      </trkpt>
      <trkpt lat="47.72386" lon="5.01107">
        <ele>472.67</ele>
        <time>2022-06-23T07:57:16Z</time>
      </trkpt>
      <trkpt lat="47.72387" lon="5.01112">
        <ele>472.1</ele>
        <time>2022-06-23T07:57:19Z</time>
      </trkpt>
      <trkpt lat="47.72388" lon="5.01116">
        <ele>471.87</ele>
        <time>2022-06-23T07:57:21Z</time>
      </trkpt>
      <trkpt lat="47.7239" lon="5.0112">
        <ele>471.65</ele>
        <time>2022-06-23T07:57:23Z</time>
      </trkpt>
      <trkpt lat="47.72392" lon="5.01125">
        <ele>471.39</ele>
        <time>2022-06-23T07:57:25Z</time>
      </trkpt>
      <trkpt lat="47.72394" lon="5.01129">
        <ele>471.12</ele>
        <time>2022-06-23T07:57:26Z</time>
      </trkpt>
      <trkpt lat="47.72395" lon="5.01133">
        <ele>470.87</ele>
        <time>2022-06-23T07:57:28Z</time>
      </trkpt>
      <trkpt lat="47.72395" lon="5.01137">
        <ele>470.66</ele>
        <time>2022-06-23T07:57:30Z</time>
      </trkpt>
      <trkpt lat="47.72396" lon="5.01142">
        <ele>470.26</ele>
        <time>2022-06-23T07:57:33Z</time>
      </trkpt>
      <trkpt lat="47.72397" lon="5.01146">
        <ele>469.9</ele>
        <time>2022-06-23T07:57:38Z</time>
      </trkpt>
      <trkpt lat="47.72399" lon="5.0115">
        <ele>469.47</ele>
        <time>2022-06-23T07:57:42Z</time>
      </trkpt>
      <trkpt lat="47.724" lon="5.01154">
        <ele>469.11</ele>
        <time>2022-06-23T07:57:43Z</time>
      </trkpt>
      <trkpt lat="47.72401" lon="5.01158">
        <ele>468.75</ele>
        <time>2022-06-23T07:57:49Z</time>
      </trkpt>
      <trkpt lat="47.72402" lon="5.01163">
        <ele>468.32</ele>
        <time>2022-06-23T07:57:53Z</time>
      </trkpt>
      <trkpt lat="47.72403" lon="5.01167">
        <ele>467.97</ele>
        <time>2022-06-23T07:57:55Z</time>
      </trkpt>
      <trkpt lat="47.72404" lon="5.01171">
        <ele>467.67</ele>
        <time>2022-06-23T07:57:59Z</time>
      </trkpt>
      <trkpt lat="47.72406" lon="5.01175">
        <ele>467.28</ele>
        <time>2022-06-23T07:58:00Z</time>
      </trkpt>
      <trkpt lat="47.72408" lon="5.01179">
        <ele>466.87</ele>
        <time>2022-06-23T07:58:05Z</time>
      </trkpt>
      <trkpt lat="47.72409" lon="5.01182">
        <ele>466.6</ele>
        <time>2022-06-23T07:58:06Z</time>
      </trkpt>
      <trkpt lat="47.72411" lon="5.01186">
        <ele>466.16</ele>
        <time>2022-06-23T07:58:10Z</time>
      </trkpt>
      <trkpt lat="47.72413" lon="5.01188">
        <ele>465.83</ele>
        <time>2022-06-23T07:58:13Z</time>
      </trkpt>
      <trkpt lat="47.72415" lon="5.01192">
        <ele>465.35</ele>
        <time>2022-06-23T07:58:14Z</time>
      </trkpt>
      <trkpt lat="47.72417" lon="5.01195">
        <ele>465</ele>
        <time>2022-06-23T07:58:18Z</time>
      </trkpt>
      <trkpt lat="47.72418" lon="5.01198">
        <ele>464.96</ele>
        <time>2022-06-23T07:58:20Z</time>
      </trkpt>
      <trkpt lat="47.7242" lon="5.01202">
        <ele>464.94</ele>
        <time>2022-06-23T07:58:23Z</time>
      </trkpt>
      <trkpt lat="47.72421" lon="5.01207">
        <ele>464.79</ele>
        <time>2022-06-23T07:58:27Z</time>
      </trkpt>
      <trkpt lat="47.72422" lon="5.0121">
        <ele>464.72</ele>
        <time>2022-06-23T07:58:31Z</time>
      </trkpt>
      <trkpt lat="47.72423" lon="5.01215">
        <ele>464.55</ele>
        <time>2022-06-23T07:58:33Z</time>
      </trkpt>
      <trkpt lat="47.72425" lon="5.01219">
        <ele>464.45</ele>
        <time>2022-06-23T07:58:35Z</time>
      </trkpt>
      <trkpt lat="47.72426" lon="5.01223">
        <ele>464.36</ele>
        <time>2022-06-23T07:58:38Z</time>
      </trkpt>
      <trkpt lat="47.72427" lon="5.01228">
        <ele>464.58</ele>
        <time>2022-06-23T07:58:40Z</time>
      </trkpt>
      <trkpt lat="47.72428" lon="5.01232">
        <ele>464.76</ele>
        <time>2022-06-23T07:58:43Z</time>
      </trkpt>
      <trkpt lat="47.72428" lon="5.01237">
        <ele>464.94</ele>
        <time>2022-06-23T07:58:45Z</time>
      </trkpt>
      <trkpt lat="47.72429" lon="5.01241">
        <ele>465.12</ele>
        <time>2022-06-23T07:58:48Z</time>
      </trkpt>
      <trkpt lat="47.7243" lon="5.01245">
        <ele>465.3</ele>
        <time>2022-06-23T07:58:50Z</time>
      </trkpt>
      <trkpt lat="47.72432" lon="5.01249">
        <ele>465.52</ele>
        <time>2022-06-23T07:58:53Z</time>
      </trkpt>
      <trkpt lat="47.72434" lon="5.01253">
        <ele>465.42</ele>
        <time>2022-06-23T07:58:55Z</time>
      </trkpt>
      <trkpt lat="47.72437" lon="5.01256">
        <ele>465.26</ele>
        <time>2022-06-23T07:58:57Z</time>
      </trkpt>
      <trkpt lat="47.72438" lon="5.01259">
        <ele>465.02</ele>
        <time>2022-06-23T07:59:01Z</time>
      </trkpt>
      <trkpt lat="47.7244" lon="5.01263">
        <ele>464.66</ele>
        <time>2022-06-23T07:59:02Z</time>
      </trkpt>
      <trkpt lat="47.72443" lon="5.01267">
        <ele>464.21</ele>
        <time>2022-06-23T07:59:06Z</time>
      </trkpt>
      <trkpt lat="47.72445" lon="5.01271">
        <ele>463.76</ele>
        <time>2022-06-23T07:59:07Z</time>
      </trkpt>
      <trkpt lat="47.72446" lon="5.01275">
        <ele>463.4</ele>
        <time>2022-06-23T07:59:11Z</time>
      </trkpt>
      <trkpt lat="47.72448" lon="5.01279">
        <ele>463.33</ele>
        <time>2022-06-23T07:59:12Z</time>
      </trkpt>
      <trkpt lat="47.7245" lon="5.01283">
        <ele>463.7</ele>
        <time>2022-06-23T07:59:14Z</time>
      </trkpt>
      <trkpt lat="47.72451" lon="5.01288">
        <ele>464.03</ele>
        <time>2022-06-23T07:59:17Z</time>
      </trkpt>
      <trkpt lat="47.72453" lon="5.01292">
        <ele>464.32</ele>
        <time>2022-06-23T07:59:19Z</time>
      </trkpt>
      <trkpt lat="47.72453" lon="5.01296">
        <ele>464.52</ele>
        <time>2022-06-23T07:59:21Z</time>
      </trkpt>
      <trkpt lat="47.72454" lon="5.01301">
        <ele>464.78</ele>
        <time>2022-06-23T07:59:24Z</time>
      </trkpt>
      <trkpt lat="47.72455" lon="5.01307">
        <ele>464.99</ele>
        <time>2022-06-23T07:59:27Z</time>
      </trkpt>
      <trkpt lat="47.72455" lon="5.01311">
        <ele>464.95</ele>
        <time>2022-06-23T07:59:31Z</time>
      </trkpt>
      <trkpt lat="47.72455" lon="5.01315">
        <ele>464.92</ele>
        <time>2022-06-23T07:59:32Z</time>
      </trkpt>
      <trkpt lat="47.72456" lon="5.01319">
        <ele>464.92</ele>
        <time>2022-06-23T07:59:36Z</time>
      </trkpt>
      <trkpt lat="47.72458" lon="5.01324">
        <ele>464.98</ele>
        <time>2022-06-23T07:59:40Z</time>
      </trkpt>
      <trkpt lat="47.72459" lon="5.01328">
        <ele>465.04</ele>
        <time>2022-06-23T07:59:45Z</time>
      </trkpt>
      <trkpt lat="47.72461" lon="5.01332">
        <ele>465.18</ele>
        <time>2022-06-23T07:59:55Z</time>
      </trkpt>
      <trkpt lat="47.72463" lon="5.01336">
        <ele>465.05</ele>
        <time>2022-06-23T07:59:58Z</time>
      </trkpt>
      <trkpt lat="47.72465" lon="5.01339">
        <ele>464.82</ele>
        <time>2022-06-23T08:00:36Z</time>
      </trkpt>
      <trkpt lat="47.72467" lon="5.01342">
        <ele>464.55</ele>
        <time>2022-06-23T08:00:43Z</time>
      </trkpt>
      <trkpt lat="47.72469" lon="5.01346">
        <ele>464.1</ele>
        <time>2022-06-23T08:00:49Z</time>
      </trkpt>
      <trkpt lat="47.72469" lon="5.01351">
        <ele>463.45</ele>
        <time>2022-06-23T08:01:00Z</time>
      </trkpt>
      <trkpt lat="47.7247" lon="5.01355">
        <ele>462.91</ele>
        <time>2022-06-23T08:01:21Z</time>
      </trkpt>
      <trkpt lat="47.7247" lon="5.01351">
        <ele>463.45</ele>
        <time>2022-06-23T08:01:28Z</time>
      </trkpt>
      <trkpt lat="47.72467" lon="5.01351">
        <ele>463.44</ele>
        <time>2022-06-23T08:01:32Z</time>
      </trkpt>
      <trkpt lat="47.72464" lon="5.01351">
        <ele>463.43</ele>
        <time>2022-06-23T08:01:34Z</time>
      </trkpt>
      <trkpt lat="47.72461" lon="5.01351">
        <ele>463.42</ele>
        <time>2022-06-23T08:01:38Z</time>
      </trkpt>
      <trkpt lat="47.72458" lon="5.01351">
        <ele>463.41</ele>
        <time>2022-06-23T08:01:40Z</time>
      </trkpt>
      <trkpt lat="47.72456" lon="5.01354">
        <ele>463.16</ele>
        <time>2022-06-23T08:01:50Z</time>
      </trkpt>
      <trkpt lat="47.72453" lon="5.01356">
        <ele>463.05</ele>
        <time>2022-06-23T08:01:53Z</time>
      </trkpt>
      <trkpt lat="47.7245" lon="5.01357">
        <ele>463.04</ele>
        <time>2022-06-23T08:01:57Z</time>
      </trkpt>
      <trkpt lat="47.72448" lon="5.01358">
        <ele>463.03</ele>
        <time>2022-06-23T08:02:00Z</time>
      </trkpt>
      <trkpt lat="47.72444" lon="5.01358">
        <ele>463.16</ele>
        <time>2022-06-23T08:02:03Z</time>
      </trkpt>
      <trkpt lat="47.72441" lon="5.01359">
        <ele>463.46</ele>
        <time>2022-06-23T08:02:06Z</time>
      </trkpt>
      <trkpt lat="47.72438" lon="5.0136">
        <ele>463.75</ele>
        <time>2022-06-23T08:02:09Z</time>
      </trkpt>
      <trkpt lat="47.72435" lon="5.01362">
        <ele>463.98</ele>
        <time>2022-06-23T08:02:12Z</time>
      </trkpt>
      <trkpt lat="47.72432" lon="5.01364">
        <ele>464.19</ele>
        <time>2022-06-23T08:02:13Z</time>
      </trkpt>
      <trkpt lat="47.7243" lon="5.01366">
        <ele>464.29</ele>
        <time>2022-06-23T08:02:15Z</time>
      </trkpt>
      <trkpt lat="47.72427" lon="5.01367">
        <ele>464.54</ele>
        <time>2022-06-23T08:02:16Z</time>
      </trkpt>
      <trkpt lat="47.72424" lon="5.01369">
        <ele>464.71</ele>
        <time>2022-06-23T08:02:19Z</time>
      </trkpt>
      <trkpt lat="47.72421" lon="5.0137">
        <ele>464.94</ele>
        <time>2022-06-23T08:02:21Z</time>
      </trkpt>
      <trkpt lat="47.72418" lon="5.01371">
        <ele>465.16</ele>
        <time>2022-06-23T08:02:23Z</time>
      </trkpt>
      <trkpt lat="47.72415" lon="5.01372">
        <ele>465.67</ele>
        <time>2022-06-23T08:02:25Z</time>
      </trkpt>
      <trkpt lat="47.72411" lon="5.01373">
        <ele>466.69</ele>
        <time>2022-06-23T08:02:29Z</time>
      </trkpt>
      <trkpt lat="47.72408" lon="5.01374">
        <ele>467.42</ele>
        <time>2022-06-23T08:02:30Z</time>
      </trkpt>
      <trkpt lat="47.72406" lon="5.01375">
        <ele>467.88</ele>
        <time>2022-06-23T08:02:31Z</time>
      </trkpt>
      <trkpt lat="47.72403" lon="5.01376">
        <ele>468.6</ele>
        <time>2022-06-23T08:02:33Z</time>
      </trkpt>
      <trkpt lat="47.724" lon="5.01377">
        <ele>469.31</ele>
        <time>2022-06-23T08:02:34Z</time>
      </trkpt>
      <trkpt lat="47.72397" lon="5.01378">
        <ele>470.02</ele>
        <time>2022-06-23T08:02:37Z</time>
      </trkpt>
      <trkpt lat="47.72395" lon="5.01381">
        <ele>470.25</ele>
        <time>2022-06-23T08:02:40Z</time>
      </trkpt>
      <trkpt lat="47.72392" lon="5.01384">
        <ele>470.72</ele>
        <time>2022-06-23T08:02:41Z</time>
      </trkpt>
      <trkpt lat="47.7239" lon="5.01386">
        <ele>471.03</ele>
        <time>2022-06-23T08:02:45Z</time>
      </trkpt>
      <trkpt lat="47.72388" lon="5.01389">
        <ele>471.06</ele>
        <time>2022-06-23T08:02:49Z</time>
      </trkpt>
      <trkpt lat="47.72385" lon="5.01391">
        <ele>471.17</ele>
        <time>2022-06-23T08:02:50Z</time>
      </trkpt>
      <trkpt lat="47.72383" lon="5.01394">
        <ele>471.12</ele>
        <time>2022-06-23T08:02:54Z</time>
      </trkpt>
      <trkpt lat="47.72381" lon="5.01397">
        <ele>471.03</ele>
        <time>2022-06-23T08:02:55Z</time>
      </trkpt>
      <trkpt lat="47.72379" lon="5.01399">
        <ele>470.96</ele>
        <time>2022-06-23T08:02:57Z</time>
      </trkpt>
      <trkpt lat="47.72376" lon="5.01402">
        <ele>470.8</ele>
        <time>2022-06-23T08:02:59Z</time>
      </trkpt>
      <trkpt lat="47.72374" lon="5.01404">
        <ele>470.65</ele>
        <time>2022-06-23T08:03:03Z</time>
      </trkpt>
      <trkpt lat="47.72371" lon="5.01407">
        <ele>470.38</ele>
        <time>2022-06-23T08:03:06Z</time>
      </trkpt>
      <trkpt lat="47.72369" lon="5.0141">
        <ele>470.04</ele>
        <time>2022-06-23T08:03:07Z</time>
      </trkpt>
      <trkpt lat="47.72366" lon="5.01411">
        <ele>469.88</ele>
        <time>2022-06-23T08:03:10Z</time>
      </trkpt>
      <trkpt lat="47.72363" lon="5.01413">
        <ele>469.57</ele>
        <time>2022-06-23T08:03:13Z</time>
      </trkpt>
      <trkpt lat="47.7236" lon="5.01415">
        <ele>469.4</ele>
        <time>2022-06-23T08:03:15Z</time>
      </trkpt>
      <trkpt lat="47.72357" lon="5.01417">
        <ele>469.59</ele>
        <time>2022-06-23T08:03:17Z</time>
      </trkpt>
      <trkpt lat="47.72355" lon="5.0142">
        <ele>469.84</ele>
        <time>2022-06-23T08:03:20Z</time>
      </trkpt>
      <trkpt lat="47.72352" lon="5.01422">
        <ele>470.13</ele>
        <time>2022-06-23T08:03:24Z</time>
      </trkpt>
      <trkpt lat="47.72349" lon="5.01425">
        <ele>470.26</ele>
        <time>2022-06-23T08:03:25Z</time>
      </trkpt>
      <trkpt lat="47.72347" lon="5.01427">
        <ele>470.27</ele>
        <time>2022-06-23T08:03:27Z</time>
      </trkpt>
      <trkpt lat="47.72344" lon="5.01428">
        <ele>470.36</ele>
        <time>2022-06-23T08:03:28Z</time>
      </trkpt>
      <trkpt lat="47.72341" lon="5.01429">
        <ele>470.41</ele>
        <time>2022-06-23T08:03:31Z</time>
      </trkpt>
      <trkpt lat="47.72338" lon="5.0143">
        <ele>470.41</ele>
        <time>2022-06-23T08:03:32Z</time>
      </trkpt>
      <trkpt lat="47.72335" lon="5.01431">
        <ele>470.37</ele>
        <time>2022-06-23T08:03:34Z</time>
      </trkpt>
      <trkpt lat="47.72331" lon="5.01431">
        <ele>470.3</ele>
        <time>2022-06-23T08:03:37Z</time>
      </trkpt>
      <trkpt lat="47.72328" lon="5.01432">
        <ele>470</ele>
        <time>2022-06-23T08:03:38Z</time>
      </trkpt>
      <trkpt lat="47.72325" lon="5.01433">
        <ele>469.74</ele>
        <time>2022-06-23T08:03:40Z</time>
      </trkpt>
      <trkpt lat="47.72322" lon="5.01434">
        <ele>469.52</ele>
        <time>2022-06-23T08:03:42Z</time>
      </trkpt>
      <trkpt lat="47.72319" lon="5.01435">
        <ele>469.34</ele>
        <time>2022-06-23T08:03:43Z</time>
      </trkpt>
      <trkpt lat="47.72317" lon="5.01436">
        <ele>469.21</ele>
        <time>2022-06-23T08:03:45Z</time>
      </trkpt>
      <trkpt lat="47.72313" lon="5.01438">
        <ele>469.04</ele>
        <time>2022-06-23T08:03:49Z</time>
      </trkpt>
      <trkpt lat="47.7231" lon="5.0144">
        <ele>468.97</ele>
        <time>2022-06-23T08:03:49Z</time>
      </trkpt>
      <trkpt lat="47.72307" lon="5.01442">
        <ele>468.97</ele>
        <time>2022-06-23T08:03:52Z</time>
      </trkpt>
      <trkpt lat="47.72305" lon="5.01444">
        <ele>469.1</ele>
        <time>2022-06-23T08:03:54Z</time>
      </trkpt>
      <trkpt lat="47.72302" lon="5.01447">
        <ele>469.28</ele>
        <time>2022-06-23T08:03:57Z</time>
      </trkpt>
      <trkpt lat="47.72299" lon="5.0145">
        <ele>469.43</ele>
        <time>2022-06-23T08:04:01Z</time>
      </trkpt>
      <trkpt lat="47.72297" lon="5.01453">
        <ele>469.4</ele>
        <time>2022-06-23T08:04:02Z</time>
      </trkpt>
      <trkpt lat="47.72295" lon="5.01456">
        <ele>469.39</ele>
        <time>2022-06-23T08:04:06Z</time>
      </trkpt>
      <trkpt lat="47.72292" lon="5.01459">
        <ele>469.6</ele>
        <time>2022-06-23T08:04:11Z</time>
      </trkpt>
      <trkpt lat="47.72291" lon="5.01464">
        <ele>469.17</ele>
        <time>2022-06-23T08:04:14Z</time>
      </trkpt>
      <trkpt lat="47.72291" lon="5.01468">
        <ele>468.67</ele>
        <time>2022-06-23T08:04:16Z</time>
      </trkpt>
      <trkpt lat="47.7229" lon="5.01473">
        <ele>468.37</ele>
        <time>2022-06-23T08:04:18Z</time>
      </trkpt>
      <trkpt lat="47.72287" lon="5.01476">
        <ele>469.01</ele>
        <time>2022-06-23T08:04:19Z</time>
      </trkpt>
      <trkpt lat="47.72285" lon="5.01479">
        <ele>469.39</ele>
        <time>2022-06-23T08:04:22Z</time>
      </trkpt>
      <trkpt lat="47.72282" lon="5.01481">
        <ele>469.92</ele>
        <time>2022-06-23T08:04:23Z</time>
      </trkpt>
      <trkpt lat="47.72279" lon="5.01482">
        <ele>470.43</ele>
        <time>2022-06-23T08:04:24Z</time>
      </trkpt>
      <trkpt lat="47.72276" lon="5.01483">
        <ele>470.7</ele>
        <time>2022-06-23T08:04:27Z</time>
      </trkpt>
      <trkpt lat="47.72273" lon="5.01485">
        <ele>470.79</ele>
        <time>2022-06-23T08:04:29Z</time>
      </trkpt>
      <trkpt lat="47.7227" lon="5.01485">
        <ele>470.95</ele>
        <time>2022-06-23T08:04:30Z</time>
      </trkpt>
      <trkpt lat="47.72266" lon="5.01486">
        <ele>471.14</ele>
        <time>2022-06-23T08:04:33Z</time>
      </trkpt>
      <trkpt lat="47.72263" lon="5.01487">
        <ele>471.28</ele>
        <time>2022-06-23T08:04:35Z</time>
      </trkpt>
      <trkpt lat="47.7226" lon="5.01488">
        <ele>471.44</ele>
        <time>2022-06-23T08:04:36Z</time>
      </trkpt>
      <trkpt lat="47.72258" lon="5.01489">
        <ele>471.54</ele>
        <time>2022-06-23T08:04:39Z</time>
      </trkpt>
      <trkpt lat="47.72254" lon="5.0149">
        <ele>471.76</ele>
        <time>2022-06-23T08:04:40Z</time>
      </trkpt>
      <trkpt lat="47.72251" lon="5.01491">
        <ele>471.94</ele>
        <time>2022-06-23T08:04:42Z</time>
      </trkpt>
      <trkpt lat="47.72249" lon="5.01493">
        <ele>472.04</ele>
        <time>2022-06-23T08:04:46Z</time>
      </trkpt>
      <trkpt lat="47.72246" lon="5.01495">
        <ele>472.14</ele>
        <time>2022-06-23T08:04:51Z</time>
      </trkpt>
      <trkpt lat="47.72244" lon="5.01499">
        <ele>472.22</ele>
        <time>2022-06-23T08:04:52Z</time>
      </trkpt>
      <trkpt lat="47.72242" lon="5.01502">
        <ele>472.46</ele>
        <time>2022-06-23T08:04:56Z</time>
      </trkpt>
      <trkpt lat="47.7224" lon="5.01505">
        <ele>472.77</ele>
        <time>2022-06-23T08:04:59Z</time>
      </trkpt>
      <trkpt lat="47.72237" lon="5.01507">
        <ele>472.99</ele>
        <time>2022-06-23T08:05:00Z</time>
      </trkpt>
      <trkpt lat="47.72234" lon="5.01509">
        <ele>473.17</ele>
        <time>2022-06-23T08:05:04Z</time>
      </trkpt>
      <trkpt lat="47.72231" lon="5.01511">
        <ele>473.33</ele>
        <time>2022-06-23T08:05:07Z</time>
      </trkpt>
      <trkpt lat="47.72228" lon="5.01513">
        <ele>473.45</ele>
        <time>2022-06-23T08:05:08Z</time>
      </trkpt>
      <trkpt lat="47.72225" lon="5.01514">
        <ele>473.5</ele>
        <time>2022-06-23T08:05:09Z</time>
      </trkpt>
      <trkpt lat="47.72221" lon="5.01515">
        <ele>473.58</ele>
        <time>2022-06-23T08:05:12Z</time>
      </trkpt>
      <trkpt lat="47.72219" lon="5.01517">
        <ele>473.73</ele>
        <time>2022-06-23T08:05:13Z</time>
      </trkpt>
      <trkpt lat="47.72216" lon="5.01519">
        <ele>473.91</ele>
        <time>2022-06-23T08:05:16Z</time>
      </trkpt>
      <trkpt lat="47.72214" lon="5.01522">
        <ele>474.09</ele>
        <time>2022-06-23T08:05:19Z</time>
      </trkpt>
      <trkpt lat="47.72212" lon="5.01525">
        <ele>474.27</ele>
        <time>2022-06-23T08:05:25Z</time>
      </trkpt>
      <trkpt lat="47.72212" lon="5.0153">
        <ele>474.53</ele>
        <time>2022-06-23T08:05:32Z</time>
      </trkpt>
      <trkpt lat="47.7221" lon="5.01534">
        <ele>474.89</ele>
        <time>2022-06-23T08:05:42Z</time>
      </trkpt>
      <trkpt lat="47.72209" lon="5.01538">
        <ele>475.21</ele>
        <time>2022-06-23T08:05:45Z</time>
      </trkpt>
      <trkpt lat="47.72207" lon="5.01542">
        <ele>475.57</ele>
        <time>2022-06-23T08:05:48Z</time>
      </trkpt>
      <trkpt lat="47.72204" lon="5.01544">
        <ele>475.82</ele>
        <time>2022-06-23T08:05:55Z</time>
      </trkpt>
      <trkpt lat="47.72202" lon="5.01547">
        <ele>476.11</ele>
        <time>2022-06-23T08:05:58Z</time>
      </trkpt>
      <trkpt lat="47.722" lon="5.0155">
        <ele>476.4</ele>
        <time>2022-06-23T08:06:02Z</time>
      </trkpt>
      <trkpt lat="47.72198" lon="5.01553">
        <ele>476.69</ele>
        <time>2022-06-23T08:06:05Z</time>
      </trkpt>
      <trkpt lat="47.72195" lon="5.01554">
        <ele>476.87</ele>
        <time>2022-06-23T08:06:07Z</time>
      </trkpt>
      <trkpt lat="47.72192" lon="5.01555">
        <ele>477.13</ele>
        <time>2022-06-23T08:06:09Z</time>
      </trkpt>
      <trkpt lat="47.72189" lon="5.01557">
        <ele>477.55</ele>
        <time>2022-06-23T08:06:12Z</time>
      </trkpt>
      <trkpt lat="47.72186" lon="5.01558">
        <ele>477.87</ele>
        <time>2022-06-23T08:06:15Z</time>
      </trkpt>
      <trkpt lat="47.72183" lon="5.01558">
        <ele>478.09</ele>
        <time>2022-06-23T08:06:17Z</time>
      </trkpt>
      <trkpt lat="47.72181" lon="5.01558">
        <ele>478.23</ele>
        <time>2022-06-23T08:06:21Z</time>
      </trkpt>
      <trkpt lat="47.72178" lon="5.01559">
        <ele>478.56</ele>
        <time>2022-06-23T08:06:26Z</time>
      </trkpt>
      <trkpt lat="47.72175" lon="5.01561">
        <ele>478.99</ele>
        <time>2022-06-23T08:06:28Z</time>
      </trkpt>
      <trkpt lat="47.72172" lon="5.01563">
        <ele>479.42</ele>
        <time>2022-06-23T08:06:32Z</time>
      </trkpt>
      <trkpt lat="47.72168" lon="5.01565">
        <ele>479.92</ele>
        <time>2022-06-23T08:06:34Z</time>
      </trkpt>
      <trkpt lat="47.72165" lon="5.01567">
        <ele>480.36</ele>
        <time>2022-06-23T08:06:36Z</time>
      </trkpt>
      <trkpt lat="47.72162" lon="5.01569">
        <ele>480.79</ele>
        <time>2022-06-23T08:06:38Z</time>
      </trkpt>
      <trkpt lat="47.72159" lon="5.0157">
        <ele>481.11</ele>
        <time>2022-06-23T08:06:40Z</time>
      </trkpt>
      <trkpt lat="47.72155" lon="5.01572">
        <ele>481.62</ele>
        <time>2022-06-23T08:06:43Z</time>
      </trkpt>
      <trkpt lat="47.72153" lon="5.01574">
        <ele>481.98</ele>
        <time>2022-06-23T08:06:44Z</time>
      </trkpt>
      <trkpt lat="47.7215" lon="5.01576">
        <ele>482.41</ele>
        <time>2022-06-23T08:06:46Z</time>
      </trkpt>
      <trkpt lat="47.72147" lon="5.01578">
        <ele>482.84</ele>
        <time>2022-06-23T08:06:48Z</time>
      </trkpt>
      <trkpt lat="47.72144" lon="5.01579">
        <ele>483.16</ele>
        <time>2022-06-23T08:06:50Z</time>
      </trkpt>
      <trkpt lat="47.72141" lon="5.01581">
        <ele>483.6</ele>
        <time>2022-06-23T08:06:53Z</time>
      </trkpt>
      <trkpt lat="47.72138" lon="5.01582">
        <ele>483.83</ele>
        <time>2022-06-23T08:06:54Z</time>
      </trkpt>
      <trkpt lat="47.72134" lon="5.01584">
        <ele>483.9</ele>
        <time>2022-06-23T08:06:56Z</time>
      </trkpt>
      <trkpt lat="47.72131" lon="5.01586">
        <ele>483.96</ele>
        <time>2022-06-23T08:07:00Z</time>
      </trkpt>
      <trkpt lat="47.72129" lon="5.01588">
        <ele>484.02</ele>
        <time>2022-06-23T08:07:01Z</time>
      </trkpt>
      <trkpt lat="47.72126" lon="5.01591">
        <ele>484</ele>
        <time>2022-06-23T08:07:05Z</time>
      </trkpt>
      <trkpt lat="47.72123" lon="5.01594">
        <ele>483.87</ele>
        <time>2022-06-23T08:07:07Z</time>
      </trkpt>
      <trkpt lat="47.72121" lon="5.01596">
        <ele>483.71</ele>
        <time>2022-06-23T08:07:07Z</time>
      </trkpt>
      <trkpt lat="47.72118" lon="5.01599">
        <ele>483.38</ele>
        <time>2022-06-23T08:07:09Z</time>
      </trkpt>
      <trkpt lat="47.72115" lon="5.016">
        <ele>482.96</ele>
        <time>2022-06-23T08:07:10Z</time>
      </trkpt>
      <trkpt lat="47.72113" lon="5.01602">
        <ele>482.62</ele>
        <time>2022-06-23T08:07:12Z</time>
      </trkpt>
      <trkpt lat="47.7211" lon="5.01603">
        <ele>482.44</ele>
        <time>2022-06-23T08:07:15Z</time>
      </trkpt>
      <trkpt lat="47.72107" lon="5.01604">
        <ele>482.81</ele>
        <time>2022-06-23T08:07:17Z</time>
      </trkpt>
      <trkpt lat="47.72104" lon="5.01606">
        <ele>483.16</ele>
        <time>2022-06-23T08:07:19Z</time>
      </trkpt>
      <trkpt lat="47.72102" lon="5.01609">
        <ele>483.36</ele>
        <time>2022-06-23T08:07:21Z</time>
      </trkpt>
      <trkpt lat="47.72099" lon="5.01611">
        <ele>483.75</ele>
        <time>2022-06-23T08:07:22Z</time>
      </trkpt>
      <trkpt lat="47.72097" lon="5.01614">
        <ele>484.24</ele>
        <time>2022-06-23T08:07:25Z</time>
      </trkpt>
      <trkpt lat="47.72094" lon="5.01617">
        <ele>484.84</ele>
        <time>2022-06-23T08:07:30Z</time>
      </trkpt>
      <trkpt lat="47.72091" lon="5.01618">
        <ele>485.28</ele>
        <time>2022-06-23T08:07:31Z</time>
      </trkpt>
      <trkpt lat="47.72088" lon="5.01619">
        <ele>485.71</ele>
        <time>2022-06-23T08:07:34Z</time>
      </trkpt>
      <trkpt lat="47.72085" lon="5.01621">
        <ele>486.16</ele>
        <time>2022-06-23T08:07:35Z</time>
      </trkpt>
      <trkpt lat="47.72081" lon="5.01623">
        <ele>486.66</ele>
        <time>2022-06-23T08:07:37Z</time>
      </trkpt>
      <trkpt lat="47.72079" lon="5.01624">
        <ele>486.87</ele>
        <time>2022-06-23T08:07:40Z</time>
      </trkpt>
      <trkpt lat="47.72076" lon="5.01626">
        <ele>487.17</ele>
        <time>2022-06-23T08:07:42Z</time>
      </trkpt>
      <trkpt lat="47.72073" lon="5.01627">
        <ele>487.42</ele>
        <time>2022-06-23T08:07:43Z</time>
      </trkpt>
      <trkpt lat="47.7207" lon="5.0163">
        <ele>487.62</ele>
        <time>2022-06-23T08:07:45Z</time>
      </trkpt>
      <trkpt lat="47.72068" lon="5.01632">
        <ele>487.71</ele>
        <time>2022-06-23T08:07:47Z</time>
      </trkpt>
      <trkpt lat="47.72065" lon="5.01634">
        <ele>487.83</ele>
        <time>2022-06-23T08:07:49Z</time>
      </trkpt>
      <trkpt lat="47.72062" lon="5.01637">
        <ele>487.86</ele>
        <time>2022-06-23T08:07:54Z</time>
      </trkpt>
      <trkpt lat="47.7206" lon="5.0164">
        <ele>487.77</ele>
        <time>2022-06-23T08:07:56Z</time>
      </trkpt>
      <trkpt lat="47.72058" lon="5.01643">
        <ele>487.64</ele>
        <time>2022-06-23T08:07:57Z</time>
      </trkpt>
      <trkpt lat="47.72056" lon="5.01645">
        <ele>487.55</ele>
        <time>2022-06-23T08:07:59Z</time>
      </trkpt>
      <trkpt lat="47.72054" lon="5.01648">
        <ele>487.34</ele>
        <time>2022-06-23T08:08:01Z</time>
      </trkpt>
      <trkpt lat="47.72052" lon="5.01652">
        <ele>487.06</ele>
        <time>2022-06-23T08:08:06Z</time>
      </trkpt>
      <trkpt lat="47.72049" lon="5.01654">
        <ele>486.91</ele>
        <time>2022-06-23T08:08:10Z</time>
      </trkpt>
      <trkpt lat="47.72047" lon="5.01657">
        <ele>486.7</ele>
        <time>2022-06-23T08:08:15Z</time>
      </trkpt>
      <trkpt lat="47.72046" lon="5.01661">
        <ele>486.41</ele>
        <time>2022-06-23T08:08:22Z</time>
      </trkpt>
      <trkpt lat="47.72045" lon="5.01665">
        <ele>486.12</ele>
        <time>2022-06-23T08:08:29Z</time>
      </trkpt>
      <trkpt lat="47.72043" lon="5.01669">
        <ele>486.06</ele>
        <time>2022-06-23T08:08:31Z</time>
      </trkpt>
      <trkpt lat="47.72042" lon="5.01672">
        <ele>486.11</ele>
        <time>2022-06-23T08:08:33Z</time>
      </trkpt>
      <trkpt lat="47.7204" lon="5.01676">
        <ele>486.07</ele>
        <time>2022-06-23T08:08:35Z</time>
      </trkpt>
      <trkpt lat="47.72038" lon="5.01679">
        <ele>485.93</ele>
        <time>2022-06-23T08:08:37Z</time>
      </trkpt>
      <trkpt lat="47.72035" lon="5.01681">
        <ele>485.64</ele>
        <time>2022-06-23T08:08:39Z</time>
      </trkpt>
      <trkpt lat="47.72032" lon="5.01683">
        <ele>485.27</ele>
        <time>2022-06-23T08:08:41Z</time>
      </trkpt>
      <trkpt lat="47.7203" lon="5.01684">
        <ele>485</ele>
        <time>2022-06-23T08:08:43Z</time>
      </trkpt>
      <trkpt lat="47.72027" lon="5.01686">
        <ele>484.55</ele>
        <time>2022-06-23T08:08:45Z</time>
      </trkpt>
      <trkpt lat="47.72024" lon="5.01687">
        <ele>484.26</ele>
        <time>2022-06-23T08:08:47Z</time>
      </trkpt>
      <trkpt lat="47.7202" lon="5.01689">
        <ele>483.83</ele>
        <time>2022-06-23T08:08:50Z</time>
      </trkpt>
      <trkpt lat="47.72017" lon="5.0169">
        <ele>483.54</ele>
        <time>2022-06-23T08:08:52Z</time>
      </trkpt>
      <trkpt lat="47.72014" lon="5.01692">
        <ele>483.18</ele>
        <time>2022-06-23T08:08:54Z</time>
      </trkpt>
      <trkpt lat="47.72011" lon="5.01693">
        <ele>482.9</ele>
        <time>2022-06-23T08:08:57Z</time>
      </trkpt>
      <trkpt lat="47.72007" lon="5.01694">
        <ele>482.54</ele>
        <time>2022-06-23T08:08:58Z</time>
      </trkpt>
      <trkpt lat="47.72005" lon="5.01696">
        <ele>482.48</ele>
        <time>2022-06-23T08:09:00Z</time>
      </trkpt>
      <trkpt lat="47.72002" lon="5.01696">
        <ele>482.26</ele>
        <time>2022-06-23T08:09:02Z</time>
      </trkpt>
      <trkpt lat="47.71999" lon="5.01697">
        <ele>482.21</ele>
        <time>2022-06-23T08:09:05Z</time>
      </trkpt>
      <trkpt lat="47.71996" lon="5.01699">
        <ele>482.42</ele>
        <time>2022-06-23T08:09:08Z</time>
      </trkpt>
      <trkpt lat="47.71993" lon="5.017">
        <ele>482.55</ele>
        <time>2022-06-23T08:09:10Z</time>
      </trkpt>
      <trkpt lat="47.7199" lon="5.01702">
        <ele>482.71</ele>
        <time>2022-06-23T08:09:14Z</time>
      </trkpt>
      <trkpt lat="47.71986" lon="5.01703">
        <ele>482.81</ele>
        <time>2022-06-23T08:09:16Z</time>
      </trkpt>
      <trkpt lat="47.71983" lon="5.01705">
        <ele>482.91</ele>
        <time>2022-06-23T08:09:17Z</time>
      </trkpt>
      <trkpt lat="47.7198" lon="5.01707">
        <ele>482.97</ele>
        <time>2022-06-23T08:09:18Z</time>
      </trkpt>
      <trkpt lat="47.71978" lon="5.01709">
        <ele>483.01</ele>
        <time>2022-06-23T08:09:20Z</time>
      </trkpt>
      <trkpt lat="47.71975" lon="5.01711">
        <ele>483.02</ele>
        <time>2022-06-23T08:09:23Z</time>
      </trkpt>
      <trkpt lat="47.71972" lon="5.01713">
        <ele>482.99</ele>
        <time>2022-06-23T08:09:23Z</time>
      </trkpt>
      <trkpt lat="47.7197" lon="5.01716">
        <ele>482.94</ele>
        <time>2022-06-23T08:09:26Z</time>
      </trkpt>
      <trkpt lat="47.71967" lon="5.01719">
        <ele>482.83</ele>
        <time>2022-06-23T08:09:29Z</time>
      </trkpt>
      <trkpt lat="47.71963" lon="5.01722">
        <ele>482.67</ele>
        <time>2022-06-23T08:09:32Z</time>
      </trkpt>
      <trkpt lat="47.71961" lon="5.01724">
        <ele>482.66</ele>
        <time>2022-06-23T08:09:33Z</time>
      </trkpt>
      <trkpt lat="47.71958" lon="5.01726">
        <ele>482.62</ele>
        <time>2022-06-23T08:09:36Z</time>
      </trkpt>
      <trkpt lat="47.71956" lon="5.01727">
        <ele>482.59</ele>
        <time>2022-06-23T08:09:39Z</time>
      </trkpt>
      <trkpt lat="47.71952" lon="5.0173">
        <ele>482.55</ele>
        <time>2022-06-23T08:09:43Z</time>
      </trkpt>
      <trkpt lat="47.7195" lon="5.01732">
        <ele>482.55</ele>
        <time>2022-06-23T08:09:44Z</time>
      </trkpt>
      <trkpt lat="47.71947" lon="5.01734">
        <ele>482.52</ele>
        <time>2022-06-23T08:09:46Z</time>
      </trkpt>
      <trkpt lat="47.71945" lon="5.01737">
        <ele>482.55</ele>
        <time>2022-06-23T08:09:48Z</time>
      </trkpt>
      <trkpt lat="47.71943" lon="5.01739">
        <ele>482.62</ele>
        <time>2022-06-23T08:09:50Z</time>
      </trkpt>
      <trkpt lat="47.7194" lon="5.01742">
        <ele>482.76</ele>
        <time>2022-06-23T08:09:53Z</time>
      </trkpt>
      <trkpt lat="47.71937" lon="5.01744">
        <ele>482.84</ele>
        <time>2022-06-23T08:09:55Z</time>
      </trkpt>
      <trkpt lat="47.71935" lon="5.01745">
        <ele>482.88</ele>
        <time>2022-06-23T08:09:58Z</time>
      </trkpt>
      <trkpt lat="47.71932" lon="5.01748">
        <ele>482.96</ele>
        <time>2022-06-23T08:09:59Z</time>
      </trkpt>
      <trkpt lat="47.71929" lon="5.0175">
        <ele>483</ele>
        <time>2022-06-23T08:10:01Z</time>
      </trkpt>
      <trkpt lat="47.71927" lon="5.01753">
        <ele>483.23</ele>
        <time>2022-06-23T08:10:03Z</time>
      </trkpt>
      <trkpt lat="47.71924" lon="5.01756">
        <ele>483.58</ele>
        <time>2022-06-23T08:10:04Z</time>
      </trkpt>
      <trkpt lat="47.71921" lon="5.01758">
        <ele>483.93</ele>
        <time>2022-06-23T08:10:06Z</time>
      </trkpt>
      <trkpt lat="47.71918" lon="5.0176">
        <ele>484.35</ele>
        <time>2022-06-23T08:10:10Z</time>
      </trkpt>
      <trkpt lat="47.71915" lon="5.01762">
        <ele>484.56</ele>
        <time>2022-06-23T08:10:12Z</time>
      </trkpt>
      <trkpt lat="47.71912" lon="5.01765">
        <ele>484.63</ele>
        <time>2022-06-23T08:10:13Z</time>
      </trkpt>
      <trkpt lat="47.7191" lon="5.01767">
        <ele>484.62</ele>
        <time>2022-06-23T08:10:14Z</time>
      </trkpt>
      <trkpt lat="47.71907" lon="5.01769">
        <ele>484.44</ele>
        <time>2022-06-23T08:10:17Z</time>
      </trkpt>
      <trkpt lat="47.71904" lon="5.01771">
        <ele>484.19</ele>
        <time>2022-06-23T08:10:18Z</time>
      </trkpt>
      <trkpt lat="47.71901" lon="5.01772">
        <ele>483.82</ele>
        <time>2022-06-23T08:10:21Z</time>
      </trkpt>
      <trkpt lat="47.71899" lon="5.01774">
        <ele>483.62</ele>
        <time>2022-06-23T08:10:23Z</time>
      </trkpt>
      <trkpt lat="47.71895" lon="5.01776">
        <ele>483.04</ele>
        <time>2022-06-23T08:10:27Z</time>
      </trkpt>
      <trkpt lat="47.71891" lon="5.01778">
        <ele>482.38</ele>
        <time>2022-06-23T08:10:29Z</time>
      </trkpt>
      <trkpt lat="47.71889" lon="5.01779">
        <ele>482.02</ele>
        <time>2022-06-23T08:10:30Z</time>
      </trkpt>
      <trkpt lat="47.71886" lon="5.01781">
        <ele>482.21</ele>
        <time>2022-06-23T08:10:33Z</time>
      </trkpt>
      <trkpt lat="47.71883" lon="5.01782">
        <ele>482.42</ele>
        <time>2022-06-23T08:10:35Z</time>
      </trkpt>
      <trkpt lat="47.7188" lon="5.01785">
        <ele>482.64</ele>
        <time>2022-06-23T08:10:37Z</time>
      </trkpt>
      <trkpt lat="47.71877" lon="5.01787">
        <ele>482.86</ele>
        <time>2022-06-23T08:10:39Z</time>
      </trkpt>
      <trkpt lat="47.71875" lon="5.01789">
        <ele>483</ele>
        <time>2022-06-23T08:10:41Z</time>
      </trkpt>
      <trkpt lat="47.71872" lon="5.01791">
        <ele>483.22</ele>
        <time>2022-06-23T08:10:42Z</time>
      </trkpt>
      <trkpt lat="47.71869" lon="5.01793">
        <ele>483.43</ele>
        <time>2022-06-23T08:10:44Z</time>
      </trkpt>
      <trkpt lat="47.71867" lon="5.01793">
        <ele>483.58</ele>
        <time>2022-06-23T08:10:47Z</time>
      </trkpt>
      <trkpt lat="47.71864" lon="5.01794">
        <ele>483.79</ele>
        <time>2022-06-23T08:10:49Z</time>
      </trkpt>
      <trkpt lat="47.71861" lon="5.01796">
        <ele>484</ele>
        <time>2022-06-23T08:10:50Z</time>
      </trkpt>
      <trkpt lat="47.71859" lon="5.01799">
        <ele>483.98</ele>
        <time>2022-06-23T08:10:52Z</time>
      </trkpt>
      <trkpt lat="47.71856" lon="5.01802">
        <ele>483.89</ele>
        <time>2022-06-23T08:10:54Z</time>
      </trkpt>
      <trkpt lat="47.71853" lon="5.01804">
        <ele>483.76</ele>
        <time>2022-06-23T08:10:56Z</time>
      </trkpt>
      <trkpt lat="47.71851" lon="5.01806">
        <ele>483.67</ele>
        <time>2022-06-23T08:10:58Z</time>
      </trkpt>
      <trkpt lat="47.71848" lon="5.01808">
        <ele>483.7</ele>
        <time>2022-06-23T08:11:02Z</time>
      </trkpt>
      <trkpt lat="47.71845" lon="5.0181">
        <ele>483.74</ele>
        <time>2022-06-23T08:11:04Z</time>
      </trkpt>
      <trkpt lat="47.71842" lon="5.01813">
        <ele>483.85</ele>
        <time>2022-06-23T08:11:10Z</time>
      </trkpt>
      <trkpt lat="47.71839" lon="5.01814">
        <ele>483.81</ele>
        <time>2022-06-23T08:11:11Z</time>
      </trkpt>
      <trkpt lat="47.71836" lon="5.01815">
        <ele>483.78</ele>
        <time>2022-06-23T08:11:13Z</time>
      </trkpt>
      <trkpt lat="47.71833" lon="5.01815">
        <ele>483.66</ele>
        <time>2022-06-23T08:11:16Z</time>
      </trkpt>
      <trkpt lat="47.71829" lon="5.01816">
        <ele>483.42</ele>
        <time>2022-06-23T08:11:17Z</time>
      </trkpt>
      <trkpt lat="47.71826" lon="5.01817">
        <ele>483.23</ele>
        <time>2022-06-23T08:11:18Z</time>
      </trkpt>
      <trkpt lat="47.71823" lon="5.01817">
        <ele>482.99</ele>
        <time>2022-06-23T08:11:23Z</time>
      </trkpt>
      <trkpt lat="47.71821" lon="5.01817">
        <ele>482.83</ele>
        <time>2022-06-23T08:11:28Z</time>
      </trkpt>
      <trkpt lat="47.71817" lon="5.01819">
        <ele>482.53</ele>
        <time>2022-06-23T08:11:35Z</time>
      </trkpt>
      <trkpt lat="47.71814" lon="5.01822">
        <ele>482.25</ele>
        <time>2022-06-23T08:11:40Z</time>
      </trkpt>
      <trkpt lat="47.71811" lon="5.01826">
        <ele>481.89</ele>
        <time>2022-06-23T08:11:43Z</time>
      </trkpt>
      <trkpt lat="47.7181" lon="5.01831">
        <ele>481.68</ele>
        <time>2022-06-23T08:11:46Z</time>
      </trkpt>
      <trkpt lat="47.71809" lon="5.01835">
        <ele>481.65</ele>
        <time>2022-06-23T08:11:55Z</time>
      </trkpt>
      <trkpt lat="47.71808" lon="5.01839">
        <ele>481.91</ele>
        <time>2022-06-23T08:12:06Z</time>
      </trkpt>
      <trkpt lat="47.71807" lon="5.01842">
        <ele>482.1</ele>
        <time>2022-06-23T08:12:23Z</time>
      </trkpt>
      <trkpt lat="47.71804" lon="5.0184">
        <ele>481.87</ele>
        <time>2022-06-23T08:16:28Z</time>
      </trkpt>
      <trkpt lat="47.71801" lon="5.01839">
        <ele>482.07</ele>
        <time>2022-06-23T08:16:36Z</time>
      </trkpt>
      <trkpt lat="47.71799" lon="5.01839">
        <ele>482.27</ele>
        <time>2022-06-23T08:17:11Z</time>
      </trkpt>
      <trkpt lat="47.71796" lon="5.01842">
        <ele>482.86</ele>
        <time>2022-06-23T08:17:15Z</time>
      </trkpt>
      <trkpt lat="47.71793" lon="5.01843">
        <ele>483.24</ele>
        <time>2022-06-23T08:17:19Z</time>
      </trkpt>
      <trkpt lat="47.7179" lon="5.01843">
        <ele>483.53</ele>
        <time>2022-06-23T08:17:21Z</time>
      </trkpt>
      <trkpt lat="47.71788" lon="5.01842">
        <ele>483.63</ele>
        <time>2022-06-23T08:17:24Z</time>
      </trkpt>
      <trkpt lat="47.71785" lon="5.01843">
        <ele>484.01</ele>
        <time>2022-06-23T08:17:28Z</time>
      </trkpt>
      <trkpt lat="47.71782" lon="5.01844">
        <ele>484.37</ele>
        <time>2022-06-23T08:17:32Z</time>
      </trkpt>
      <trkpt lat="47.71779" lon="5.01846">
        <ele>484.8</ele>
        <time>2022-06-23T08:17:35Z</time>
      </trkpt>
      <trkpt lat="47.71776" lon="5.01848">
        <ele>485.09</ele>
        <time>2022-06-23T08:17:38Z</time>
      </trkpt>
      <trkpt lat="47.71774" lon="5.0185">
        <ele>485.28</ele>
        <time>2022-06-23T08:17:42Z</time>
      </trkpt>
      <trkpt lat="47.71771" lon="5.01853">
        <ele>485.59</ele>
        <time>2022-06-23T08:17:44Z</time>
      </trkpt>
      <trkpt lat="47.71769" lon="5.01855">
        <ele>485.81</ele>
        <time>2022-06-23T08:17:45Z</time>
      </trkpt>
      <trkpt lat="47.71766" lon="5.01858">
        <ele>486.15</ele>
        <time>2022-06-23T08:17:48Z</time>
      </trkpt>
      <trkpt lat="47.71763" lon="5.0186">
        <ele>486.43</ele>
        <time>2022-06-23T08:17:51Z</time>
      </trkpt>
      <trkpt lat="47.7176" lon="5.01861">
        <ele>486.63</ele>
        <time>2022-06-23T08:17:54Z</time>
      </trkpt>
      <trkpt lat="47.71757" lon="5.01863">
        <ele>486.97</ele>
        <time>2022-06-23T08:17:55Z</time>
      </trkpt>
      <trkpt lat="47.71754" lon="5.01864">
        <ele>487.18</ele>
        <time>2022-06-23T08:17:57Z</time>
      </trkpt>
      <trkpt lat="47.71751" lon="5.01866">
        <ele>487.5</ele>
        <time>2022-06-23T08:18:01Z</time>
      </trkpt>
      <trkpt lat="47.71749" lon="5.01867">
        <ele>487.67</ele>
        <time>2022-06-23T08:18:03Z</time>
      </trkpt>
      <trkpt lat="47.71746" lon="5.01869">
        <ele>488</ele>
        <time>2022-06-23T08:18:08Z</time>
      </trkpt>
      <trkpt lat="47.71743" lon="5.01871">
        <ele>488.32</ele>
        <time>2022-06-23T08:18:11Z</time>
      </trkpt>
      <trkpt lat="47.71741" lon="5.01873">
        <ele>488.61</ele>
        <time>2022-06-23T08:18:15Z</time>
      </trkpt>
      <trkpt lat="47.71738" lon="5.01875">
        <ele>488.93</ele>
        <time>2022-06-23T08:18:16Z</time>
      </trkpt>
      <trkpt lat="47.71734" lon="5.01878">
        <ele>489.4</ele>
        <time>2022-06-23T08:18:20Z</time>
      </trkpt>
      <trkpt lat="47.71731" lon="5.01881">
        <ele>489.83</ele>
        <time>2022-06-23T08:18:21Z</time>
      </trkpt>
      <trkpt lat="47.71728" lon="5.01883">
        <ele>490.16</ele>
        <time>2022-06-23T08:18:24Z</time>
      </trkpt>
      <trkpt lat="47.71725" lon="5.01885">
        <ele>490.48</ele>
        <time>2022-06-23T08:18:25Z</time>
      </trkpt>
      <trkpt lat="47.71722" lon="5.01887">
        <ele>490.78</ele>
        <time>2022-06-23T08:18:28Z</time>
      </trkpt>
      <trkpt lat="47.7172" lon="5.01889">
        <ele>490.84</ele>
        <time>2022-06-23T08:18:32Z</time>
      </trkpt>
      <trkpt lat="47.71717" lon="5.01891">
        <ele>490.56</ele>
        <time>2022-06-23T08:18:35Z</time>
      </trkpt>
      <trkpt lat="47.71715" lon="5.01893">
        <ele>490.37</ele>
        <time>2022-06-23T08:18:38Z</time>
      </trkpt>
      <trkpt lat="47.71712" lon="5.01896">
        <ele>490.1</ele>
        <time>2022-06-23T08:18:41Z</time>
      </trkpt>
      <trkpt lat="47.71709" lon="5.01899">
        <ele>489.86</ele>
        <time>2022-06-23T08:18:44Z</time>
      </trkpt>
      <trkpt lat="47.71707" lon="5.01901">
        <ele>489.71</ele>
        <time>2022-06-23T08:18:47Z</time>
      </trkpt>
      <trkpt lat="47.71704" lon="5.01903">
        <ele>489.51</ele>
        <time>2022-06-23T08:18:50Z</time>
      </trkpt>
      <trkpt lat="47.71701" lon="5.01905">
        <ele>489.34</ele>
        <time>2022-06-23T08:18:51Z</time>
      </trkpt>
      <trkpt lat="47.71698" lon="5.01907">
        <ele>489.17</ele>
        <time>2022-06-23T08:18:52Z</time>
      </trkpt>
      <trkpt lat="47.71695" lon="5.0191">
        <ele>489.02</ele>
        <time>2022-06-23T08:18:55Z</time>
      </trkpt>
      <trkpt lat="47.71692" lon="5.01912">
        <ele>488.91</ele>
        <time>2022-06-23T08:18:57Z</time>
      </trkpt>
      <trkpt lat="47.7169" lon="5.01915">
        <ele>488.84</ele>
        <time>2022-06-23T08:18:58Z</time>
      </trkpt>
      <trkpt lat="47.71688" lon="5.01919">
        <ele>488.77</ele>
        <time>2022-06-23T08:19:02Z</time>
      </trkpt>
      <trkpt lat="47.71685" lon="5.01921">
        <ele>488.66</ele>
        <time>2022-06-23T08:19:05Z</time>
      </trkpt>
      <trkpt lat="47.71683" lon="5.01924">
        <ele>488.59</ele>
        <time>2022-06-23T08:19:10Z</time>
      </trkpt>
      <trkpt lat="47.7168" lon="5.01926">
        <ele>488.48</ele>
        <time>2022-06-23T08:19:11Z</time>
      </trkpt>
      <trkpt lat="47.71677" lon="5.01927">
        <ele>488.37</ele>
        <time>2022-06-23T08:19:13Z</time>
      </trkpt>
      <trkpt lat="47.71675" lon="5.01929">
        <ele>488.3</ele>
        <time>2022-06-23T08:19:17Z</time>
      </trkpt>
      <trkpt lat="47.71671" lon="5.0193">
        <ele>488.16</ele>
        <time>2022-06-23T08:19:19Z</time>
      </trkpt>
      <trkpt lat="47.71668" lon="5.01932">
        <ele>488.05</ele>
        <time>2022-06-23T08:19:22Z</time>
      </trkpt>
      <trkpt lat="47.71666" lon="5.01933">
        <ele>488.02</ele>
        <time>2022-06-23T08:19:23Z</time>
      </trkpt>
      <trkpt lat="47.71663" lon="5.01935">
        <ele>488.13</ele>
        <time>2022-06-23T08:19:25Z</time>
      </trkpt>
      <trkpt lat="47.7166" lon="5.01937">
        <ele>488.24</ele>
        <time>2022-06-23T08:19:27Z</time>
      </trkpt>
      <trkpt lat="47.71657" lon="5.01939">
        <ele>488.35</ele>
        <time>2022-06-23T08:19:32Z</time>
      </trkpt>
      <trkpt lat="47.71655" lon="5.01941">
        <ele>488.42</ele>
        <time>2022-06-23T08:19:35Z</time>
      </trkpt>
      <trkpt lat="47.71653" lon="5.01944">
        <ele>488.49</ele>
        <time>2022-06-23T08:19:37Z</time>
      </trkpt>
      <trkpt lat="47.7165" lon="5.01947">
        <ele>488.78</ele>
        <time>2022-06-23T08:19:42Z</time>
      </trkpt>
      <trkpt lat="47.71648" lon="5.01949">
        <ele>489</ele>
        <time>2022-06-23T08:19:44Z</time>
      </trkpt>
      <trkpt lat="47.71645" lon="5.01951">
        <ele>489.25</ele>
        <time>2022-06-23T08:19:47Z</time>
      </trkpt>
      <trkpt lat="47.71642" lon="5.01952">
        <ele>489.43</ele>
        <time>2022-06-23T08:19:48Z</time>
      </trkpt>
      <trkpt lat="47.71639" lon="5.01954">
        <ele>489.68</ele>
        <time>2022-06-23T08:19:52Z</time>
      </trkpt>
      <trkpt lat="47.71636" lon="5.01956">
        <ele>490</ele>
        <time>2022-06-23T08:19:56Z</time>
      </trkpt>
      <trkpt lat="47.71633" lon="5.01958">
        <ele>490.3</ele>
        <time>2022-06-23T08:19:57Z</time>
      </trkpt>
      <trkpt lat="47.71631" lon="5.0196">
        <ele>490.53</ele>
        <time>2022-06-23T08:19:59Z</time>
      </trkpt>
      <trkpt lat="47.71628" lon="5.01962">
        <ele>490.8</ele>
        <time>2022-06-23T08:20:02Z</time>
      </trkpt>
      <trkpt lat="47.71625" lon="5.01965">
        <ele>491.11</ele>
        <time>2022-06-23T08:20:03Z</time>
      </trkpt>
      <trkpt lat="47.71622" lon="5.01967">
        <ele>491.35</ele>
        <time>2022-06-23T08:20:06Z</time>
      </trkpt>
      <trkpt lat="47.71619" lon="5.01969">
        <ele>491.57</ele>
        <time>2022-06-23T08:20:07Z</time>
      </trkpt>
      <trkpt lat="47.71617" lon="5.0197">
        <ele>491.69</ele>
        <time>2022-06-23T08:20:11Z</time>
      </trkpt>
      <trkpt lat="47.71614" lon="5.01972">
        <ele>491.89</ele>
        <time>2022-06-23T08:20:14Z</time>
      </trkpt>
      <trkpt lat="47.71611" lon="5.01975">
        <ele>492.4</ele>
        <time>2022-06-23T08:20:15Z</time>
      </trkpt>
      <trkpt lat="47.71609" lon="5.01978">
        <ele>492.81</ele>
        <time>2022-06-23T08:20:18Z</time>
      </trkpt>
      <trkpt lat="47.71606" lon="5.0198">
        <ele>492.99</ele>
        <time>2022-06-23T08:20:19Z</time>
      </trkpt>
      <trkpt lat="47.71604" lon="5.01981">
        <ele>493.03</ele>
        <time>2022-06-23T08:20:22Z</time>
      </trkpt>
      <trkpt lat="47.71601" lon="5.01983">
        <ele>493.07</ele>
        <time>2022-06-23T08:20:24Z</time>
      </trkpt>
      <trkpt lat="47.71597" lon="5.01984">
        <ele>492.91</ele>
        <time>2022-06-23T08:20:25Z</time>
      </trkpt>
      <trkpt lat="47.71594" lon="5.01986">
        <ele>492.77</ele>
        <time>2022-06-23T08:20:28Z</time>
      </trkpt>
      <trkpt lat="47.71591" lon="5.01987">
        <ele>492.54</ele>
        <time>2022-06-23T08:20:29Z</time>
      </trkpt>
      <trkpt lat="47.71588" lon="5.01989">
        <ele>492.23</ele>
        <time>2022-06-23T08:20:31Z</time>
      </trkpt>
      <trkpt lat="47.71585" lon="5.0199">
        <ele>491.89</ele>
        <time>2022-06-23T08:20:35Z</time>
      </trkpt>
      <trkpt lat="47.71582" lon="5.01992">
        <ele>491.23</ele>
        <time>2022-06-23T08:20:37Z</time>
      </trkpt>
      <trkpt lat="47.71579" lon="5.01994">
        <ele>490.31</ele>
        <time>2022-06-23T08:20:41Z</time>
      </trkpt>
      <trkpt lat="47.71576" lon="5.01997">
        <ele>489.34</ele>
        <time>2022-06-23T08:20:45Z</time>
      </trkpt>
      <trkpt lat="47.71573" lon="5.01999">
        <ele>488.45</ele>
        <time>2022-06-23T08:20:46Z</time>
      </trkpt>
      <trkpt lat="47.71571" lon="5.02002">
        <ele>487.93</ele>
        <time>2022-06-23T08:20:49Z</time>
      </trkpt>
      <trkpt lat="47.71568" lon="5.02004">
        <ele>487.2</ele>
        <time>2022-06-23T08:20:52Z</time>
      </trkpt>
      <trkpt lat="47.71565" lon="5.02007">
        <ele>486.47</ele>
        <time>2022-06-23T08:20:55Z</time>
      </trkpt>
      <trkpt lat="47.71563" lon="5.02009">
        <ele>485.96</ele>
        <time>2022-06-23T08:20:57Z</time>
      </trkpt>
      <trkpt lat="47.7156" lon="5.02011">
        <ele>485.18</ele>
        <time>2022-06-23T08:21:01Z</time>
      </trkpt>
      <trkpt lat="47.71557" lon="5.02013">
        <ele>484.39</ele>
        <time>2022-06-23T08:21:04Z</time>
      </trkpt>
      <trkpt lat="47.71554" lon="5.02015">
        <ele>483.89</ele>
        <time>2022-06-23T08:21:08Z</time>
      </trkpt>
      <trkpt lat="47.71552" lon="5.02017">
        <ele>483.77</ele>
        <time>2022-06-23T08:21:10Z</time>
      </trkpt>
      <trkpt lat="47.71549" lon="5.0202">
        <ele>483.63</ele>
        <time>2022-06-23T08:21:11Z</time>
      </trkpt>
      <trkpt lat="47.71547" lon="5.02022">
        <ele>483.56</ele>
        <time>2022-06-23T08:21:12Z</time>
      </trkpt>
      <trkpt lat="47.71544" lon="5.02024">
        <ele>483.47</ele>
        <time>2022-06-23T08:21:15Z</time>
      </trkpt>
      <trkpt lat="47.71542" lon="5.02027">
        <ele>483.48</ele>
        <time>2022-06-23T08:21:18Z</time>
      </trkpt>
      <trkpt lat="47.71539" lon="5.02029">
        <ele>483.47</ele>
        <time>2022-06-23T08:21:20Z</time>
      </trkpt>
      <trkpt lat="47.71536" lon="5.02032">
        <ele>483.49</ele>
        <time>2022-06-23T08:21:23Z</time>
      </trkpt>
      <trkpt lat="47.71534" lon="5.02033">
        <ele>483.45</ele>
        <time>2022-06-23T08:21:26Z</time>
      </trkpt>
      <trkpt lat="47.71531" lon="5.02034">
        <ele>483.37</ele>
        <time>2022-06-23T08:21:27Z</time>
      </trkpt>
      <trkpt lat="47.71528" lon="5.02035">
        <ele>483.27</ele>
        <time>2022-06-23T08:21:31Z</time>
      </trkpt>
      <trkpt lat="47.71524" lon="5.02037">
        <ele>483.97</ele>
        <time>2022-06-23T08:21:35Z</time>
      </trkpt>
      <trkpt lat="47.71521" lon="5.02039">
        <ele>484.53</ele>
        <time>2022-06-23T08:21:36Z</time>
      </trkpt>
      <trkpt lat="47.71518" lon="5.02042">
        <ele>485.09</ele>
        <time>2022-06-23T08:21:38Z</time>
      </trkpt>
      <trkpt lat="47.71516" lon="5.02044">
        <ele>485.46</ele>
        <time>2022-06-23T08:21:40Z</time>
      </trkpt>
      <trkpt lat="47.71513" lon="5.02045">
        <ele>485.95</ele>
        <time>2022-06-23T08:21:43Z</time>
      </trkpt>
      <trkpt lat="47.7151" lon="5.02046">
        <ele>486.44</ele>
        <time>2022-06-23T08:21:46Z</time>
      </trkpt>
      <trkpt lat="47.71507" lon="5.02048">
        <ele>486.92</ele>
        <time>2022-06-23T08:21:50Z</time>
      </trkpt>
      <trkpt lat="47.71504" lon="5.0205">
        <ele>487.4</ele>
        <time>2022-06-23T08:21:51Z</time>
      </trkpt>
      <trkpt lat="47.71502" lon="5.02051">
        <ele>487.7</ele>
        <time>2022-06-23T08:21:55Z</time>
      </trkpt>
      <trkpt lat="47.71499" lon="5.02052">
        <ele>488.12</ele>
        <time>2022-06-23T08:21:57Z</time>
      </trkpt>
      <trkpt lat="47.71496" lon="5.02051">
        <ele>488.48</ele>
        <time>2022-06-23T08:22:01Z</time>
      </trkpt>
      <trkpt lat="47.71493" lon="5.02054">
        <ele>488.78</ele>
        <time>2022-06-23T08:22:10Z</time>
      </trkpt>
      <trkpt lat="47.71492" lon="5.02058">
        <ele>488.84</ele>
        <time>2022-06-23T08:22:15Z</time>
      </trkpt>
      <trkpt lat="47.7149" lon="5.02061">
        <ele>489.01</ele>
        <time>2022-06-23T08:22:19Z</time>
      </trkpt>
      <trkpt lat="47.71488" lon="5.02065">
        <ele>489.15</ele>
        <time>2022-06-23T08:22:22Z</time>
      </trkpt>
      <trkpt lat="47.71487" lon="5.02069">
        <ele>489.18</ele>
        <time>2022-06-23T08:22:24Z</time>
      </trkpt>
      <trkpt lat="47.71485" lon="5.02072">
        <ele>489.3</ele>
        <time>2022-06-23T08:22:36Z</time>
      </trkpt>
      <trkpt lat="47.71482" lon="5.02073">
        <ele>489.54</ele>
        <time>2022-06-23T08:22:40Z</time>
      </trkpt>
      <trkpt lat="47.7148" lon="5.02077">
        <ele>489.6</ele>
        <time>2022-06-23T08:22:45Z</time>
      </trkpt>
      <trkpt lat="47.71477" lon="5.02078">
        <ele>489.81</ele>
        <time>2022-06-23T08:22:49Z</time>
      </trkpt>
      <trkpt lat="47.71475" lon="5.02079">
        <ele>489.94</ele>
        <time>2022-06-23T08:22:53Z</time>
      </trkpt>
      <trkpt lat="47.71472" lon="5.0208">
        <ele>490.15</ele>
        <time>2022-06-23T08:22:59Z</time>
      </trkpt>
      <trkpt lat="47.7147" lon="5.02082">
        <ele>490.37</ele>
        <time>2022-06-23T08:23:06Z</time>
      </trkpt>
      <trkpt lat="47.71467" lon="5.02084">
        <ele>490.73</ele>
        <time>2022-06-23T08:23:14Z</time>
      </trkpt>
      <trkpt lat="47.71465" lon="5.02086">
        <ele>490.94</ele>
        <time>2022-06-23T08:23:18Z</time>
      </trkpt>
      <trkpt lat="47.71462" lon="5.02087">
        <ele>491.28</ele>
        <time>2022-06-23T08:23:22Z</time>
      </trkpt>
      <trkpt lat="47.7146" lon="5.0209">
        <ele>491.34</ele>
        <time>2022-06-23T08:23:28Z</time>
      </trkpt>
      <trkpt lat="47.71457" lon="5.02091">
        <ele>491.59</ele>
        <time>2022-06-23T08:23:30Z</time>
      </trkpt>
      <trkpt lat="47.71454" lon="5.02093">
        <ele>491.71</ele>
        <time>2022-06-23T08:23:35Z</time>
      </trkpt>
      <trkpt lat="47.71451" lon="5.02095">
        <ele>491.77</ele>
        <time>2022-06-23T08:23:37Z</time>
      </trkpt>
      <trkpt lat="47.71448" lon="5.02097">
        <ele>491.77</ele>
        <time>2022-06-23T08:23:41Z</time>
      </trkpt>
      <trkpt lat="47.71446" lon="5.02098">
        <ele>491.78</ele>
        <time>2022-06-23T08:23:44Z</time>
      </trkpt>
      <trkpt lat="47.71443" lon="5.021">
        <ele>491.97</ele>
        <time>2022-06-23T08:23:47Z</time>
      </trkpt>
      <trkpt lat="47.7144" lon="5.02102">
        <ele>492.54</ele>
        <time>2022-06-23T08:23:51Z</time>
      </trkpt>
      <trkpt lat="47.71437" lon="5.02104">
        <ele>493.22</ele>
        <time>2022-06-23T08:23:53Z</time>
      </trkpt>
      <trkpt lat="47.71434" lon="5.02107">
        <ele>493.96</ele>
        <time>2022-06-23T08:23:55Z</time>
      </trkpt>
      <trkpt lat="47.71431" lon="5.02109">
        <ele>494.89</ele>
        <time>2022-06-23T08:23:59Z</time>
      </trkpt>
      <trkpt lat="47.71428" lon="5.02111">
        <ele>495.92</ele>
        <time>2022-06-23T08:24:01Z</time>
      </trkpt>
      <trkpt lat="47.71425" lon="5.02113">
        <ele>497.05</ele>
        <time>2022-06-23T08:24:06Z</time>
      </trkpt>
      <trkpt lat="47.71422" lon="5.02114">
        <ele>498.16</ele>
        <time>2022-06-23T08:24:07Z</time>
      </trkpt>
      <trkpt lat="47.71419" lon="5.02116">
        <ele>499.32</ele>
        <time>2022-06-23T08:24:11Z</time>
      </trkpt>
      <trkpt lat="47.71417" lon="5.02118">
        <ele>500.13</ele>
        <time>2022-06-23T08:24:13Z</time>
      </trkpt>
      <trkpt lat="47.71415" lon="5.0212">
        <ele>500.22</ele>
        <time>2022-06-23T08:24:16Z</time>
      </trkpt>
      <trkpt lat="47.71412" lon="5.02122">
        <ele>500.09</ele>
        <time>2022-06-23T08:24:19Z</time>
      </trkpt>
      <trkpt lat="47.71409" lon="5.02123">
        <ele>499.92</ele>
        <time>2022-06-23T08:24:21Z</time>
      </trkpt>
      <trkpt lat="47.71406" lon="5.02125">
        <ele>499.73</ele>
        <time>2022-06-23T08:24:22Z</time>
      </trkpt>
      <trkpt lat="47.71404" lon="5.02127">
        <ele>499.59</ele>
        <time>2022-06-23T08:24:26Z</time>
      </trkpt>
      <trkpt lat="47.71401" lon="5.0213">
        <ele>499.35</ele>
        <time>2022-06-23T08:24:31Z</time>
      </trkpt>
      <trkpt lat="47.71398" lon="5.02132">
        <ele>499.07</ele>
        <time>2022-06-23T08:24:32Z</time>
      </trkpt>
      <trkpt lat="47.71396" lon="5.02134">
        <ele>498.85</ele>
        <time>2022-06-23T08:24:34Z</time>
      </trkpt>
      <trkpt lat="47.71393" lon="5.02136">
        <ele>498.52</ele>
        <time>2022-06-23T08:24:37Z</time>
      </trkpt>
      <trkpt lat="47.7139" lon="5.02138">
        <ele>498.15</ele>
        <time>2022-06-23T08:24:38Z</time>
      </trkpt>
      <trkpt lat="47.71387" lon="5.02138">
        <ele>497.9</ele>
        <time>2022-06-23T08:24:42Z</time>
      </trkpt>
      <trkpt lat="47.71385" lon="5.02139">
        <ele>497.72</ele>
        <time>2022-06-23T08:24:45Z</time>
      </trkpt>
      <trkpt lat="47.71382" lon="5.0214">
        <ele>497.51</ele>
        <time>2022-06-23T08:24:49Z</time>
      </trkpt>
      <trkpt lat="47.71379" lon="5.02141">
        <ele>497.28</ele>
        <time>2022-06-23T08:24:51Z</time>
      </trkpt>
      <trkpt lat="47.71377" lon="5.02144">
        <ele>497.09</ele>
        <time>2022-06-23T08:24:54Z</time>
      </trkpt>
      <trkpt lat="47.71375" lon="5.02147">
        <ele>496.85</ele>
        <time>2022-06-23T08:24:59Z</time>
      </trkpt>
      <trkpt lat="47.71372" lon="5.0215">
        <ele>496.45</ele>
        <time>2022-06-23T08:25:02Z</time>
      </trkpt>
      <trkpt lat="47.7137" lon="5.02153">
        <ele>496.11</ele>
        <time>2022-06-23T08:25:04Z</time>
      </trkpt>
      <trkpt lat="47.71368" lon="5.02157">
        <ele>495.68</ele>
        <time>2022-06-23T08:25:07Z</time>
      </trkpt>
      <trkpt lat="47.71365" lon="5.02159">
        <ele>495.14</ele>
        <time>2022-06-23T08:25:10Z</time>
      </trkpt>
      <trkpt lat="47.71363" lon="5.02161">
        <ele>494.71</ele>
        <time>2022-06-23T08:25:12Z</time>
      </trkpt>
      <trkpt lat="47.7136" lon="5.02164">
        <ele>494.18</ele>
        <time>2022-06-23T08:25:16Z</time>
      </trkpt>
      <trkpt lat="47.71357" lon="5.02165">
        <ele>494.1</ele>
        <time>2022-06-23T08:25:19Z</time>
      </trkpt>
      <trkpt lat="47.71354" lon="5.02166">
        <ele>494.04</ele>
        <time>2022-06-23T08:25:20Z</time>
      </trkpt>
      <trkpt lat="47.71351" lon="5.02168">
        <ele>493.87</ele>
        <time>2022-06-23T08:25:23Z</time>
      </trkpt>
      <trkpt lat="47.71348" lon="5.0217">
        <ele>493.7</ele>
        <time>2022-06-23T08:25:27Z</time>
      </trkpt>
      <trkpt lat="47.71345" lon="5.02171">
        <ele>493.62</ele>
        <time>2022-06-23T08:25:29Z</time>
      </trkpt>
      <trkpt lat="47.71341" lon="5.02172">
        <ele>493.56</ele>
        <time>2022-06-23T08:25:32Z</time>
      </trkpt>
      <trkpt lat="47.71338" lon="5.02172">
        <ele>493.58</ele>
        <time>2022-06-23T08:25:33Z</time>
      </trkpt>
      <trkpt lat="47.71335" lon="5.02173">
        <ele>493.53</ele>
        <time>2022-06-23T08:25:36Z</time>
      </trkpt>
      <trkpt lat="47.71332" lon="5.02176">
        <ele>493.38</ele>
        <time>2022-06-23T08:25:39Z</time>
      </trkpt>
      <trkpt lat="47.7133" lon="5.02178">
        <ele>493.33</ele>
        <time>2022-06-23T08:25:43Z</time>
      </trkpt>
      <trkpt lat="47.71327" lon="5.02181">
        <ele>493.32</ele>
        <time>2022-06-23T08:25:45Z</time>
      </trkpt>
      <trkpt lat="47.71324" lon="5.02184">
        <ele>493.38</ele>
        <time>2022-06-23T08:25:49Z</time>
      </trkpt>
      <trkpt lat="47.71321" lon="5.02186">
        <ele>493.54</ele>
        <time>2022-06-23T08:25:52Z</time>
      </trkpt>
      <trkpt lat="47.71319" lon="5.02188">
        <ele>493.65</ele>
        <time>2022-06-23T08:25:52Z</time>
      </trkpt>
      <trkpt lat="47.71316" lon="5.02191">
        <ele>493.89</ele>
        <time>2022-06-23T08:25:55Z</time>
      </trkpt>
      <trkpt lat="47.71313" lon="5.02194">
        <ele>494.19</ele>
        <time>2022-06-23T08:25:58Z</time>
      </trkpt>
      <trkpt lat="47.71311" lon="5.02196">
        <ele>494.45</ele>
        <time>2022-06-23T08:25:59Z</time>
      </trkpt>
      <trkpt lat="47.71308" lon="5.02199">
        <ele>494.87</ele>
        <time>2022-06-23T08:26:03Z</time>
      </trkpt>
      <trkpt lat="47.71305" lon="5.02201">
        <ele>495.31</ele>
        <time>2022-06-23T08:26:06Z</time>
      </trkpt>
      <trkpt lat="47.71302" lon="5.02203">
        <ele>495.74</ele>
        <time>2022-06-23T08:26:09Z</time>
      </trkpt>
      <trkpt lat="47.713" lon="5.02205">
        <ele>496.03</ele>
        <time>2022-06-23T08:26:12Z</time>
      </trkpt>
      <trkpt lat="47.71297" lon="5.02208">
        <ele>496.42</ele>
        <time>2022-06-23T08:26:13Z</time>
      </trkpt>
      <trkpt lat="47.71294" lon="5.0221">
        <ele>496.76</ele>
        <time>2022-06-23T08:26:16Z</time>
      </trkpt>
      <trkpt lat="47.71291" lon="5.02211">
        <ele>497.07</ele>
        <time>2022-06-23T08:26:19Z</time>
      </trkpt>
      <trkpt lat="47.71288" lon="5.02212">
        <ele>497.36</ele>
        <time>2022-06-23T08:26:21Z</time>
      </trkpt>
      <trkpt lat="47.71284" lon="5.02213">
        <ele>497.74</ele>
        <time>2022-06-23T08:26:22Z</time>
      </trkpt>
      <trkpt lat="47.71281" lon="5.02215">
        <ele>497.97</ele>
        <time>2022-06-23T08:26:25Z</time>
      </trkpt>
      <trkpt lat="47.71279" lon="5.02217">
        <ele>498.08</ele>
        <time>2022-06-23T08:26:28Z</time>
      </trkpt>
      <trkpt lat="47.71276" lon="5.02218">
        <ele>497.97</ele>
        <time>2022-06-23T08:26:31Z</time>
      </trkpt>
      <trkpt lat="47.71273" lon="5.02218">
        <ele>497.66</ele>
        <time>2022-06-23T08:26:31Z</time>
      </trkpt>
      <trkpt lat="47.7127" lon="5.0222">
        <ele>497.26</ele>
        <time>2022-06-23T08:26:35Z</time>
      </trkpt>
      <trkpt lat="47.71267" lon="5.02222">
        <ele>496.85</ele>
        <time>2022-06-23T08:26:38Z</time>
      </trkpt>
      <trkpt lat="47.71265" lon="5.02225">
        <ele>496.53</ele>
        <time>2022-06-23T08:26:39Z</time>
      </trkpt>
      <trkpt lat="47.71262" lon="5.02228">
        <ele>496.06</ele>
        <time>2022-06-23T08:26:41Z</time>
      </trkpt>
      <trkpt lat="47.7126" lon="5.0223">
        <ele>495.72</ele>
        <time>2022-06-23T08:26:43Z</time>
      </trkpt>
      <trkpt lat="47.71258" lon="5.02233">
        <ele>495.31</ele>
        <time>2022-06-23T08:26:46Z</time>
      </trkpt>
      <trkpt lat="47.71256" lon="5.02235">
        <ele>494.93</ele>
        <time>2022-06-23T08:26:49Z</time>
      </trkpt>
      <trkpt lat="47.71254" lon="5.02238">
        <ele>494.46</ele>
        <time>2022-06-23T08:26:54Z</time>
      </trkpt>
      <trkpt lat="47.71252" lon="5.02242">
        <ele>493.89</ele>
        <time>2022-06-23T08:26:55Z</time>
      </trkpt>
      <trkpt lat="47.71249" lon="5.02245">
        <ele>493.14</ele>
        <time>2022-06-23T08:26:59Z</time>
      </trkpt>
      <trkpt lat="47.71247" lon="5.02247">
        <ele>492.56</ele>
        <time>2022-06-23T08:27:00Z</time>
      </trkpt>
      <trkpt lat="47.71244" lon="5.02248">
        <ele>491.83</ele>
        <time>2022-06-23T08:27:04Z</time>
      </trkpt>
      <trkpt lat="47.71241" lon="5.0225">
        <ele>491.06</ele>
        <time>2022-06-23T08:27:06Z</time>
      </trkpt>
      <trkpt lat="47.71238" lon="5.02252">
        <ele>490.3</ele>
        <time>2022-06-23T08:27:08Z</time>
      </trkpt>
      <trkpt lat="47.71236" lon="5.02253">
        <ele>489.81</ele>
        <time>2022-06-23T08:27:11Z</time>
      </trkpt>
      <trkpt lat="47.71233" lon="5.02255">
        <ele>489.08</ele>
        <time>2022-06-23T08:27:12Z</time>
      </trkpt>
      <trkpt lat="47.7123" lon="5.02257">
        <ele>488.36</ele>
        <time>2022-06-23T08:27:14Z</time>
      </trkpt>
      <trkpt lat="47.71228" lon="5.02259">
        <ele>487.86</ele>
        <time>2022-06-23T08:27:17Z</time>
      </trkpt>
      <trkpt lat="47.71225" lon="5.02261">
        <ele>487.16</ele>
        <time>2022-06-23T08:27:21Z</time>
      </trkpt>
      <trkpt lat="47.71222" lon="5.02262">
        <ele>486.56</ele>
        <time>2022-06-23T08:27:24Z</time>
      </trkpt>
      <trkpt lat="47.71218" lon="5.02263">
        <ele>486.45</ele>
        <time>2022-06-23T08:27:27Z</time>
      </trkpt>
      <trkpt lat="47.71216" lon="5.02264">
        <ele>486.38</ele>
        <time>2022-06-23T08:27:31Z</time>
      </trkpt>
      <trkpt lat="47.71212" lon="5.02265">
        <ele>486.29</ele>
        <time>2022-06-23T08:27:33Z</time>
      </trkpt>
      <trkpt lat="47.71209" lon="5.02266">
        <ele>486.22</ele>
        <time>2022-06-23T08:27:33Z</time>
      </trkpt>
      <trkpt lat="47.71206" lon="5.02267">
        <ele>486.16</ele>
        <time>2022-06-23T08:27:35Z</time>
      </trkpt>
      <trkpt lat="47.71203" lon="5.02269">
        <ele>486.1</ele>
        <time>2022-06-23T08:27:38Z</time>
      </trkpt>
      <trkpt lat="47.71201" lon="5.02273">
        <ele>486.04</ele>
        <time>2022-06-23T08:27:41Z</time>
      </trkpt>
      <trkpt lat="47.71199" lon="5.02276">
        <ele>486.01</ele>
        <time>2022-06-23T08:27:45Z</time>
      </trkpt>
      <trkpt lat="47.71197" lon="5.02278">
        <ele>486.02</ele>
        <time>2022-06-23T08:27:46Z</time>
      </trkpt>
      <trkpt lat="47.71194" lon="5.02281">
        <ele>486.26</ele>
        <time>2022-06-23T08:27:50Z</time>
      </trkpt>
      <trkpt lat="47.71192" lon="5.02284">
        <ele>486.6</ele>
        <time>2022-06-23T08:27:52Z</time>
      </trkpt>
      <trkpt lat="47.71189" lon="5.02286">
        <ele>486.93</ele>
        <time>2022-06-23T08:27:53Z</time>
      </trkpt>
      <trkpt lat="47.71186" lon="5.02288">
        <ele>487.23</ele>
        <time>2022-06-23T08:27:55Z</time>
      </trkpt>
      <trkpt lat="47.71183" lon="5.02289">
        <ele>487.47</ele>
        <time>2022-06-23T08:27:58Z</time>
      </trkpt>
      <trkpt lat="47.7118" lon="5.0229">
        <ele>487.69</ele>
        <time>2022-06-23T08:27:59Z</time>
      </trkpt>
      <trkpt lat="47.71177" lon="5.02292">
        <ele>487.96</ele>
        <time>2022-06-23T08:28:03Z</time>
      </trkpt>
      <trkpt lat="47.71175" lon="5.02294">
        <ele>488.16</ele>
        <time>2022-06-23T08:28:04Z</time>
      </trkpt>
      <trkpt lat="47.71172" lon="5.02297">
        <ele>488.44</ele>
        <time>2022-06-23T08:28:08Z</time>
      </trkpt>
      <trkpt lat="47.71169" lon="5.02298">
        <ele>488.62</ele>
        <time>2022-06-23T08:28:08Z</time>
      </trkpt>
      <trkpt lat="47.71167" lon="5.023">
        <ele>488.79</ele>
        <time>2022-06-23T08:28:10Z</time>
      </trkpt>
      <trkpt lat="47.71164" lon="5.02302">
        <ele>489.33</ele>
        <time>2022-06-23T08:28:14Z</time>
      </trkpt>
      <trkpt lat="47.71161" lon="5.02304">
        <ele>489.94</ele>
        <time>2022-06-23T08:28:15Z</time>
      </trkpt>
      <trkpt lat="47.71158" lon="5.02307">
        <ele>490.65</ele>
        <time>2022-06-23T08:28:17Z</time>
      </trkpt>
      <trkpt lat="47.71155" lon="5.02309">
        <ele>491.3</ele>
        <time>2022-06-23T08:28:19Z</time>
      </trkpt>
      <trkpt lat="47.71153" lon="5.02312">
        <ele>491.81</ele>
        <time>2022-06-23T08:28:23Z</time>
      </trkpt>
      <trkpt lat="47.71151" lon="5.02314">
        <ele>492.26</ele>
        <time>2022-06-23T08:28:25Z</time>
      </trkpt>
      <trkpt lat="47.71148" lon="5.02317">
        <ele>492.91</ele>
        <time>2022-06-23T08:28:30Z</time>
      </trkpt>
      <trkpt lat="47.71145" lon="5.02319">
        <ele>493.49</ele>
        <time>2022-06-23T08:28:32Z</time>
      </trkpt>
      <trkpt lat="47.71143" lon="5.02321">
        <ele>493.9</ele>
        <time>2022-06-23T08:28:34Z</time>
      </trkpt>
      <trkpt lat="47.7114" lon="5.02323">
        <ele>494.45</ele>
        <time>2022-06-23T08:28:36Z</time>
      </trkpt>
      <trkpt lat="47.71137" lon="5.02324">
        <ele>494.69</ele>
        <time>2022-06-23T08:28:37Z</time>
      </trkpt>
      <trkpt lat="47.71134" lon="5.02326">
        <ele>494.75</ele>
        <time>2022-06-23T08:28:39Z</time>
      </trkpt>
      <trkpt lat="47.71132" lon="5.02327">
        <ele>494.75</ele>
        <time>2022-06-23T08:28:42Z</time>
      </trkpt>
      <trkpt lat="47.71129" lon="5.0233">
        <ele>494.69</ele>
        <time>2022-06-23T08:28:45Z</time>
      </trkpt>
      <trkpt lat="47.71126" lon="5.02332">
        <ele>494.58</ele>
        <time>2022-06-23T08:28:47Z</time>
      </trkpt>
      <trkpt lat="47.71124" lon="5.02334">
        <ele>494.5</ele>
        <time>2022-06-23T08:28:48Z</time>
      </trkpt>
      <trkpt lat="47.71121" lon="5.02336">
        <ele>494.51</ele>
        <time>2022-06-23T08:28:51Z</time>
      </trkpt>
      <trkpt lat="47.71119" lon="5.02338">
        <ele>494.57</ele>
        <time>2022-06-23T08:28:52Z</time>
      </trkpt>
      <trkpt lat="47.71116" lon="5.0234">
        <ele>494.61</ele>
        <time>2022-06-23T08:28:52Z</time>
      </trkpt>
      <trkpt lat="47.71113" lon="5.02342">
        <ele>494.67</ele>
        <time>2022-06-23T08:28:56Z</time>
      </trkpt>
      <trkpt lat="47.71111" lon="5.02345">
        <ele>494.84</ele>
        <time>2022-06-23T08:28:57Z</time>
      </trkpt>
      <trkpt lat="47.71108" lon="5.02346">
        <ele>494.85</ele>
        <time>2022-06-23T08:28:59Z</time>
      </trkpt>
      <trkpt lat="47.71106" lon="5.02349">
        <ele>495.05</ele>
        <time>2022-06-23T08:29:02Z</time>
      </trkpt>
      <trkpt lat="47.71103" lon="5.02351">
        <ele>495.17</ele>
        <time>2022-06-23T08:29:03Z</time>
      </trkpt>
      <trkpt lat="47.711" lon="5.02353">
        <ele>495.3</ele>
        <time>2022-06-23T08:29:06Z</time>
      </trkpt>
      <trkpt lat="47.71097" lon="5.02355">
        <ele>495.45</ele>
        <time>2022-06-23T08:29:08Z</time>
      </trkpt>
      <trkpt lat="47.71094" lon="5.02357">
        <ele>495.61</ele>
        <time>2022-06-23T08:29:11Z</time>
      </trkpt>
      <trkpt lat="47.71092" lon="5.02359">
        <ele>495.8</ele>
        <time>2022-06-23T08:29:13Z</time>
      </trkpt>
      <trkpt lat="47.71089" lon="5.0236">
        <ele>495.89</ele>
        <time>2022-06-23T08:29:16Z</time>
      </trkpt>
      <trkpt lat="47.71085" lon="5.02362">
        <ele>496.03</ele>
        <time>2022-06-23T08:29:18Z</time>
      </trkpt>
      <trkpt lat="47.71082" lon="5.02364">
        <ele>496.09</ele>
        <time>2022-06-23T08:29:21Z</time>
      </trkpt>
      <trkpt lat="47.7108" lon="5.02366">
        <ele>496.11</ele>
        <time>2022-06-23T08:29:22Z</time>
      </trkpt>
      <trkpt lat="47.71077" lon="5.02368">
        <ele>496.08</ele>
        <time>2022-06-23T08:29:23Z</time>
      </trkpt>
      <trkpt lat="47.71074" lon="5.0237">
        <ele>496</ele>
        <time>2022-06-23T08:29:26Z</time>
      </trkpt>
      <trkpt lat="47.71072" lon="5.02372">
        <ele>495.91</ele>
        <time>2022-06-23T08:29:27Z</time>
      </trkpt>
      <trkpt lat="47.71068" lon="5.02375">
        <ele>495.67</ele>
        <time>2022-06-23T08:29:29Z</time>
      </trkpt>
      <trkpt lat="47.71066" lon="5.02377">
        <ele>495.5</ele>
        <time>2022-06-23T08:29:31Z</time>
      </trkpt>
      <trkpt lat="47.71063" lon="5.02379">
        <ele>495.23</ele>
        <time>2022-06-23T08:29:32Z</time>
      </trkpt>
      <trkpt lat="47.71061" lon="5.0238">
        <ele>495.04</ele>
        <time>2022-06-23T08:29:34Z</time>
      </trkpt>
      <trkpt lat="47.71058" lon="5.02382">
        <ele>494.69</ele>
        <time>2022-06-23T08:29:37Z</time>
      </trkpt>
      <trkpt lat="47.71055" lon="5.02383">
        <ele>494.42</ele>
        <time>2022-06-23T08:29:39Z</time>
      </trkpt>
      <trkpt lat="47.71052" lon="5.02385">
        <ele>494.26</ele>
        <time>2022-06-23T08:29:42Z</time>
      </trkpt>
      <trkpt lat="47.71049" lon="5.02387">
        <ele>494.12</ele>
        <time>2022-06-23T08:29:43Z</time>
      </trkpt>
      <trkpt lat="47.71047" lon="5.02389">
        <ele>494</ele>
        <time>2022-06-23T08:29:46Z</time>
      </trkpt>
      <trkpt lat="47.71044" lon="5.02393">
        <ele>494.09</ele>
        <time>2022-06-23T08:29:49Z</time>
      </trkpt>
      <trkpt lat="47.71042" lon="5.02396">
        <ele>494.13</ele>
        <time>2022-06-23T08:29:52Z</time>
      </trkpt>
      <trkpt lat="47.7104" lon="5.02399">
        <ele>494.16</ele>
        <time>2022-06-23T08:29:53Z</time>
      </trkpt>
      <trkpt lat="47.71037" lon="5.02402">
        <ele>494.16</ele>
        <time>2022-06-23T08:29:55Z</time>
      </trkpt>
      <trkpt lat="47.71034" lon="5.02404">
        <ele>494.12</ele>
        <time>2022-06-23T08:29:57Z</time>
      </trkpt>
      <trkpt lat="47.71031" lon="5.02405">
        <ele>494.07</ele>
        <time>2022-06-23T08:29:59Z</time>
      </trkpt>
      <trkpt lat="47.71028" lon="5.02406">
        <ele>494</ele>
        <time>2022-06-23T08:30:03Z</time>
      </trkpt>
      <trkpt lat="47.71025" lon="5.02408">
        <ele>494.3</ele>
        <time>2022-06-23T08:30:06Z</time>
      </trkpt>
      <trkpt lat="47.71022" lon="5.0241">
        <ele>494.62</ele>
        <time>2022-06-23T08:30:09Z</time>
      </trkpt>
      <trkpt lat="47.71019" lon="5.02412">
        <ele>494.95</ele>
        <time>2022-06-23T08:30:11Z</time>
      </trkpt>
      <trkpt lat="47.71017" lon="5.02415">
        <ele>495.16</ele>
        <time>2022-06-23T08:30:14Z</time>
      </trkpt>
      <trkpt lat="47.71015" lon="5.02417">
        <ele>495.36</ele>
        <time>2022-06-23T08:30:15Z</time>
      </trkpt>
      <trkpt lat="47.71013" lon="5.0242">
        <ele>495.4</ele>
        <time>2022-06-23T08:30:18Z</time>
      </trkpt>
      <trkpt lat="47.7101" lon="5.02422">
        <ele>495.5</ele>
        <time>2022-06-23T08:30:21Z</time>
      </trkpt>
      <trkpt lat="47.71007" lon="5.02424">
        <ele>495.52</ele>
        <time>2022-06-23T08:30:22Z</time>
      </trkpt>
      <trkpt lat="47.71004" lon="5.02427">
        <ele>495.35</ele>
        <time>2022-06-23T08:30:26Z</time>
      </trkpt>
      <trkpt lat="47.71002" lon="5.0243">
        <ele>495.04</ele>
        <time>2022-06-23T08:30:28Z</time>
      </trkpt>
      <trkpt lat="47.71" lon="5.02432">
        <ele>494.79</ele>
        <time>2022-06-23T08:30:30Z</time>
      </trkpt>
      <trkpt lat="47.70997" lon="5.02433">
        <ele>494.11</ele>
        <time>2022-06-23T08:30:34Z</time>
      </trkpt>
      <trkpt lat="47.70994" lon="5.02435">
        <ele>493.28</ele>
        <time>2022-06-23T08:30:36Z</time>
      </trkpt>
      <trkpt lat="47.70991" lon="5.02436">
        <ele>492.6</ele>
        <time>2022-06-23T08:30:38Z</time>
      </trkpt>
      <trkpt lat="47.70988" lon="5.02438">
        <ele>491.77</ele>
        <time>2022-06-23T08:30:41Z</time>
      </trkpt>
      <trkpt lat="47.70985" lon="5.02439">
        <ele>491.08</ele>
        <time>2022-06-23T08:30:43Z</time>
      </trkpt>
      <trkpt lat="47.70982" lon="5.02441">
        <ele>490.26</ele>
        <time>2022-06-23T08:30:44Z</time>
      </trkpt>
      <trkpt lat="47.7098" lon="5.02442">
        <ele>489.75</ele>
        <time>2022-06-23T08:30:47Z</time>
      </trkpt>
      <trkpt lat="47.70976" lon="5.02446">
        <ele>488.46</ele>
        <time>2022-06-23T08:30:50Z</time>
      </trkpt>
      <trkpt lat="47.70974" lon="5.02449">
        <ele>487.67</ele>
        <time>2022-06-23T08:30:51Z</time>
      </trkpt>
      <trkpt lat="47.70972" lon="5.02451">
        <ele>487.01</ele>
        <time>2022-06-23T08:30:52Z</time>
      </trkpt>
      <trkpt lat="47.70969" lon="5.02454">
        <ele>485.93</ele>
        <time>2022-06-23T08:30:54Z</time>
      </trkpt>
      <trkpt lat="47.70967" lon="5.02456">
        <ele>485.21</ele>
        <time>2022-06-23T08:30:57Z</time>
      </trkpt>
      <trkpt lat="47.70964" lon="5.02459">
        <ele>484.13</ele>
        <time>2022-06-23T08:30:58Z</time>
      </trkpt>
      <trkpt lat="47.70961" lon="5.02461">
        <ele>483.19</ele>
        <time>2022-06-23T08:31:00Z</time>
      </trkpt>
      <trkpt lat="47.70959" lon="5.02463">
        <ele>482.47</ele>
        <time>2022-06-23T08:31:01Z</time>
      </trkpt>
      <trkpt lat="47.70956" lon="5.02465">
        <ele>481.54</ele>
        <time>2022-06-23T08:31:03Z</time>
      </trkpt>
      <trkpt lat="47.70953" lon="5.02466">
        <ele>480.74</ele>
        <time>2022-06-23T08:31:08Z</time>
      </trkpt>
      <trkpt lat="47.7095" lon="5.02466">
        <ele>480.1</ele>
        <time>2022-06-23T08:31:13Z</time>
      </trkpt>
      <trkpt lat="47.70947" lon="5.02467">
        <ele>479.3</ele>
        <time>2022-06-23T08:31:17Z</time>
      </trkpt>
      <trkpt lat="47.70944" lon="5.02468">
        <ele>478.59</ele>
        <time>2022-06-23T08:31:24Z</time>
      </trkpt>
      <trkpt lat="47.70942" lon="5.0247">
        <ele>478.22</ele>
        <time>2022-06-23T08:31:29Z</time>
      </trkpt>
      <trkpt lat="47.70939" lon="5.02473">
        <ele>477.78</ele>
        <time>2022-06-23T08:31:31Z</time>
      </trkpt>
      <trkpt lat="47.70937" lon="5.02474">
        <ele>477.67</ele>
        <time>2022-06-23T08:31:34Z</time>
      </trkpt>
      <trkpt lat="47.70934" lon="5.02476">
        <ele>477.49</ele>
        <time>2022-06-23T08:31:37Z</time>
      </trkpt>
      <trkpt lat="47.70932" lon="5.0248">
        <ele>477.27</ele>
        <time>2022-06-23T08:31:38Z</time>
      </trkpt>
      <trkpt lat="47.70931" lon="5.02483">
        <ele>477.13</ele>
        <time>2022-06-23T08:31:41Z</time>
      </trkpt>
      <trkpt lat="47.7093" lon="5.02488">
        <ele>476.91</ele>
        <time>2022-06-23T08:31:49Z</time>
      </trkpt>
      <trkpt lat="47.70929" lon="5.02491">
        <ele>476.77</ele>
        <time>2022-06-23T08:31:53Z</time>
      </trkpt>
      <trkpt lat="47.70932" lon="5.02492">
        <ele>476.84</ele>
        <time>2022-06-23T08:32:33Z</time>
      </trkpt>
      <trkpt lat="47.70934" lon="5.02496">
        <ele>476.77</ele>
        <time>2022-06-23T08:32:36Z</time>
      </trkpt>
      <trkpt lat="47.70932" lon="5.02499">
        <ele>476.59</ele>
        <time>2022-06-23T08:33:00Z</time>
      </trkpt>
      <trkpt lat="47.70929" lon="5.02499">
        <ele>476.48</ele>
        <time>2022-06-23T08:33:14Z</time>
      </trkpt>
      <trkpt lat="47.70926" lon="5.02498">
        <ele>476.41</ele>
        <time>2022-06-23T08:35:51Z</time>
      </trkpt>
      <trkpt lat="47.70925" lon="5.02494">
        <ele>476.52</ele>
        <time>2022-06-23T08:35:57Z</time>
      </trkpt>
      <trkpt lat="47.70927" lon="5.02491">
        <ele>476.7</ele>
        <time>2022-06-23T08:36:53Z</time>
      </trkpt>
      <trkpt lat="47.70927" lon="5.02487">
        <ele>476.84</ele>
        <time>2022-06-23T08:36:57Z</time>
      </trkpt>
      <trkpt lat="47.70925" lon="5.02483">
        <ele>476.91</ele>
        <time>2022-06-23T08:37:02Z</time>
      </trkpt>
      <trkpt lat="47.70925" lon="5.02478">
        <ele>477.09</ele>
        <time>2022-06-23T08:37:05Z</time>
      </trkpt>
      <trkpt lat="47.70924" lon="5.02473">
        <ele>477.24</ele>
        <time>2022-06-23T08:37:10Z</time>
      </trkpt>
      <trkpt lat="47.70923" lon="5.0247">
        <ele>477.42</ele>
        <time>2022-06-23T08:37:13Z</time>
      </trkpt>
      <trkpt lat="47.70921" lon="5.02467">
        <ele>477.59</ele>
        <time>2022-06-23T08:37:17Z</time>
      </trkpt>
      <trkpt lat="47.70919" lon="5.02464">
        <ele>477.73</ele>
        <time>2022-06-23T08:37:22Z</time>
      </trkpt>
      <trkpt lat="47.70918" lon="5.0246">
        <ele>477.97</ele>
        <time>2022-06-23T08:37:25Z</time>
      </trkpt>
      <trkpt lat="47.70916" lon="5.02457">
        <ele>478.13</ele>
        <time>2022-06-23T08:37:29Z</time>
      </trkpt>
      <trkpt lat="47.70915" lon="5.02453">
        <ele>478.46</ele>
        <time>2022-06-23T08:37:31Z</time>
      </trkpt>
      <trkpt lat="47.70913" lon="5.0245">
        <ele>478.76</ele>
        <time>2022-06-23T08:37:34Z</time>
      </trkpt>
      <trkpt lat="47.70911" lon="5.02446">
        <ele>479.1</ele>
        <time>2022-06-23T08:37:34Z</time>
      </trkpt>
      <trkpt lat="47.70909" lon="5.02441">
        <ele>479.42</ele>
        <time>2022-06-23T08:37:40Z</time>
      </trkpt>
      <trkpt lat="47.70908" lon="5.02437">
        <ele>479.6</ele>
        <time>2022-06-23T08:37:41Z</time>
      </trkpt>
      <trkpt lat="47.70907" lon="5.02432">
        <ele>479.78</ele>
        <time>2022-06-23T08:37:44Z</time>
      </trkpt>
      <trkpt lat="47.70907" lon="5.02428">
        <ele>479.91</ele>
        <time>2022-06-23T08:37:45Z</time>
      </trkpt>
      <trkpt lat="47.70907" lon="5.02423">
        <ele>480.09</ele>
        <time>2022-06-23T08:37:49Z</time>
      </trkpt>
      <trkpt lat="47.70906" lon="5.02419">
        <ele>480.16</ele>
        <time>2022-06-23T08:37:54Z</time>
      </trkpt>
      <trkpt lat="47.70904" lon="5.02415">
        <ele>480.12</ele>
        <time>2022-06-23T08:37:56Z</time>
      </trkpt>
      <trkpt lat="47.70902" lon="5.0241">
        <ele>480.06</ele>
        <time>2022-06-23T08:38:02Z</time>
      </trkpt>
      <trkpt lat="47.709" lon="5.02405">
        <ele>479.97</ele>
        <time>2022-06-23T08:38:07Z</time>
      </trkpt>
      <trkpt lat="47.70898" lon="5.02402">
        <ele>479.83</ele>
        <time>2022-06-23T08:38:10Z</time>
      </trkpt>
      <trkpt lat="47.70897" lon="5.02398">
        <ele>479.78</ele>
        <time>2022-06-23T08:38:13Z</time>
      </trkpt>
      <trkpt lat="47.70895" lon="5.02394">
        <ele>479.62</ele>
        <time>2022-06-23T08:38:18Z</time>
      </trkpt>
      <trkpt lat="47.70894" lon="5.0239">
        <ele>479.54</ele>
        <time>2022-06-23T08:38:19Z</time>
      </trkpt>
      <trkpt lat="47.70893" lon="5.02386">
        <ele>479.39</ele>
        <time>2022-06-23T08:38:23Z</time>
      </trkpt>
      <trkpt lat="47.70892" lon="5.02382">
        <ele>479.17</ele>
        <time>2022-06-23T08:38:25Z</time>
      </trkpt>
      <trkpt lat="47.70891" lon="5.02378">
        <ele>478.93</ele>
        <time>2022-06-23T08:38:29Z</time>
      </trkpt>
      <trkpt lat="47.70889" lon="5.02376">
        <ele>478.55</ele>
        <time>2022-06-23T08:38:34Z</time>
      </trkpt>
      <trkpt lat="47.70886" lon="5.02374">
        <ele>478.36</ele>
        <time>2022-06-23T08:38:37Z</time>
      </trkpt>
      <trkpt lat="47.70884" lon="5.02372">
        <ele>478.22</ele>
        <time>2022-06-23T08:38:44Z</time>
      </trkpt>
      <trkpt lat="47.70881" lon="5.0237">
        <ele>478.04</ele>
        <time>2022-06-23T08:38:47Z</time>
      </trkpt>
      <trkpt lat="47.70879" lon="5.02368">
        <ele>477.89</ele>
        <time>2022-06-23T08:38:51Z</time>
      </trkpt>
      <trkpt lat="47.70876" lon="5.02367">
        <ele>477.75</ele>
        <time>2022-06-23T08:38:56Z</time>
      </trkpt>
      <trkpt lat="47.70873" lon="5.02365">
        <ele>477.57</ele>
        <time>2022-06-23T08:38:58Z</time>
      </trkpt>
      <trkpt lat="47.70871" lon="5.02363">
        <ele>477.42</ele>
        <time>2022-06-23T08:39:00Z</time>
      </trkpt>
      <trkpt lat="47.70868" lon="5.02362">
        <ele>477.28</ele>
        <time>2022-06-23T08:39:03Z</time>
      </trkpt>
      <trkpt lat="47.70865" lon="5.0236">
        <ele>477.08</ele>
        <time>2022-06-23T08:39:07Z</time>
      </trkpt>
      <trkpt lat="47.70862" lon="5.02358">
        <ele>476.82</ele>
        <time>2022-06-23T08:39:10Z</time>
      </trkpt>
      <trkpt lat="47.70859" lon="5.02355">
        <ele>476.44</ele>
        <time>2022-06-23T08:39:13Z</time>
      </trkpt>
      <trkpt lat="47.70857" lon="5.02352">
        <ele>476.15</ele>
        <time>2022-06-23T08:39:14Z</time>
      </trkpt>
      <trkpt lat="47.70854" lon="5.0235">
        <ele>475.89</ele>
        <time>2022-06-23T08:39:18Z</time>
      </trkpt>
      <trkpt lat="47.70852" lon="5.02347">
        <ele>475.66</ele>
        <time>2022-06-23T08:39:19Z</time>
      </trkpt>
      <trkpt lat="47.70849" lon="5.02345">
        <ele>475.47</ele>
        <time>2022-06-23T08:39:23Z</time>
      </trkpt>
      <trkpt lat="47.70847" lon="5.02342">
        <ele>475.31</ele>
        <time>2022-06-23T08:39:25Z</time>
      </trkpt>
      <trkpt lat="47.70845" lon="5.0234">
        <ele>475.2</ele>
        <time>2022-06-23T08:39:26Z</time>
      </trkpt>
      <trkpt lat="47.70843" lon="5.02337">
        <ele>475.09</ele>
        <time>2022-06-23T08:39:30Z</time>
      </trkpt>
      <trkpt lat="47.70841" lon="5.02334">
        <ele>475.01</ele>
        <time>2022-06-23T08:39:31Z</time>
      </trkpt>
      <trkpt lat="47.70839" lon="5.02331">
        <ele>474.87</ele>
        <time>2022-06-23T08:39:35Z</time>
      </trkpt>
      <trkpt lat="47.70838" lon="5.02327">
        <ele>474.62</ele>
        <time>2022-06-23T08:39:36Z</time>
      </trkpt>
      <trkpt lat="47.70836" lon="5.02323">
        <ele>474.33</ele>
        <time>2022-06-23T08:39:41Z</time>
      </trkpt>
      <trkpt lat="47.70834" lon="5.02319">
        <ele>473.99</ele>
        <time>2022-06-23T08:39:44Z</time>
      </trkpt>
      <trkpt lat="47.70833" lon="5.02315">
        <ele>473.63</ele>
        <time>2022-06-23T08:39:46Z</time>
      </trkpt>
      <trkpt lat="47.70832" lon="5.02311">
        <ele>473.19</ele>
        <time>2022-06-23T08:39:49Z</time>
      </trkpt>
      <trkpt lat="47.7083" lon="5.02306">
        <ele>472.55</ele>
        <time>2022-06-23T08:39:53Z</time>
      </trkpt>
      <trkpt lat="47.70829" lon="5.02302">
        <ele>472.68</ele>
        <time>2022-06-23T08:39:56Z</time>
      </trkpt>
      <trkpt lat="47.70827" lon="5.02299">
        <ele>472.58</ele>
        <time>2022-06-23T08:40:01Z</time>
      </trkpt>
      <trkpt lat="47.70825" lon="5.02296">
        <ele>472.42</ele>
        <time>2022-06-23T08:40:04Z</time>
      </trkpt>
      <trkpt lat="47.70822" lon="5.02294">
        <ele>471.94</ele>
        <time>2022-06-23T08:40:07Z</time>
      </trkpt>
      <trkpt lat="47.70821" lon="5.0229">
        <ele>471.91</ele>
        <time>2022-06-23T08:40:10Z</time>
      </trkpt>
      <trkpt lat="47.70818" lon="5.02287">
        <ele>471.32</ele>
        <time>2022-06-23T08:40:15Z</time>
      </trkpt>
      <trkpt lat="47.70816" lon="5.02282">
        <ele>470.93</ele>
        <time>2022-06-23T08:40:16Z</time>
      </trkpt>
      <trkpt lat="47.70815" lon="5.02279">
        <ele>470.7</ele>
        <time>2022-06-23T08:40:20Z</time>
      </trkpt>
      <trkpt lat="47.70814" lon="5.02274">
        <ele>470.3</ele>
        <time>2022-06-23T08:40:20Z</time>
      </trkpt>
      <trkpt lat="47.70814" lon="5.02269">
        <ele>470.12</ele>
        <time>2022-06-23T08:40:26Z</time>
      </trkpt>
      <trkpt lat="47.70811" lon="5.02268">
        <ele>469.22</ele>
        <time>2022-06-23T08:40:31Z</time>
      </trkpt>
      <trkpt lat="47.70808" lon="5.02267">
        <ele>468.32</ele>
        <time>2022-06-23T08:40:38Z</time>
      </trkpt>
      <trkpt lat="47.70805" lon="5.02265">
        <ele>467.42</ele>
        <time>2022-06-23T08:40:45Z</time>
      </trkpt>
      <trkpt lat="47.70803" lon="5.02263">
        <ele>466.91</ele>
        <time>2022-06-23T08:40:49Z</time>
      </trkpt>
      <trkpt lat="47.708" lon="5.02261">
        <ele>466.15</ele>
        <time>2022-06-23T08:41:00Z</time>
      </trkpt>
      <trkpt lat="47.70798" lon="5.02258">
        <ele>465.54</ele>
        <time>2022-06-23T08:41:05Z</time>
      </trkpt>
      <trkpt lat="47.70797" lon="5.02255">
        <ele>465.13</ele>
        <time>2022-06-23T08:41:11Z</time>
      </trkpt>
      <trkpt lat="47.70798" lon="5.02251">
        <ele>465.15</ele>
        <time>2022-06-23T08:41:16Z</time>
      </trkpt>
      <trkpt lat="47.70799" lon="5.02247">
        <ele>465.21</ele>
        <time>2022-06-23T08:41:22Z</time>
      </trkpt>
      <trkpt lat="47.70801" lon="5.02243">
        <ele>465.56</ele>
        <time>2022-06-23T08:41:24Z</time>
      </trkpt>
      <trkpt lat="47.70802" lon="5.02239">
        <ele>465.66</ele>
        <time>2022-06-23T08:41:28Z</time>
      </trkpt>
      <trkpt lat="47.70802" lon="5.02234">
        <ele>465.45</ele>
        <time>2022-06-23T08:41:30Z</time>
      </trkpt>
      <trkpt lat="47.70803" lon="5.0223">
        <ele>465.57</ele>
        <time>2022-06-23T08:41:34Z</time>
      </trkpt>
      <trkpt lat="47.70804" lon="5.02226">
        <ele>465.7</ele>
        <time>2022-06-23T08:41:36Z</time>
      </trkpt>
      <trkpt lat="47.70805" lon="5.02222">
        <ele>465.82</ele>
        <time>2022-06-23T08:41:46Z</time>
      </trkpt>
      <trkpt lat="47.70807" lon="5.02219">
        <ele>466.06</ele>
        <time>2022-06-23T08:41:51Z</time>
      </trkpt>
      <trkpt lat="47.70808" lon="5.02214">
        <ele>465.79</ele>
        <time>2022-06-23T08:41:53Z</time>
      </trkpt>
      <trkpt lat="47.70809" lon="5.02209">
        <ele>465.5</ele>
        <time>2022-06-23T08:41:56Z</time>
      </trkpt>
      <trkpt lat="47.7081" lon="5.02205">
        <ele>465.32</ele>
        <time>2022-06-23T08:41:57Z</time>
      </trkpt>
      <trkpt lat="47.7081" lon="5.02201">
        <ele>464.87</ele>
        <time>2022-06-23T08:42:01Z</time>
      </trkpt>
      <trkpt lat="47.70812" lon="5.02199">
        <ele>465.15</ele>
        <time>2022-06-23T08:42:04Z</time>
      </trkpt>
      <trkpt lat="47.70814" lon="5.02196">
        <ele>465.31</ele>
        <time>2022-06-23T08:42:09Z</time>
      </trkpt>
      <trkpt lat="47.70816" lon="5.02192">
        <ele>465.39</ele>
        <time>2022-06-23T08:42:11Z</time>
      </trkpt>
      <trkpt lat="47.70817" lon="5.02189">
        <ele>465.33</ele>
        <time>2022-06-23T08:42:14Z</time>
      </trkpt>
      <trkpt lat="47.70818" lon="5.02185">
        <ele>465.15</ele>
        <time>2022-06-23T08:42:17Z</time>
      </trkpt>
      <trkpt lat="47.70819" lon="5.02181">
        <ele>464.95</ele>
        <time>2022-06-23T08:42:18Z</time>
      </trkpt>
      <trkpt lat="47.7082" lon="5.02177">
        <ele>464.73</ele>
        <time>2022-06-23T08:42:22Z</time>
      </trkpt>
      <trkpt lat="47.7082" lon="5.02172">
        <ele>464.18</ele>
        <time>2022-06-23T08:42:24Z</time>
      </trkpt>
      <trkpt lat="47.7082" lon="5.02168">
        <ele>463.75</ele>
        <time>2022-06-23T08:42:28Z</time>
      </trkpt>
      <trkpt lat="47.70822" lon="5.02164">
        <ele>463.65</ele>
        <time>2022-06-23T08:42:32Z</time>
      </trkpt>
      <trkpt lat="47.70824" lon="5.0216">
        <ele>463.52</ele>
        <time>2022-06-23T08:42:34Z</time>
      </trkpt>
      <trkpt lat="47.70825" lon="5.02156">
        <ele>463.19</ele>
        <time>2022-06-23T08:42:37Z</time>
      </trkpt>
      <trkpt lat="47.70827" lon="5.02152">
        <ele>462.99</ele>
        <time>2022-06-23T08:42:38Z</time>
      </trkpt>
      <trkpt lat="47.70829" lon="5.02149">
        <ele>462.87</ele>
        <time>2022-06-23T08:42:42Z</time>
      </trkpt>
      <trkpt lat="47.70831" lon="5.02145">
        <ele>462.59</ele>
        <time>2022-06-23T08:42:45Z</time>
      </trkpt>
      <trkpt lat="47.70833" lon="5.02142">
        <ele>462.41</ele>
        <time>2022-06-23T08:42:49Z</time>
      </trkpt>
      <trkpt lat="47.70835" lon="5.02138">
        <ele>462.26</ele>
        <time>2022-06-23T08:42:51Z</time>
      </trkpt>
      <trkpt lat="47.70836" lon="5.02134">
        <ele>461.79</ele>
        <time>2022-06-23T08:42:55Z</time>
      </trkpt>
      <trkpt lat="47.70837" lon="5.02131">
        <ele>461.5</ele>
        <time>2022-06-23T08:42:57Z</time>
      </trkpt>
      <trkpt lat="47.7084" lon="5.02127">
        <ele>461.54</ele>
        <time>2022-06-23T08:43:00Z</time>
      </trkpt>
      <trkpt lat="47.70842" lon="5.02124">
        <ele>461.5</ele>
        <time>2022-06-23T08:43:05Z</time>
      </trkpt>
      <trkpt lat="47.70844" lon="5.02121">
        <ele>461.47</ele>
        <time>2022-06-23T08:43:07Z</time>
      </trkpt>
      <trkpt lat="47.70846" lon="5.02117">
        <ele>461.25</ele>
        <time>2022-06-23T08:43:11Z</time>
      </trkpt>
      <trkpt lat="47.70847" lon="5.02113">
        <ele>460.78</ele>
        <time>2022-06-23T08:43:12Z</time>
      </trkpt>
      <trkpt lat="47.7085" lon="5.0211">
        <ele>461.07</ele>
        <time>2022-06-23T08:43:17Z</time>
      </trkpt>
      <trkpt lat="47.70852" lon="5.02107">
        <ele>461.21</ele>
        <time>2022-06-23T08:43:19Z</time>
      </trkpt>
      <trkpt lat="47.70854" lon="5.02103">
        <ele>461.19</ele>
        <time>2022-06-23T08:43:22Z</time>
      </trkpt>
      <trkpt lat="47.70855" lon="5.02099">
        <ele>460.91</ele>
        <time>2022-06-23T08:43:25Z</time>
      </trkpt>
      <trkpt lat="47.70857" lon="5.02096">
        <ele>460.95</ele>
        <time>2022-06-23T08:43:28Z</time>
      </trkpt>
      <trkpt lat="47.70859" lon="5.02093">
        <ele>460.96</ele>
        <time>2022-06-23T08:43:30Z</time>
      </trkpt>
      <trkpt lat="47.70862" lon="5.0209">
        <ele>461.22</ele>
        <time>2022-06-23T08:43:35Z</time>
      </trkpt>
      <trkpt lat="47.70864" lon="5.02087">
        <ele>461.36</ele>
        <time>2022-06-23T08:43:39Z</time>
      </trkpt>
      <trkpt lat="47.70866" lon="5.02084">
        <ele>461.5</ele>
        <time>2022-06-23T08:43:40Z</time>
      </trkpt>
      <trkpt lat="47.70868" lon="5.0208">
        <ele>461.47</ele>
        <time>2022-06-23T08:43:45Z</time>
      </trkpt>
      <trkpt lat="47.70869" lon="5.02076">
        <ele>461.14</ele>
        <time>2022-06-23T08:43:47Z</time>
      </trkpt>
      <trkpt lat="47.70871" lon="5.02072">
        <ele>461.07</ele>
        <time>2022-06-23T08:43:50Z</time>
      </trkpt>
      <trkpt lat="47.70872" lon="5.02069">
        <ele>460.87</ele>
        <time>2022-06-23T08:43:54Z</time>
      </trkpt>
      <trkpt lat="47.70874" lon="5.02065">
        <ele>460.77</ele>
        <time>2022-06-23T08:43:56Z</time>
      </trkpt>
      <trkpt lat="47.70876" lon="5.02061">
        <ele>460.64</ele>
        <time>2022-06-23T08:44:01Z</time>
      </trkpt>
      <trkpt lat="47.70878" lon="5.02057">
        <ele>460.5</ele>
        <time>2022-06-23T08:44:04Z</time>
      </trkpt>
      <trkpt lat="47.70879" lon="5.02054">
        <ele>460.28</ele>
        <time>2022-06-23T08:44:07Z</time>
      </trkpt>
      <trkpt lat="47.70882" lon="5.02051">
        <ele>460.61</ele>
        <time>2022-06-23T08:44:09Z</time>
      </trkpt>
      <trkpt lat="47.70884" lon="5.02048">
        <ele>460.68</ele>
        <time>2022-06-23T08:44:10Z</time>
      </trkpt>
      <trkpt lat="47.70886" lon="5.02043">
        <ele>460.46</ele>
        <time>2022-06-23T08:44:15Z</time>
      </trkpt>
      <trkpt lat="47.70887" lon="5.02038">
        <ele>460</ele>
        <time>2022-06-23T08:44:18Z</time>
      </trkpt>
      <trkpt lat="47.70889" lon="5.02035">
        <ele>460.07</ele>
        <time>2022-06-23T08:44:19Z</time>
      </trkpt>
      <trkpt lat="47.70891" lon="5.02031">
        <ele>460.13</ele>
        <time>2022-06-23T08:44:23Z</time>
      </trkpt>
      <trkpt lat="47.70893" lon="5.02028">
        <ele>460.36</ele>
        <time>2022-06-23T08:44:26Z</time>
      </trkpt>
      <trkpt lat="47.70895" lon="5.02025">
        <ele>460.68</ele>
        <time>2022-06-23T08:44:28Z</time>
      </trkpt>
      <trkpt lat="47.70897" lon="5.02021">
        <ele>460.9</ele>
        <time>2022-06-23T08:44:31Z</time>
      </trkpt>
      <trkpt lat="47.70899" lon="5.02018">
        <ele>461.22</ele>
        <time>2022-06-23T08:44:34Z</time>
      </trkpt>
      <trkpt lat="47.70902" lon="5.02015">
        <ele>461.87</ele>
        <time>2022-06-23T08:44:38Z</time>
      </trkpt>
      <trkpt lat="47.70904" lon="5.02012">
        <ele>462.19</ele>
        <time>2022-06-23T08:44:41Z</time>
      </trkpt>
      <trkpt lat="47.70906" lon="5.02009">
        <ele>462.52</ele>
        <time>2022-06-23T08:44:43Z</time>
      </trkpt>
      <trkpt lat="47.70909" lon="5.02006">
        <ele>463.16</ele>
        <time>2022-06-23T08:44:46Z</time>
      </trkpt>
      <trkpt lat="47.70911" lon="5.02002">
        <ele>463.38</ele>
        <time>2022-06-23T08:44:48Z</time>
      </trkpt>
      <trkpt lat="47.70913" lon="5.01999">
        <ele>463.49</ele>
        <time>2022-06-23T08:44:51Z</time>
      </trkpt>
      <trkpt lat="47.70915" lon="5.01995">
        <ele>462.75</ele>
        <time>2022-06-23T08:44:54Z</time>
      </trkpt>
      <trkpt lat="47.70916" lon="5.01992">
        <ele>461.96</ele>
        <time>2022-06-23T08:44:58Z</time>
      </trkpt>
      <trkpt lat="47.70919" lon="5.01989">
        <ele>461.56</ele>
        <time>2022-06-23T08:45:04Z</time>
      </trkpt>
      <trkpt lat="47.70921" lon="5.01986">
        <ele>460.98</ele>
        <time>2022-06-23T08:45:08Z</time>
      </trkpt>
      <trkpt lat="47.70924" lon="5.01983">
        <ele>460.68</ele>
        <time>2022-06-23T08:45:11Z</time>
      </trkpt>
      <trkpt lat="47.70929" lon="5.01976">
        <ele>459.73</ele>
        <time>2022-06-23T08:45:16Z</time>
      </trkpt>
      <trkpt lat="47.70932" lon="5.01972">
        <ele>459.39</ele>
        <time>2022-06-23T08:45:19Z</time>
      </trkpt>
      <trkpt lat="47.70934" lon="5.01969">
        <ele>459.57</ele>
        <time>2022-06-23T08:45:22Z</time>
      </trkpt>
      <trkpt lat="47.70936" lon="5.01966">
        <ele>459.74</ele>
        <time>2022-06-23T08:45:24Z</time>
      </trkpt>
      <trkpt lat="47.70938" lon="5.01963">
        <ele>459.89</ele>
        <time>2022-06-23T08:45:29Z</time>
      </trkpt>
      <trkpt lat="47.7094" lon="5.01959">
        <ele>459.89</ele>
        <time>2022-06-23T08:45:32Z</time>
      </trkpt>
      <trkpt lat="47.70942" lon="5.01956">
        <ele>460.01</ele>
        <time>2022-06-23T08:45:34Z</time>
      </trkpt>
      <trkpt lat="47.70944" lon="5.01953">
        <ele>460.12</ele>
        <time>2022-06-23T08:45:38Z</time>
      </trkpt>
      <trkpt lat="47.70945" lon="5.01949">
        <ele>459.86</ele>
        <time>2022-06-23T08:45:42Z</time>
      </trkpt>
      <trkpt lat="47.70948" lon="5.01946">
        <ele>460.51</ele>
        <time>2022-06-23T08:45:43Z</time>
      </trkpt>
      <trkpt lat="47.7095" lon="5.01944">
        <ele>460.93</ele>
        <time>2022-06-23T08:45:47Z</time>
      </trkpt>
      <trkpt lat="47.70952" lon="5.01941">
        <ele>461.12</ele>
        <time>2022-06-23T08:45:50Z</time>
      </trkpt>
      <trkpt lat="47.70955" lon="5.01938">
        <ele>461.61</ele>
        <time>2022-06-23T08:45:53Z</time>
      </trkpt>
      <trkpt lat="47.70957" lon="5.01935">
        <ele>461.7</ele>
        <time>2022-06-23T08:45:56Z</time>
      </trkpt>
      <trkpt lat="47.70959" lon="5.01932">
        <ele>461.74</ele>
        <time>2022-06-23T08:45:58Z</time>
      </trkpt>
      <trkpt lat="47.70961" lon="5.01928">
        <ele>461.53</ele>
        <time>2022-06-23T08:46:03Z</time>
      </trkpt>
      <trkpt lat="47.70962" lon="5.01924">
        <ele>460.98</ele>
        <time>2022-06-23T08:46:04Z</time>
      </trkpt>
      <trkpt lat="47.70963" lon="5.0192">
        <ele>460.4</ele>
        <time>2022-06-23T08:46:06Z</time>
      </trkpt>
      <trkpt lat="47.70964" lon="5.01916">
        <ele>459.82</ele>
        <time>2022-06-23T08:46:11Z</time>
      </trkpt>
      <trkpt lat="47.70966" lon="5.01912">
        <ele>459.67</ele>
        <time>2022-06-23T08:46:15Z</time>
      </trkpt>
      <trkpt lat="47.70967" lon="5.01909">
        <ele>459.41</ele>
        <time>2022-06-23T08:46:18Z</time>
      </trkpt>
      <trkpt lat="47.70969" lon="5.01904">
        <ele>459.01</ele>
        <time>2022-06-23T08:46:21Z</time>
      </trkpt>
      <trkpt lat="47.70971" lon="5.019">
        <ele>458.74</ele>
        <time>2022-06-23T08:46:23Z</time>
      </trkpt>
      <trkpt lat="47.70972" lon="5.01897">
        <ele>458.42</ele>
        <time>2022-06-23T08:46:25Z</time>
      </trkpt>
      <trkpt lat="47.70974" lon="5.01894">
        <ele>458.48</ele>
        <time>2022-06-23T08:46:28Z</time>
      </trkpt>
      <trkpt lat="47.70976" lon="5.0189">
        <ele>458.42</ele>
        <time>2022-06-23T08:46:30Z</time>
      </trkpt>
      <trkpt lat="47.70977" lon="5.01886">
        <ele>458.15</ele>
        <time>2022-06-23T08:46:33Z</time>
      </trkpt>
      <trkpt lat="47.70978" lon="5.01882">
        <ele>457.93</ele>
        <time>2022-06-23T08:46:35Z</time>
      </trkpt>
      <trkpt lat="47.7098" lon="5.01877">
        <ele>457.93</ele>
        <time>2022-06-23T08:46:39Z</time>
      </trkpt>
      <trkpt lat="47.70981" lon="5.01872">
        <ele>457.6</ele>
        <time>2022-06-23T08:46:42Z</time>
      </trkpt>
      <trkpt lat="47.70983" lon="5.01869">
        <ele>457.91</ele>
        <time>2022-06-23T08:46:44Z</time>
      </trkpt>
      <trkpt lat="47.70985" lon="5.01865">
        <ele>458.1</ele>
        <time>2022-06-23T08:46:47Z</time>
      </trkpt>
      <trkpt lat="47.70987" lon="5.01862">
        <ele>458.43</ele>
        <time>2022-06-23T08:46:48Z</time>
      </trkpt>
      <trkpt lat="47.70988" lon="5.01858">
        <ele>458.62</ele>
        <time>2022-06-23T08:46:53Z</time>
      </trkpt>
      <trkpt lat="47.70989" lon="5.01853">
        <ele>458.86</ele>
        <time>2022-06-23T08:46:55Z</time>
      </trkpt>
      <trkpt lat="47.70989" lon="5.01849">
        <ele>458.78</ele>
        <time>2022-06-23T08:46:58Z</time>
      </trkpt>
      <trkpt lat="47.7099" lon="5.01844">
        <ele>459.01</ele>
        <time>2022-06-23T08:47:01Z</time>
      </trkpt>
      <trkpt lat="47.70991" lon="5.01836">
        <ele>459.15</ele>
        <time>2022-06-23T08:47:08Z</time>
      </trkpt>
      <trkpt lat="47.70991" lon="5.01831">
        <ele>458.97</ele>
        <time>2022-06-23T08:47:12Z</time>
      </trkpt>
      <trkpt lat="47.70991" lon="5.01827">
        <ele>458.78</ele>
        <time>2022-06-23T08:47:15Z</time>
      </trkpt>
      <trkpt lat="47.70992" lon="5.01823">
        <ele>458.88</ele>
        <time>2022-06-23T08:47:18Z</time>
      </trkpt>
      <trkpt lat="47.70992" lon="5.01817">
        <ele>458.57</ele>
        <time>2022-06-23T08:47:20Z</time>
      </trkpt>
      <trkpt lat="47.70992" lon="5.01813">
        <ele>458.37</ele>
        <time>2022-06-23T08:47:21Z</time>
      </trkpt>
      <trkpt lat="47.70992" lon="5.01808">
        <ele>458.11</ele>
        <time>2022-06-23T08:47:23Z</time>
      </trkpt>
      <trkpt lat="47.70992" lon="5.01802">
        <ele>457.89</ele>
        <time>2022-06-23T08:47:27Z</time>
      </trkpt>
      <trkpt lat="47.70992" lon="5.01796">
        <ele>457.74</ele>
        <time>2022-06-23T08:47:30Z</time>
      </trkpt>
      <trkpt lat="47.70992" lon="5.01792">
        <ele>457.64</ele>
        <time>2022-06-23T08:47:30Z</time>
      </trkpt>
      <trkpt lat="47.70992" lon="5.01787">
        <ele>457.51</ele>
        <time>2022-06-23T08:47:35Z</time>
      </trkpt>
      <trkpt lat="47.70993" lon="5.01783">
        <ele>457.63</ele>
        <time>2022-06-23T08:47:37Z</time>
      </trkpt>
      <trkpt lat="47.70994" lon="5.01778">
        <ele>457.71</ele>
        <time>2022-06-23T08:47:39Z</time>
      </trkpt>
      <trkpt lat="47.70995" lon="5.01774">
        <ele>457.7</ele>
        <time>2022-06-23T08:47:41Z</time>
      </trkpt>
      <trkpt lat="47.70995" lon="5.0177">
        <ele>457.46</ele>
        <time>2022-06-23T08:47:44Z</time>
      </trkpt>
      <trkpt lat="47.70995" lon="5.01766">
        <ele>457.22</ele>
        <time>2022-06-23T08:47:48Z</time>
      </trkpt>
      <trkpt lat="47.70995" lon="5.0176">
        <ele>456.87</ele>
        <time>2022-06-23T08:47:50Z</time>
      </trkpt>
      <trkpt lat="47.70996" lon="5.01756">
        <ele>456.79</ele>
        <time>2022-06-23T08:47:53Z</time>
      </trkpt>
      <trkpt lat="47.70996" lon="5.01751">
        <ele>456.49</ele>
        <time>2022-06-23T08:47:54Z</time>
      </trkpt>
      <trkpt lat="47.70997" lon="5.01747">
        <ele>456.63</ele>
        <time>2022-06-23T08:47:57Z</time>
      </trkpt>
      <trkpt lat="47.70997" lon="5.01743">
        <ele>456.71</ele>
        <time>2022-06-23T08:47:58Z</time>
      </trkpt>
      <trkpt lat="47.70998" lon="5.01739">
        <ele>456.99</ele>
        <time>2022-06-23T08:48:00Z</time>
      </trkpt>
      <trkpt lat="47.70999" lon="5.01733">
        <ele>457.38</ele>
        <time>2022-06-23T08:48:03Z</time>
      </trkpt>
      <trkpt lat="47.71" lon="5.01728">
        <ele>457.79</ele>
        <time>2022-06-23T08:48:06Z</time>
      </trkpt>
      <trkpt lat="47.71" lon="5.01722">
        <ele>457.98</ele>
        <time>2022-06-23T08:48:09Z</time>
      </trkpt>
      <trkpt lat="47.71" lon="5.01718">
        <ele>457.7</ele>
        <time>2022-06-23T08:48:12Z</time>
      </trkpt>
      <trkpt lat="47.71" lon="5.01712">
        <ele>457.26</ele>
        <time>2022-06-23T08:48:14Z</time>
      </trkpt>
      <trkpt lat="47.71001" lon="5.01708">
        <ele>457.14</ele>
        <time>2022-06-23T08:48:17Z</time>
      </trkpt>
      <trkpt lat="47.71002" lon="5.01704">
        <ele>457.05</ele>
        <time>2022-06-23T08:48:19Z</time>
      </trkpt>
      <trkpt lat="47.71003" lon="5.01699">
        <ele>456.92</ele>
        <time>2022-06-23T08:48:21Z</time>
      </trkpt>
      <trkpt lat="47.71004" lon="5.01695">
        <ele>456.9</ele>
        <time>2022-06-23T08:48:24Z</time>
      </trkpt>
      <trkpt lat="47.71005" lon="5.01691">
        <ele>456.96</ele>
        <time>2022-06-23T08:48:25Z</time>
      </trkpt>
      <trkpt lat="47.71006" lon="5.01687">
        <ele>457.03</ele>
        <time>2022-06-23T08:48:27Z</time>
      </trkpt>
      <trkpt lat="47.71007" lon="5.01682">
        <ele>457.06</ele>
        <time>2022-06-23T08:48:30Z</time>
      </trkpt>
      <trkpt lat="47.71008" lon="5.01678">
        <ele>457.14</ele>
        <time>2022-06-23T08:48:31Z</time>
      </trkpt>
      <trkpt lat="47.71008" lon="5.01673">
        <ele>456.96</ele>
        <time>2022-06-23T08:48:34Z</time>
      </trkpt>
      <trkpt lat="47.71009" lon="5.01666">
        <ele>456.94</ele>
        <time>2022-06-23T08:48:37Z</time>
      </trkpt>
      <trkpt lat="47.71009" lon="5.01661">
        <ele>456.88</ele>
        <time>2022-06-23T08:48:39Z</time>
      </trkpt>
      <trkpt lat="47.7101" lon="5.01656">
        <ele>457.02</ele>
        <time>2022-06-23T08:48:42Z</time>
      </trkpt>
      <trkpt lat="47.7101" lon="5.01651">
        <ele>456.96</ele>
        <time>2022-06-23T08:48:44Z</time>
      </trkpt>
      <trkpt lat="47.71011" lon="5.01647">
        <ele>457.1</ele>
        <time>2022-06-23T08:48:45Z</time>
      </trkpt>
      <trkpt lat="47.71012" lon="5.01642">
        <ele>457.21</ele>
        <time>2022-06-23T08:48:47Z</time>
      </trkpt>
      <trkpt lat="47.71013" lon="5.01638">
        <ele>457.28</ele>
        <time>2022-06-23T08:48:49Z</time>
      </trkpt>
      <trkpt lat="47.71014" lon="5.01635">
        <ele>457.24</ele>
        <time>2022-06-23T08:48:52Z</time>
      </trkpt>
      <trkpt lat="47.71015" lon="5.01631">
        <ele>457.11</ele>
        <time>2022-06-23T08:48:54Z</time>
      </trkpt>
      <trkpt lat="47.71016" lon="5.01626">
        <ele>456.88</ele>
        <time>2022-06-23T08:48:58Z</time>
      </trkpt>
      <trkpt lat="47.71017" lon="5.01622">
        <ele>456.71</ele>
        <time>2022-06-23T08:48:58Z</time>
      </trkpt>
      <trkpt lat="47.71019" lon="5.01618">
        <ele>456.64</ele>
        <time>2022-06-23T08:49:01Z</time>
      </trkpt>
      <trkpt lat="47.7102" lon="5.01614">
        <ele>456.41</ele>
        <time>2022-06-23T08:49:05Z</time>
      </trkpt>
      <trkpt lat="47.71021" lon="5.0161">
        <ele>456.13</ele>
        <time>2022-06-23T08:49:07Z</time>
      </trkpt>
      <trkpt lat="47.71023" lon="5.01604">
        <ele>455.63</ele>
        <time>2022-06-23T08:49:10Z</time>
      </trkpt>
      <trkpt lat="47.71024" lon="5.01601">
        <ele>455.4</ele>
        <time>2022-06-23T08:49:10Z</time>
      </trkpt>
      <trkpt lat="47.71026" lon="5.01595">
        <ele>454.99</ele>
        <time>2022-06-23T08:49:14Z</time>
      </trkpt>
      <trkpt lat="47.71028" lon="5.01591">
        <ele>454.89</ele>
        <time>2022-06-23T08:49:15Z</time>
      </trkpt>
      <trkpt lat="47.71029" lon="5.01588">
        <ele>454.85</ele>
        <time>2022-06-23T08:49:18Z</time>
      </trkpt>
      <trkpt lat="47.71031" lon="5.01584">
        <ele>455</ele>
        <time>2022-06-23T08:49:19Z</time>
      </trkpt>
      <trkpt lat="47.71033" lon="5.01579">
        <ele>454.47</ele>
        <time>2022-06-23T08:49:23Z</time>
      </trkpt>
      <trkpt lat="47.71035" lon="5.01576">
        <ele>454.37</ele>
        <time>2022-06-23T08:49:24Z</time>
      </trkpt>
      <trkpt lat="47.71036" lon="5.01572">
        <ele>453.75</ele>
        <time>2022-06-23T08:49:26Z</time>
      </trkpt>
      <trkpt lat="47.71037" lon="5.01568">
        <ele>453.16</ele>
        <time>2022-06-23T08:49:29Z</time>
      </trkpt>
      <trkpt lat="47.71039" lon="5.01564">
        <ele>452.92</ele>
        <time>2022-06-23T08:49:30Z</time>
      </trkpt>
      <trkpt lat="47.7104" lon="5.0156">
        <ele>452.38</ele>
        <time>2022-06-23T08:49:32Z</time>
      </trkpt>
      <trkpt lat="47.71042" lon="5.01556">
        <ele>452.22</ele>
        <time>2022-06-23T08:49:34Z</time>
      </trkpt>
      <trkpt lat="47.71044" lon="5.01551">
        <ele>451.71</ele>
        <time>2022-06-23T08:49:37Z</time>
      </trkpt>
      <trkpt lat="47.71045" lon="5.01547">
        <ele>451.01</ele>
        <time>2022-06-23T08:49:39Z</time>
      </trkpt>
      <trkpt lat="47.71047" lon="5.01544">
        <ele>450.82</ele>
        <time>2022-06-23T08:49:40Z</time>
      </trkpt>
      <trkpt lat="47.71049" lon="5.0154">
        <ele>450.26</ele>
        <time>2022-06-23T08:49:44Z</time>
      </trkpt>
      <trkpt lat="47.71051" lon="5.01536">
        <ele>449.6</ele>
        <time>2022-06-23T08:49:45Z</time>
      </trkpt>
      <trkpt lat="47.71054" lon="5.01533">
        <ele>449.36</ele>
        <time>2022-06-23T08:49:48Z</time>
      </trkpt>
      <trkpt lat="47.71056" lon="5.01531">
        <ele>449.23</ele>
        <time>2022-06-23T08:49:49Z</time>
      </trkpt>
      <trkpt lat="47.71059" lon="5.01529">
        <ele>449.87</ele>
        <time>2022-06-23T08:49:53Z</time>
      </trkpt>
      <trkpt lat="47.71062" lon="5.01527">
        <ele>450.72</ele>
        <time>2022-06-23T08:49:54Z</time>
      </trkpt>
      <trkpt lat="47.71064" lon="5.01524">
        <ele>451.31</ele>
        <time>2022-06-23T08:49:56Z</time>
      </trkpt>
      <trkpt lat="47.71066" lon="5.01521">
        <ele>451.81</ele>
        <time>2022-06-23T08:50:00Z</time>
      </trkpt>
      <trkpt lat="47.71068" lon="5.01517">
        <ele>452.12</ele>
        <time>2022-06-23T08:50:02Z</time>
      </trkpt>
      <trkpt lat="47.7107" lon="5.01515">
        <ele>452.58</ele>
        <time>2022-06-23T08:50:04Z</time>
      </trkpt>
      <trkpt lat="47.71073" lon="5.01512">
        <ele>453.18</ele>
        <time>2022-06-23T08:50:06Z</time>
      </trkpt>
      <trkpt lat="47.71076" lon="5.0151">
        <ele>453.84</ele>
        <time>2022-06-23T08:50:09Z</time>
      </trkpt>
      <trkpt lat="47.71078" lon="5.01509">
        <ele>454.29</ele>
        <time>2022-06-23T08:50:10Z</time>
      </trkpt>
      <trkpt lat="47.71082" lon="5.01506">
        <ele>454.91</ele>
        <time>2022-06-23T08:50:14Z</time>
      </trkpt>
      <trkpt lat="47.71085" lon="5.01503">
        <ele>455.17</ele>
        <time>2022-06-23T08:50:17Z</time>
      </trkpt>
      <trkpt lat="47.71087" lon="5.015">
        <ele>455.06</ele>
        <time>2022-06-23T08:50:19Z</time>
      </trkpt>
      <trkpt lat="47.7109" lon="5.01498">
        <ele>455.47</ele>
        <time>2022-06-23T08:50:22Z</time>
      </trkpt>
      <trkpt lat="47.71092" lon="5.01496">
        <ele>455.55</ele>
        <time>2022-06-23T08:50:26Z</time>
      </trkpt>
      <trkpt lat="47.71095" lon="5.01493">
        <ele>455.57</ele>
        <time>2022-06-23T08:50:28Z</time>
      </trkpt>
      <trkpt lat="47.71098" lon="5.01492">
        <ele>456.02</ele>
        <time>2022-06-23T08:50:29Z</time>
      </trkpt>
      <trkpt lat="47.71101" lon="5.0149">
        <ele>456.14</ele>
        <time>2022-06-23T08:50:31Z</time>
      </trkpt>
      <trkpt lat="47.71105" lon="5.01487">
        <ele>456.07</ele>
        <time>2022-06-23T08:50:34Z</time>
      </trkpt>
      <trkpt lat="47.71107" lon="5.01485">
        <ele>455.82</ele>
        <time>2022-06-23T08:50:37Z</time>
      </trkpt>
      <trkpt lat="47.7111" lon="5.01483">
        <ele>455.68</ele>
        <time>2022-06-23T08:50:39Z</time>
      </trkpt>
      <trkpt lat="47.71113" lon="5.01481">
        <ele>455.61</ele>
        <time>2022-06-23T08:50:42Z</time>
      </trkpt>
      <trkpt lat="47.71116" lon="5.0148">
        <ele>455.98</ele>
        <time>2022-06-23T08:50:44Z</time>
      </trkpt>
      <trkpt lat="47.71118" lon="5.01478">
        <ele>455.76</ele>
        <time>2022-06-23T08:50:46Z</time>
      </trkpt>
      <trkpt lat="47.71121" lon="5.01476">
        <ele>455.8</ele>
        <time>2022-06-23T08:50:47Z</time>
      </trkpt>
      <trkpt lat="47.71124" lon="5.01474">
        <ele>455.86</ele>
        <time>2022-06-23T08:50:50Z</time>
      </trkpt>
      <trkpt lat="47.71127" lon="5.01473">
        <ele>456.27</ele>
        <time>2022-06-23T08:50:52Z</time>
      </trkpt>
      <trkpt lat="47.71129" lon="5.01471">
        <ele>456.14</ele>
        <time>2022-06-23T08:50:53Z</time>
      </trkpt>
      <trkpt lat="47.71132" lon="5.0147">
        <ele>456.48</ele>
        <time>2022-06-23T08:50:56Z</time>
      </trkpt>
      <trkpt lat="47.71135" lon="5.01468">
        <ele>456.32</ele>
        <time>2022-06-23T08:50:58Z</time>
      </trkpt>
      <trkpt lat="47.71138" lon="5.01466">
        <ele>455.96</ele>
        <time>2022-06-23T08:50:59Z</time>
      </trkpt>
      <trkpt lat="47.71142" lon="5.01464">
        <ele>455.77</ele>
        <time>2022-06-23T08:51:03Z</time>
      </trkpt>
      <trkpt lat="47.71145" lon="5.01462">
        <ele>455.5</ele>
        <time>2022-06-23T08:51:04Z</time>
      </trkpt>
      <trkpt lat="47.71147" lon="5.0146">
        <ele>455.09</ele>
        <time>2022-06-23T08:51:07Z</time>
      </trkpt>
      <trkpt lat="47.7115" lon="5.01459">
        <ele>455.36</ele>
        <time>2022-06-23T08:51:09Z</time>
      </trkpt>
      <trkpt lat="47.71153" lon="5.01459">
        <ele>456.05</ele>
        <time>2022-06-23T08:51:10Z</time>
      </trkpt>
      <trkpt lat="47.71157" lon="5.01459">
        <ele>456.97</ele>
        <time>2022-06-23T08:51:14Z</time>
      </trkpt>
      <trkpt lat="47.7116" lon="5.01458">
        <ele>457.33</ele>
        <time>2022-06-23T08:51:15Z</time>
      </trkpt>
      <trkpt lat="47.71163" lon="5.01458">
        <ele>458.04</ele>
        <time>2022-06-23T08:51:16Z</time>
      </trkpt>
      <trkpt lat="47.71166" lon="5.01457">
        <ele>458.45</ele>
        <time>2022-06-23T08:51:19Z</time>
      </trkpt>
      <trkpt lat="47.71169" lon="5.01457">
        <ele>459.04</ele>
        <time>2022-06-23T08:51:22Z</time>
      </trkpt>
      <trkpt lat="47.71172" lon="5.01457">
        <ele>459.58</ele>
        <time>2022-06-23T08:51:23Z</time>
      </trkpt>
      <trkpt lat="47.71175" lon="5.01457">
        <ele>460.12</ele>
        <time>2022-06-23T08:51:25Z</time>
      </trkpt>
      <trkpt lat="47.71178" lon="5.01456">
        <ele>460.37</ele>
        <time>2022-06-23T08:51:28Z</time>
      </trkpt>
      <trkpt lat="47.71182" lon="5.01456">
        <ele>461.09</ele>
        <time>2022-06-23T08:51:32Z</time>
      </trkpt>
      <trkpt lat="47.71186" lon="5.01456">
        <ele>461.81</ele>
        <time>2022-06-23T08:51:34Z</time>
      </trkpt>
      <trkpt lat="47.71189" lon="5.01456">
        <ele>462.35</ele>
        <time>2022-06-23T08:51:36Z</time>
      </trkpt>
      <trkpt lat="47.71192" lon="5.01455">
        <ele>462.6</ele>
        <time>2022-06-23T08:51:39Z</time>
      </trkpt>
      <trkpt lat="47.71196" lon="5.01455">
        <ele>463.1</ele>
        <time>2022-06-23T08:51:40Z</time>
      </trkpt>
      <trkpt lat="47.71199" lon="5.01454">
        <ele>462.96</ele>
        <time>2022-06-23T08:51:44Z</time>
      </trkpt>
      <trkpt lat="47.71202" lon="5.01452">
        <ele>462.62</ele>
        <time>2022-06-23T08:51:45Z</time>
      </trkpt>
      <trkpt lat="47.71205" lon="5.0145">
        <ele>462.36</ele>
        <time>2022-06-23T08:51:47Z</time>
      </trkpt>
      <trkpt lat="47.71208" lon="5.01449">
        <ele>462.38</ele>
        <time>2022-06-23T08:51:51Z</time>
      </trkpt>
      <trkpt lat="47.71212" lon="5.01448">
        <ele>462.52</ele>
        <time>2022-06-23T08:51:53Z</time>
      </trkpt>
      <trkpt lat="47.71215" lon="5.01448">
        <ele>462.77</ele>
        <time>2022-06-23T08:51:56Z</time>
      </trkpt>
      <trkpt lat="47.71218" lon="5.01448">
        <ele>463.03</ele>
        <time>2022-06-23T08:51:59Z</time>
      </trkpt>
      <trkpt lat="47.71221" lon="5.01448">
        <ele>463.28</ele>
        <time>2022-06-23T08:52:00Z</time>
      </trkpt>
      <trkpt lat="47.71224" lon="5.01449">
        <ele>463.25</ele>
        <time>2022-06-23T08:52:03Z</time>
      </trkpt>
      <trkpt lat="47.71227" lon="5.0145">
        <ele>462.95</ele>
        <time>2022-06-23T08:52:06Z</time>
      </trkpt>
      <trkpt lat="47.71229" lon="5.01452">
        <ele>462.91</ele>
        <time>2022-06-23T08:52:09Z</time>
      </trkpt>
      <trkpt lat="47.7123" lon="5.01456">
        <ele>463.24</ele>
        <time>2022-06-23T08:52:12Z</time>
      </trkpt>
      <trkpt lat="47.71234" lon="5.01458">
        <ele>462.97</ele>
        <time>2022-06-23T08:52:16Z</time>
      </trkpt>
      <trkpt lat="47.71237" lon="5.01459">
        <ele>462.72</ele>
        <time>2022-06-23T08:52:17Z</time>
      </trkpt>
      <trkpt lat="47.7124" lon="5.01459">
        <ele>462.35</ele>
        <time>2022-06-23T08:52:19Z</time>
      </trkpt>
      <trkpt lat="47.71243" lon="5.01458">
        <ele>461.84</ele>
        <time>2022-06-23T08:52:22Z</time>
      </trkpt>
      <trkpt lat="47.71246" lon="5.01456">
        <ele>461.18</ele>
        <time>2022-06-23T08:52:22Z</time>
      </trkpt>
      <trkpt lat="47.71249" lon="5.01454">
        <ele>460.51</ele>
        <time>2022-06-23T08:52:24Z</time>
      </trkpt>
      <trkpt lat="47.71253" lon="5.0145">
        <ele>459.76</ele>
        <time>2022-06-23T08:52:27Z</time>
      </trkpt>
      <trkpt lat="47.71255" lon="5.01448">
        <ele>459.4</ele>
        <time>2022-06-23T08:52:27Z</time>
      </trkpt>
      <trkpt lat="47.71258" lon="5.01445">
        <ele>458.81</ele>
        <time>2022-06-23T08:52:29Z</time>
      </trkpt>
      <trkpt lat="47.7126" lon="5.01442">
        <ele>458.03</ele>
        <time>2022-06-23T08:52:31Z</time>
      </trkpt>
      <trkpt lat="47.71262" lon="5.01439">
        <ele>457.25</ele>
        <time>2022-06-23T08:52:35Z</time>
      </trkpt>
      <trkpt lat="47.71264" lon="5.01436">
        <ele>456.52</ele>
        <time>2022-06-23T08:52:37Z</time>
      </trkpt>
      <trkpt lat="47.71267" lon="5.01434">
        <ele>456.07</ele>
        <time>2022-06-23T08:52:38Z</time>
      </trkpt>
      <trkpt lat="47.7127" lon="5.01433">
        <ele>455.87</ele>
        <time>2022-06-23T08:52:40Z</time>
      </trkpt>
      <trkpt lat="47.71273" lon="5.01433">
        <ele>455.9</ele>
        <time>2022-06-23T08:52:45Z</time>
      </trkpt>
      <trkpt lat="47.71275" lon="5.01432">
        <ele>455.73</ele>
        <time>2022-06-23T08:52:47Z</time>
      </trkpt>
      <trkpt lat="47.71279" lon="5.01431">
        <ele>455.69</ele>
        <time>2022-06-23T08:52:48Z</time>
      </trkpt>
      <trkpt lat="47.71282" lon="5.0143">
        <ele>455.78</ele>
        <time>2022-06-23T08:52:50Z</time>
      </trkpt>
      <trkpt lat="47.71284" lon="5.01428">
        <ele>455.62</ele>
        <time>2022-06-23T08:52:53Z</time>
      </trkpt>
      <trkpt lat="47.71287" lon="5.01426">
        <ele>455.56</ele>
        <time>2022-06-23T08:52:55Z</time>
      </trkpt>
      <trkpt lat="47.71289" lon="5.01423">
        <ele>455.26</ele>
        <time>2022-06-23T08:52:57Z</time>
      </trkpt>
      <trkpt lat="47.71292" lon="5.0142">
        <ele>455.07</ele>
        <time>2022-06-23T08:52:59Z</time>
      </trkpt>
      <trkpt lat="47.71294" lon="5.01418">
        <ele>454.96</ele>
        <time>2022-06-23T08:53:02Z</time>
      </trkpt>
      <trkpt lat="47.71296" lon="5.01415">
        <ele>454.63</ele>
        <time>2022-06-23T08:53:04Z</time>
      </trkpt>
      <trkpt lat="47.71299" lon="5.01412">
        <ele>454.32</ele>
        <time>2022-06-23T08:53:06Z</time>
      </trkpt>
      <trkpt lat="47.71301" lon="5.01409">
        <ele>453.9</ele>
        <time>2022-06-23T08:53:08Z</time>
      </trkpt>
      <trkpt lat="47.71304" lon="5.01406">
        <ele>453.55</ele>
        <time>2022-06-23T08:53:10Z</time>
      </trkpt>
      <trkpt lat="47.71307" lon="5.01403">
        <ele>453.2</ele>
        <time>2022-06-23T08:53:15Z</time>
      </trkpt>
      <trkpt lat="47.71308" lon="5.014">
        <ele>452.66</ele>
        <time>2022-06-23T08:53:19Z</time>
      </trkpt>
      <trkpt lat="47.7131" lon="5.01397">
        <ele>452.23</ele>
        <time>2022-06-23T08:53:21Z</time>
      </trkpt>
      <trkpt lat="47.71312" lon="5.01394">
        <ele>451.8</ele>
        <time>2022-06-23T08:53:29Z</time>
      </trkpt>
      <trkpt lat="47.71314" lon="5.0139">
        <ele>451.15</ele>
        <time>2022-06-23T08:53:35Z</time>
      </trkpt>
      <trkpt lat="47.71317" lon="5.01389">
        <ele>451.26</ele>
        <time>2022-06-23T08:53:37Z</time>
      </trkpt>
      <trkpt lat="47.7132" lon="5.01389">
        <ele>451.58</ele>
        <time>2022-06-23T08:54:05Z</time>
      </trkpt>
      <trkpt lat="47.71323" lon="5.01389">
        <ele>451.91</ele>
        <time>2022-06-23T08:54:08Z</time>
      </trkpt>
      <trkpt lat="47.71325" lon="5.01388">
        <ele>452.01</ele>
        <time>2022-06-23T08:54:21Z</time>
      </trkpt>
      <trkpt lat="47.71328" lon="5.01385">
        <ele>452.03</ele>
        <time>2022-06-23T08:55:37Z</time>
      </trkpt>
      <trkpt lat="47.71331" lon="5.01384">
        <ele>452.23</ele>
        <time>2022-06-23T08:55:59Z</time>
      </trkpt>
      <trkpt lat="47.7133" lon="5.01388">
        <ele>452.55</ele>
        <time>2022-06-23T08:57:18Z</time>
      </trkpt>
      <trkpt lat="47.71327" lon="5.01386">
        <ele>452.03</ele>
        <time>2022-06-23T08:58:45Z</time>
      </trkpt>
      <trkpt lat="47.71326" lon="5.01381">
        <ele>451.43</ele>
        <time>2022-06-23T09:00:05Z</time>
      </trkpt>
      <trkpt lat="47.71328" lon="5.01377">
        <ele>451.22</ele>
        <time>2022-06-23T09:00:09Z</time>
      </trkpt>
      <trkpt lat="47.7133" lon="5.01374">
        <ele>451.1</ele>
        <time>2022-06-23T09:00:13Z</time>
      </trkpt>
      <trkpt lat="47.71331" lon="5.01371">
        <ele>450.87</ele>
        <time>2022-06-23T09:00:15Z</time>
      </trkpt>
      <trkpt lat="47.71334" lon="5.01368">
        <ele>451.01</ele>
        <time>2022-06-23T09:00:18Z</time>
      </trkpt>
      <trkpt lat="47.71336" lon="5.01365">
        <ele>451.48</ele>
        <time>2022-06-23T09:00:20Z</time>
      </trkpt>
      <trkpt lat="47.71338" lon="5.01363">
        <ele>452.05</ele>
        <time>2022-06-23T09:00:24Z</time>
      </trkpt>
      <trkpt lat="47.71341" lon="5.0136">
        <ele>452.96</ele>
        <time>2022-06-23T09:00:25Z</time>
      </trkpt>
      <trkpt lat="47.71342" lon="5.01356">
        <ele>453.08</ele>
        <time>2022-06-23T09:00:29Z</time>
      </trkpt>
      <trkpt lat="47.71344" lon="5.01352">
        <ele>453.52</ele>
        <time>2022-06-23T09:00:30Z</time>
      </trkpt>
      <trkpt lat="47.71346" lon="5.01349">
        <ele>453.98</ele>
        <time>2022-06-23T09:00:33Z</time>
      </trkpt>
      <trkpt lat="47.71347" lon="5.01345">
        <ele>453.98</ele>
        <time>2022-06-23T09:00:35Z</time>
      </trkpt>
      <trkpt lat="47.71348" lon="5.01341">
        <ele>453.94</ele>
        <time>2022-06-23T09:00:38Z</time>
      </trkpt>
      <trkpt lat="47.71349" lon="5.01337">
        <ele>453.87</ele>
        <time>2022-06-23T09:00:40Z</time>
      </trkpt>
      <trkpt lat="47.7135" lon="5.01333">
        <ele>453.79</ele>
        <time>2022-06-23T09:00:44Z</time>
      </trkpt>
      <trkpt lat="47.71352" lon="5.01329">
        <ele>454.27</ele>
        <time>2022-06-23T09:00:46Z</time>
      </trkpt>
      <trkpt lat="47.71353" lon="5.01325">
        <ele>454.45</ele>
        <time>2022-06-23T09:00:49Z</time>
      </trkpt>
      <trkpt lat="47.71354" lon="5.01321">
        <ele>454.62</ele>
        <time>2022-06-23T09:00:50Z</time>
      </trkpt>
      <trkpt lat="47.71355" lon="5.01317">
        <ele>454.78</ele>
        <time>2022-06-23T09:00:54Z</time>
      </trkpt>
      <trkpt lat="47.71356" lon="5.01313">
        <ele>454.93</ele>
        <time>2022-06-23T09:00:56Z</time>
      </trkpt>
      <trkpt lat="47.71357" lon="5.01309">
        <ele>455.07</ele>
        <time>2022-06-23T09:00:59Z</time>
      </trkpt>
      <trkpt lat="47.71359" lon="5.01306">
        <ele>455.48</ele>
        <time>2022-06-23T09:01:01Z</time>
      </trkpt>
      <trkpt lat="47.7136" lon="5.01301">
        <ele>455.41</ele>
        <time>2022-06-23T09:01:03Z</time>
      </trkpt>
      <trkpt lat="47.71362" lon="5.01297">
        <ele>455.71</ele>
        <time>2022-06-23T09:01:05Z</time>
      </trkpt>
      <trkpt lat="47.71363" lon="5.01292">
        <ele>455.67</ele>
        <time>2022-06-23T09:01:07Z</time>
      </trkpt>
      <trkpt lat="47.71365" lon="5.01288">
        <ele>456.01</ele>
        <time>2022-06-23T09:01:11Z</time>
      </trkpt>
      <trkpt lat="47.71367" lon="5.01283">
        <ele>456.19</ele>
        <time>2022-06-23T09:01:13Z</time>
      </trkpt>
      <trkpt lat="47.71368" lon="5.01279">
        <ele>456.1</ele>
        <time>2022-06-23T09:01:16Z</time>
      </trkpt>
      <trkpt lat="47.71369" lon="5.01274">
        <ele>455.83</ele>
        <time>2022-06-23T09:01:18Z</time>
      </trkpt>
      <trkpt lat="47.71369" lon="5.01269">
        <ele>455.23</ele>
        <time>2022-06-23T09:01:20Z</time>
      </trkpt>
      <trkpt lat="47.7137" lon="5.01265">
        <ele>455.03</ele>
        <time>2022-06-23T09:01:21Z</time>
      </trkpt>
      <trkpt lat="47.71371" lon="5.0126">
        <ele>454.7</ele>
        <time>2022-06-23T09:01:24Z</time>
      </trkpt>
      <trkpt lat="47.71372" lon="5.01256">
        <ele>454.48</ele>
        <time>2022-06-23T09:01:25Z</time>
      </trkpt>
      <trkpt lat="47.71373" lon="5.01252">
        <ele>454.24</ele>
        <time>2022-06-23T09:01:27Z</time>
      </trkpt>
      <trkpt lat="47.71374" lon="5.01247">
        <ele>453.94</ele>
        <time>2022-06-23T09:01:30Z</time>
      </trkpt>
      <trkpt lat="47.71375" lon="5.01241">
        <ele>453.53</ele>
        <time>2022-06-23T09:01:33Z</time>
      </trkpt>
      <trkpt lat="47.71376" lon="5.01237">
        <ele>453.28</ele>
        <time>2022-06-23T09:01:34Z</time>
      </trkpt>
      <trkpt lat="47.71377" lon="5.01234">
        <ele>453.11</ele>
        <time>2022-06-23T09:01:36Z</time>
      </trkpt>
      <trkpt lat="47.71378" lon="5.01229">
        <ele>452.66</ele>
        <time>2022-06-23T09:01:38Z</time>
      </trkpt>
      <trkpt lat="47.71379" lon="5.01224">
        <ele>452.16</ele>
        <time>2022-06-23T09:01:40Z</time>
      </trkpt>
      <trkpt lat="47.7138" lon="5.0122">
        <ele>451.99</ele>
        <time>2022-06-23T09:01:43Z</time>
      </trkpt>
      <trkpt lat="47.7138" lon="5.01214">
        <ele>451.85</ele>
        <time>2022-06-23T09:01:45Z</time>
      </trkpt>
      <trkpt lat="47.71379" lon="5.0121">
        <ele>451.62</ele>
        <time>2022-06-23T09:01:49Z</time>
      </trkpt>
      <trkpt lat="47.71379" lon="5.01206">
        <ele>451.52</ele>
        <time>2022-06-23T09:01:53Z</time>
      </trkpt>
      <trkpt lat="47.71381" lon="5.01202">
        <ele>451.73</ele>
        <time>2022-06-23T09:01:56Z</time>
      </trkpt>
      <trkpt lat="47.71382" lon="5.01197">
        <ele>451.81</ele>
        <time>2022-06-23T09:02:01Z</time>
      </trkpt>
      <trkpt lat="47.71381" lon="5.01193">
        <ele>451.48</ele>
        <time>2022-06-23T09:02:03Z</time>
      </trkpt>
      <trkpt lat="47.71382" lon="5.01189">
        <ele>451.37</ele>
        <time>2022-06-23T09:02:08Z</time>
      </trkpt>
      <trkpt lat="47.71382" lon="5.01185">
        <ele>451.08</ele>
        <time>2022-06-23T09:02:10Z</time>
      </trkpt>
      <trkpt lat="47.71383" lon="5.01181">
        <ele>450.97</ele>
        <time>2022-06-23T09:02:14Z</time>
      </trkpt>
      <trkpt lat="47.71383" lon="5.01174">
        <ele>450.47</ele>
        <time>2022-06-23T09:02:18Z</time>
      </trkpt>
      <trkpt lat="47.71383" lon="5.01169">
        <ele>450.11</ele>
        <time>2022-06-23T09:02:20Z</time>
      </trkpt>
      <trkpt lat="47.71383" lon="5.01165">
        <ele>449.89</ele>
        <time>2022-06-23T09:02:23Z</time>
      </trkpt>
      <trkpt lat="47.71384" lon="5.0116">
        <ele>449.92</ele>
        <time>2022-06-23T09:02:26Z</time>
      </trkpt>
      <trkpt lat="47.71384" lon="5.01156">
        <ele>449.8</ele>
        <time>2022-06-23T09:02:28Z</time>
      </trkpt>
      <trkpt lat="47.71384" lon="5.0115">
        <ele>449.63</ele>
        <time>2022-06-23T09:02:30Z</time>
      </trkpt>
      <trkpt lat="47.71384" lon="5.01145">
        <ele>449.48</ele>
        <time>2022-06-23T09:02:33Z</time>
      </trkpt>
      <trkpt lat="47.71385" lon="5.01141">
        <ele>449.51</ele>
        <time>2022-06-23T09:02:35Z</time>
      </trkpt>
      <trkpt lat="47.71386" lon="5.01137">
        <ele>449.44</ele>
        <time>2022-06-23T09:02:39Z</time>
      </trkpt>
      <trkpt lat="47.71387" lon="5.01132">
        <ele>449.22</ele>
        <time>2022-06-23T09:02:41Z</time>
      </trkpt>
      <trkpt lat="47.71388" lon="5.01128">
        <ele>449.08</ele>
        <time>2022-06-23T09:02:42Z</time>
      </trkpt>
      <trkpt lat="47.71388" lon="5.01124">
        <ele>448.78</ele>
        <time>2022-06-23T09:02:46Z</time>
      </trkpt>
      <trkpt lat="47.71389" lon="5.01119">
        <ele>448.58</ele>
        <time>2022-06-23T09:02:48Z</time>
      </trkpt>
      <trkpt lat="47.71389" lon="5.01115">
        <ele>448.29</ele>
        <time>2022-06-23T09:02:50Z</time>
      </trkpt>
      <trkpt lat="47.71391" lon="5.0111">
        <ele>447.95</ele>
        <time>2022-06-23T09:02:54Z</time>
      </trkpt>
      <trkpt lat="47.71392" lon="5.01105">
        <ele>447.43</ele>
        <time>2022-06-23T09:02:55Z</time>
      </trkpt>
      <trkpt lat="47.71393" lon="5.01101">
        <ele>447</ele>
        <time>2022-06-23T09:02:57Z</time>
      </trkpt>
      <trkpt lat="47.71394" lon="5.01097">
        <ele>446.57</ele>
        <time>2022-06-23T09:02:59Z</time>
      </trkpt>
      <trkpt lat="47.71395" lon="5.01093">
        <ele>446.12</ele>
        <time>2022-06-23T09:03:01Z</time>
      </trkpt>
      <trkpt lat="47.71397" lon="5.01089">
        <ele>445.67</ele>
        <time>2022-06-23T09:03:03Z</time>
      </trkpt>
      <trkpt lat="47.71398" lon="5.01085">
        <ele>445.2</ele>
        <time>2022-06-23T09:03:06Z</time>
      </trkpt>
      <trkpt lat="47.71401" lon="5.01081">
        <ele>444.53</ele>
        <time>2022-06-23T09:03:08Z</time>
      </trkpt>
      <trkpt lat="47.71402" lon="5.01077">
        <ele>443.74</ele>
        <time>2022-06-23T09:03:10Z</time>
      </trkpt>
      <trkpt lat="47.71405" lon="5.01073">
        <ele>442.98</ele>
        <time>2022-06-23T09:03:13Z</time>
      </trkpt>
      <trkpt lat="47.71406" lon="5.0107">
        <ele>442.42</ele>
        <time>2022-06-23T09:03:15Z</time>
      </trkpt>
      <trkpt lat="47.71409" lon="5.01067">
        <ele>441.9</ele>
        <time>2022-06-23T09:03:18Z</time>
      </trkpt>
      <trkpt lat="47.71411" lon="5.01063">
        <ele>441.19</ele>
        <time>2022-06-23T09:03:20Z</time>
      </trkpt>
      <trkpt lat="47.71413" lon="5.0106">
        <ele>440.69</ele>
        <time>2022-06-23T09:03:22Z</time>
      </trkpt>
      <trkpt lat="47.71415" lon="5.01057">
        <ele>440.2</ele>
        <time>2022-06-23T09:03:24Z</time>
      </trkpt>
      <trkpt lat="47.71418" lon="5.01054">
        <ele>439.85</ele>
        <time>2022-06-23T09:03:27Z</time>
      </trkpt>
      <trkpt lat="47.7142" lon="5.01053">
        <ele>439.97</ele>
        <time>2022-06-23T09:03:29Z</time>
      </trkpt>
      <trkpt lat="47.71423" lon="5.01051">
        <ele>440.03</ele>
        <time>2022-06-23T09:03:32Z</time>
      </trkpt>
      <trkpt lat="47.71426" lon="5.01049">
        <ele>440.11</ele>
        <time>2022-06-23T09:03:34Z</time>
      </trkpt>
      <trkpt lat="47.71429" lon="5.01047">
        <ele>440.2</ele>
        <time>2022-06-23T09:03:36Z</time>
      </trkpt>
      <trkpt lat="47.71431" lon="5.01044">
        <ele>439.88</ele>
        <time>2022-06-23T09:03:39Z</time>
      </trkpt>
      <trkpt lat="47.71434" lon="5.01042">
        <ele>440.01</ele>
        <time>2022-06-23T09:03:41Z</time>
      </trkpt>
      <trkpt lat="47.71437" lon="5.01041">
        <ele>440.38</ele>
        <time>2022-06-23T09:03:43Z</time>
      </trkpt>
      <trkpt lat="47.71439" lon="5.0104">
        <ele>440.55</ele>
        <time>2022-06-23T09:03:45Z</time>
      </trkpt>
      <trkpt lat="47.71442" lon="5.0104">
        <ele>441.15</ele>
        <time>2022-06-23T09:03:47Z</time>
      </trkpt>
      <trkpt lat="47.71445" lon="5.0104">
        <ele>441.71</ele>
        <time>2022-06-23T09:03:50Z</time>
      </trkpt>
      <trkpt lat="47.71448" lon="5.0104">
        <ele>442.06</ele>
        <time>2022-06-23T09:03:51Z</time>
      </trkpt>
      <trkpt lat="47.71451" lon="5.01039">
        <ele>442.18</ele>
        <time>2022-06-23T09:03:55Z</time>
      </trkpt>
      <trkpt lat="47.71455" lon="5.01038">
        <ele>442.39</ele>
        <time>2022-06-23T09:03:58Z</time>
      </trkpt>
      <trkpt lat="47.71458" lon="5.01037">
        <ele>442.45</ele>
        <time>2022-06-23T09:04:00Z</time>
      </trkpt>
      <trkpt lat="47.7146" lon="5.01036">
        <ele>442.39</ele>
        <time>2022-06-23T09:04:00Z</time>
      </trkpt>
      <trkpt lat="47.71463" lon="5.01035">
        <ele>442.42</ele>
        <time>2022-06-23T09:04:03Z</time>
      </trkpt>
      <trkpt lat="47.71466" lon="5.01034">
        <ele>442.42</ele>
        <time>2022-06-23T09:04:07Z</time>
      </trkpt>
      <trkpt lat="47.71469" lon="5.01034">
        <ele>442.71</ele>
        <time>2022-06-23T09:04:10Z</time>
      </trkpt>
      <trkpt lat="47.71472" lon="5.01034">
        <ele>442.99</ele>
        <time>2022-06-23T09:04:11Z</time>
      </trkpt>
      <trkpt lat="47.71475" lon="5.01034">
        <ele>443.3</ele>
        <time>2022-06-23T09:04:15Z</time>
      </trkpt>
      <trkpt lat="47.71478" lon="5.01034">
        <ele>443.62</ele>
        <time>2022-06-23T09:04:18Z</time>
      </trkpt>
      <trkpt lat="47.71481" lon="5.01035">
        <ele>444.19</ele>
        <time>2022-06-23T09:04:20Z</time>
      </trkpt>
      <trkpt lat="47.71484" lon="5.01035">
        <ele>444.48</ele>
        <time>2022-06-23T09:04:23Z</time>
      </trkpt>
      <trkpt lat="47.71487" lon="5.01037">
        <ele>445.23</ele>
        <time>2022-06-23T09:04:25Z</time>
      </trkpt>
      <trkpt lat="47.7149" lon="5.01038">
        <ele>445.69</ele>
        <time>2022-06-23T09:04:26Z</time>
      </trkpt>
      <trkpt lat="47.71493" lon="5.01039">
        <ele>446.12</ele>
        <time>2022-06-23T09:04:30Z</time>
      </trkpt>
      <trkpt lat="47.71496" lon="5.01041">
        <ele>446.67</ele>
        <time>2022-06-23T09:04:31Z</time>
      </trkpt>
      <trkpt lat="47.71499" lon="5.01043">
        <ele>447.15</ele>
        <time>2022-06-23T09:04:33Z</time>
      </trkpt>
      <trkpt lat="47.71501" lon="5.01044">
        <ele>447.21</ele>
        <time>2022-06-23T09:04:36Z</time>
      </trkpt>
      <trkpt lat="47.71504" lon="5.01046">
        <ele>447.06</ele>
        <time>2022-06-23T09:04:36Z</time>
      </trkpt>
      <trkpt lat="47.71507" lon="5.01047">
        <ele>446.72</ele>
        <time>2022-06-23T09:04:39Z</time>
      </trkpt>
      <trkpt lat="47.7151" lon="5.01049">
        <ele>446.41</ele>
        <time>2022-06-23T09:04:40Z</time>
      </trkpt>
      <trkpt lat="47.71512" lon="5.01051">
        <ele>446.18</ele>
        <time>2022-06-23T09:04:43Z</time>
      </trkpt>
      <trkpt lat="47.71515" lon="5.01053">
        <ele>445.69</ele>
        <time>2022-06-23T09:04:46Z</time>
      </trkpt>
      <trkpt lat="47.71518" lon="5.01055">
        <ele>445.11</ele>
        <time>2022-06-23T09:04:48Z</time>
      </trkpt>
      <trkpt lat="47.7152" lon="5.01057">
        <ele>444.97</ele>
        <time>2022-06-23T09:04:51Z</time>
      </trkpt>
      <trkpt lat="47.71523" lon="5.0106">
        <ele>444.89</ele>
        <time>2022-06-23T09:04:53Z</time>
      </trkpt>
      <trkpt lat="47.71525" lon="5.01063">
        <ele>444.99</ele>
        <time>2022-06-23T09:04:57Z</time>
      </trkpt>
      <trkpt lat="47.71527" lon="5.01067">
        <ele>445.25</ele>
        <time>2022-06-23T09:05:00Z</time>
      </trkpt>
      <trkpt lat="47.71529" lon="5.0107">
        <ele>445.44</ele>
        <time>2022-06-23T09:05:03Z</time>
      </trkpt>
      <trkpt lat="47.71531" lon="5.01074">
        <ele>445.86</ele>
        <time>2022-06-23T09:05:08Z</time>
      </trkpt>
      <trkpt lat="47.71533" lon="5.01077">
        <ele>446.05</ele>
        <time>2022-06-23T09:05:10Z</time>
      </trkpt>
      <trkpt lat="47.71534" lon="5.01081">
        <ele>446.52</ele>
        <time>2022-06-23T09:05:13Z</time>
      </trkpt>
      <trkpt lat="47.71536" lon="5.01086">
        <ele>446.62</ele>
        <time>2022-06-23T09:05:16Z</time>
      </trkpt>
      <trkpt lat="47.71537" lon="5.01091">
        <ele>446.62</ele>
        <time>2022-06-23T09:05:18Z</time>
      </trkpt>
      <trkpt lat="47.71539" lon="5.01095">
        <ele>446.4</ele>
        <time>2022-06-23T09:05:19Z</time>
      </trkpt>
      <trkpt lat="47.7154" lon="5.01099">
        <ele>446.36</ele>
        <time>2022-06-23T09:05:23Z</time>
      </trkpt>
      <trkpt lat="47.71541" lon="5.01103">
        <ele>446.33</ele>
        <time>2022-06-23T09:05:25Z</time>
      </trkpt>
      <trkpt lat="47.71542" lon="5.01107">
        <ele>446.29</ele>
        <time>2022-06-23T09:05:27Z</time>
      </trkpt>
      <trkpt lat="47.71543" lon="5.01111">
        <ele>446.26</ele>
        <time>2022-06-23T09:05:31Z</time>
      </trkpt>
      <trkpt lat="47.71545" lon="5.01115">
        <ele>446.09</ele>
        <time>2022-06-23T09:05:34Z</time>
      </trkpt>
      <trkpt lat="47.71547" lon="5.0112">
        <ele>445.96</ele>
        <time>2022-06-23T09:05:40Z</time>
      </trkpt>
      <trkpt lat="47.71548" lon="5.01123">
        <ele>445.9</ele>
        <time>2022-06-23T09:05:41Z</time>
      </trkpt>
      <trkpt lat="47.71549" lon="5.01127">
        <ele>445.89</ele>
        <time>2022-06-23T09:05:44Z</time>
      </trkpt>
      <trkpt lat="47.7155" lon="5.01131">
        <ele>445.86</ele>
        <time>2022-06-23T09:05:47Z</time>
      </trkpt>
      <trkpt lat="47.71551" lon="5.01135">
        <ele>445.82</ele>
        <time>2022-06-23T09:05:53Z</time>
      </trkpt>
      <trkpt lat="47.71554" lon="5.01137">
        <ele>445.26</ele>
        <time>2022-06-23T09:05:57Z</time>
      </trkpt>
      <trkpt lat="47.71556" lon="5.0114">
        <ele>445.13</ele>
        <time>2022-06-23T09:06:01Z</time>
      </trkpt>
      <trkpt lat="47.71558" lon="5.01143">
        <ele>445.49</ele>
        <time>2022-06-23T09:06:04Z</time>
      </trkpt>
      <trkpt lat="47.71559" lon="5.01148">
        <ele>445.99</ele>
        <time>2022-06-23T09:06:08Z</time>
      </trkpt>
      <trkpt lat="47.71559" lon="5.01152">
        <ele>446.36</ele>
        <time>2022-06-23T09:06:15Z</time>
      </trkpt>
      <trkpt lat="47.71561" lon="5.01156">
        <ele>446.68</ele>
        <time>2022-06-23T09:06:35Z</time>
      </trkpt>
      <trkpt lat="47.71564" lon="5.01157">
        <ele>446.67</ele>
        <time>2022-06-23T09:06:40Z</time>
      </trkpt>
      <trkpt lat="47.71565" lon="5.01161">
        <ele>446.92</ele>
        <time>2022-06-23T09:07:24Z</time>
      </trkpt>
      <trkpt lat="47.71568" lon="5.01161">
        <ele>446.77</ele>
        <time>2022-06-23T09:07:28Z</time>
      </trkpt>
      <trkpt lat="47.71568" lon="5.01165">
        <ele>447</ele>
        <time>2022-06-23T09:08:09Z</time>
      </trkpt>
      <trkpt lat="47.71571" lon="5.01165">
        <ele>446.81</ele>
        <time>2022-06-23T09:09:43Z</time>
      </trkpt>
      <trkpt lat="47.71573" lon="5.01163">
        <ele>446.6</ele>
        <time>2022-06-23T09:09:49Z</time>
      </trkpt>
      <trkpt lat="47.71575" lon="5.01159">
        <ele>446.35</ele>
        <time>2022-06-23T09:09:50Z</time>
      </trkpt>
      <trkpt lat="47.71576" lon="5.01155">
        <ele>446.2</ele>
        <time>2022-06-23T09:09:53Z</time>
      </trkpt>
      <trkpt lat="47.71577" lon="5.01151">
        <ele>446.07</ele>
        <time>2022-06-23T09:09:55Z</time>
      </trkpt>
      <trkpt lat="47.71579" lon="5.01148">
        <ele>446</ele>
        <time>2022-06-23T09:09:57Z</time>
      </trkpt>
      <trkpt lat="47.7158" lon="5.01144">
        <ele>445.95</ele>
        <time>2022-06-23T09:09:59Z</time>
      </trkpt>
      <trkpt lat="47.71582" lon="5.01139">
        <ele>445.95</ele>
        <time>2022-06-23T09:10:03Z</time>
      </trkpt>
      <trkpt lat="47.71583" lon="5.01135">
        <ele>445.99</ele>
        <time>2022-06-23T09:10:04Z</time>
      </trkpt>
      <trkpt lat="47.71584" lon="5.01131">
        <ele>446.05</ele>
        <time>2022-06-23T09:10:08Z</time>
      </trkpt>
      <trkpt lat="47.71586" lon="5.01127">
        <ele>446.16</ele>
        <time>2022-06-23T09:10:09Z</time>
      </trkpt>
      <trkpt lat="47.71587" lon="5.01123">
        <ele>446.17</ele>
        <time>2022-06-23T09:10:13Z</time>
      </trkpt>
      <trkpt lat="47.71587" lon="5.01119">
        <ele>446.11</ele>
        <time>2022-06-23T09:10:16Z</time>
      </trkpt>
      <trkpt lat="47.71588" lon="5.01114">
        <ele>446.05</ele>
        <time>2022-06-23T09:10:19Z</time>
      </trkpt>
      <trkpt lat="47.7159" lon="5.0111">
        <ele>445.9</ele>
        <time>2022-06-23T09:10:23Z</time>
      </trkpt>
      <trkpt lat="47.71591" lon="5.01106">
        <ele>445.53</ele>
        <time>2022-06-23T09:10:26Z</time>
      </trkpt>
      <trkpt lat="47.71592" lon="5.01102">
        <ele>445.14</ele>
        <time>2022-06-23T09:10:28Z</time>
      </trkpt>
      <trkpt lat="47.71594" lon="5.01098">
        <ele>444.69</ele>
        <time>2022-06-23T09:10:31Z</time>
      </trkpt>
      <trkpt lat="47.71595" lon="5.01094">
        <ele>444.25</ele>
        <time>2022-06-23T09:10:34Z</time>
      </trkpt>
      <trkpt lat="47.71595" lon="5.01091">
        <ele>443.94</ele>
        <time>2022-06-23T09:10:36Z</time>
      </trkpt>
      <trkpt lat="47.71596" lon="5.01086">
        <ele>443.37</ele>
        <time>2022-06-23T09:10:39Z</time>
      </trkpt>
      <trkpt lat="47.71596" lon="5.01082">
        <ele>442.94</ele>
        <time>2022-06-23T09:10:42Z</time>
      </trkpt>
      <trkpt lat="47.71596" lon="5.01078">
        <ele>442.5</ele>
        <time>2022-06-23T09:10:48Z</time>
      </trkpt>
      <trkpt lat="47.71596" lon="5.01074">
        <ele>442.05</ele>
        <time>2022-06-23T09:10:51Z</time>
      </trkpt>
      <trkpt lat="47.71595" lon="5.01069">
        <ele>441.53</ele>
        <time>2022-06-23T09:10:55Z</time>
      </trkpt>
      <trkpt lat="47.71595" lon="5.01065">
        <ele>441.07</ele>
        <time>2022-06-23T09:10:55Z</time>
      </trkpt>
      <trkpt lat="47.71594" lon="5.01061">
        <ele>440.63</ele>
        <time>2022-06-23T09:10:58Z</time>
      </trkpt>
      <trkpt lat="47.71594" lon="5.01057">
        <ele>440.17</ele>
        <time>2022-06-23T09:11:01Z</time>
      </trkpt>
      <trkpt lat="47.71593" lon="5.01052">
        <ele>439.65</ele>
        <time>2022-06-23T09:11:05Z</time>
      </trkpt>
      <trkpt lat="47.71593" lon="5.01048">
        <ele>439.27</ele>
        <time>2022-06-23T09:11:07Z</time>
      </trkpt>
      <trkpt lat="47.71592" lon="5.01044">
        <ele>438.91</ele>
        <time>2022-06-23T09:11:10Z</time>
      </trkpt>
      <trkpt lat="47.71592" lon="5.0104">
        <ele>438.53</ele>
        <time>2022-06-23T09:11:11Z</time>
      </trkpt>
      <trkpt lat="47.71592" lon="5.01036">
        <ele>438.15</ele>
        <time>2022-06-23T09:11:16Z</time>
      </trkpt>
      <trkpt lat="47.71592" lon="5.01031">
        <ele>437.68</ele>
        <time>2022-06-23T09:11:17Z</time>
      </trkpt>
      <trkpt lat="47.71591" lon="5.01025">
        <ele>436.98</ele>
        <time>2022-06-23T09:11:19Z</time>
      </trkpt>
      <trkpt lat="47.7159" lon="5.0102">
        <ele>436.19</ele>
        <time>2022-06-23T09:11:21Z</time>
      </trkpt>
      <trkpt lat="47.71589" lon="5.01016">
        <ele>435.56</ele>
        <time>2022-06-23T09:11:24Z</time>
      </trkpt>
      <trkpt lat="47.71588" lon="5.01012">
        <ele>434.92</ele>
        <time>2022-06-23T09:11:26Z</time>
      </trkpt>
      <trkpt lat="47.71588" lon="5.01007">
        <ele>434.05</ele>
        <time>2022-06-23T09:11:27Z</time>
      </trkpt>
      <trkpt lat="47.71587" lon="5.01003">
        <ele>433.39</ele>
        <time>2022-06-23T09:11:29Z</time>
      </trkpt>
      <trkpt lat="47.71586" lon="5.00999">
        <ele>432.75</ele>
        <time>2022-06-23T09:11:33Z</time>
      </trkpt>
      <trkpt lat="47.71585" lon="5.00995">
        <ele>432.2</ele>
        <time>2022-06-23T09:11:34Z</time>
      </trkpt>
      <trkpt lat="47.71584" lon="5.0099">
        <ele>431.52</ele>
        <time>2022-06-23T09:11:38Z</time>
      </trkpt>
      <trkpt lat="47.71582" lon="5.00986">
        <ele>431.3</ele>
        <time>2022-06-23T09:11:39Z</time>
      </trkpt>
      <trkpt lat="47.7158" lon="5.00983">
        <ele>431.35</ele>
        <time>2022-06-23T09:11:40Z</time>
      </trkpt>
      <trkpt lat="47.71578" lon="5.00979">
        <ele>431.27</ele>
        <time>2022-06-23T09:11:44Z</time>
      </trkpt>
      <trkpt lat="47.71576" lon="5.00975">
        <ele>431.22</ele>
        <time>2022-06-23T09:11:45Z</time>
      </trkpt>
      <trkpt lat="47.71575" lon="5.00971">
        <ele>430.97</ele>
        <time>2022-06-23T09:11:49Z</time>
      </trkpt>
      <trkpt lat="47.71574" lon="5.00967">
        <ele>430.79</ele>
        <time>2022-06-23T09:11:52Z</time>
      </trkpt>
      <trkpt lat="47.71573" lon="5.00963">
        <ele>430.57</ele>
        <time>2022-06-23T09:11:55Z</time>
      </trkpt>
      <trkpt lat="47.71573" lon="5.00958">
        <ele>430.01</ele>
        <time>2022-06-23T09:11:57Z</time>
      </trkpt>
      <trkpt lat="47.71572" lon="5.00953">
        <ele>429.62</ele>
        <time>2022-06-23T09:12:00Z</time>
      </trkpt>
      <trkpt lat="47.71571" lon="5.00949">
        <ele>429.32</ele>
        <time>2022-06-23T09:12:02Z</time>
      </trkpt>
      <trkpt lat="47.7157" lon="5.00944">
        <ele>428.87</ele>
        <time>2022-06-23T09:12:04Z</time>
      </trkpt>
      <trkpt lat="47.71568" lon="5.00939">
        <ele>428.62</ele>
        <time>2022-06-23T09:12:06Z</time>
      </trkpt>
      <trkpt lat="47.71567" lon="5.00935">
        <ele>428.33</ele>
        <time>2022-06-23T09:12:09Z</time>
      </trkpt>
      <trkpt lat="47.71565" lon="5.0093">
        <ele>428.08</ele>
        <time>2022-06-23T09:12:11Z</time>
      </trkpt>
      <trkpt lat="47.71562" lon="5.00926">
        <ele>428.08</ele>
        <time>2022-06-23T09:12:15Z</time>
      </trkpt>
      <trkpt lat="47.7156" lon="5.00923">
        <ele>428.04</ele>
        <time>2022-06-23T09:12:16Z</time>
      </trkpt>
      <trkpt lat="47.71558" lon="5.0092">
        <ele>428.01</ele>
        <time>2022-06-23T09:12:18Z</time>
      </trkpt>
      <trkpt lat="47.71556" lon="5.00917">
        <ele>427.97</ele>
        <time>2022-06-23T09:12:21Z</time>
      </trkpt>
      <trkpt lat="47.71554" lon="5.00914">
        <ele>427.88</ele>
        <time>2022-06-23T09:12:23Z</time>
      </trkpt>
      <trkpt lat="47.71552" lon="5.00909">
        <ele>427.56</ele>
        <time>2022-06-23T09:12:26Z</time>
      </trkpt>
      <trkpt lat="47.7155" lon="5.00905">
        <ele>427.34</ele>
        <time>2022-06-23T09:12:28Z</time>
      </trkpt>
      <trkpt lat="47.71549" lon="5.00902">
        <ele>427.12</ele>
        <time>2022-06-23T09:12:29Z</time>
      </trkpt>
      <trkpt lat="47.71547" lon="5.00897">
        <ele>426.8</ele>
        <time>2022-06-23T09:12:32Z</time>
      </trkpt>
      <trkpt lat="47.71546" lon="5.00893">
        <ele>426.48</ele>
        <time>2022-06-23T09:12:37Z</time>
      </trkpt>
      <trkpt lat="47.71542" lon="5.00892">
        <ele>426.8</ele>
        <time>2022-06-23T09:12:39Z</time>
      </trkpt>
      <trkpt lat="47.71539" lon="5.00892">
        <ele>427.12</ele>
        <time>2022-06-23T09:12:40Z</time>
      </trkpt>
      <trkpt lat="47.71536" lon="5.00891">
        <ele>427.34</ele>
        <time>2022-06-23T09:12:45Z</time>
      </trkpt>
      <trkpt lat="47.71534" lon="5.00888">
        <ele>427.13</ele>
        <time>2022-06-23T09:12:48Z</time>
      </trkpt>
      <trkpt lat="47.71532" lon="5.00883">
        <ele>426.19</ele>
        <time>2022-06-23T09:12:51Z</time>
      </trkpt>
      <trkpt lat="47.7153" lon="5.0088">
        <ele>425.62</ele>
        <time>2022-06-23T09:12:54Z</time>
      </trkpt>
      <trkpt lat="47.71528" lon="5.00876">
        <ele>424.74</ele>
        <time>2022-06-23T09:13:00Z</time>
      </trkpt>
      <trkpt lat="47.71527" lon="5.00872">
        <ele>423.67</ele>
        <time>2022-06-23T09:13:03Z</time>
      </trkpt>
      <trkpt lat="47.71525" lon="5.00869">
        <ele>422.73</ele>
        <time>2022-06-23T09:13:07Z</time>
      </trkpt>
      <trkpt lat="47.71525" lon="5.00865">
        <ele>421.75</ele>
        <time>2022-06-23T09:13:13Z</time>
      </trkpt>
      <trkpt lat="47.71523" lon="5.00861">
        <ele>420.63</ele>
        <time>2022-06-23T09:13:18Z</time>
      </trkpt>
      <trkpt lat="47.71521" lon="5.00858">
        <ele>419.73</ele>
        <time>2022-06-23T09:13:25Z</time>
      </trkpt>
      <trkpt lat="47.7152" lon="5.00854">
        <ele>418.65</ele>
        <time>2022-06-23T09:13:40Z</time>
      </trkpt>
      <trkpt lat="47.71518" lon="5.00852">
        <ele>418</ele>
        <time>2022-06-23T09:14:12Z</time>
      </trkpt>
      <trkpt lat="47.71517" lon="5.00856">
        <ele>418.94</ele>
        <time>2022-06-23T09:14:43Z</time>
      </trkpt>
      <trkpt lat="47.71515" lon="5.00859">
        <ele>419.55</ele>
        <time>2022-06-23T09:14:45Z</time>
      </trkpt>
      <trkpt lat="47.71512" lon="5.00861">
        <ele>419.84</ele>
        <time>2022-06-23T09:14:56Z</time>
      </trkpt>
      <trkpt lat="47.71511" lon="5.00858">
        <ele>419.01</ele>
        <time>2022-06-23T09:15:06Z</time>
      </trkpt>
      <trkpt lat="47.7151" lon="5.00854">
        <ele>417.93</ele>
        <time>2022-06-23T09:15:10Z</time>
      </trkpt>
      <trkpt lat="47.71508" lon="5.0085">
        <ele>416.78</ele>
        <time>2022-06-23T09:15:14Z</time>
      </trkpt>
      <trkpt lat="47.71505" lon="5.00848">
        <ele>416.06</ele>
        <time>2022-06-23T09:15:19Z</time>
      </trkpt>
      <trkpt lat="47.71503" lon="5.00846">
        <ele>415.41</ele>
        <time>2022-06-23T09:15:21Z</time>
      </trkpt>
      <trkpt lat="47.71499" lon="5.00845">
        <ele>414.75</ele>
        <time>2022-06-23T09:15:25Z</time>
      </trkpt>
      <trkpt lat="47.71496" lon="5.00844">
        <ele>413.95</ele>
        <time>2022-06-23T09:15:26Z</time>
      </trkpt>
      <trkpt lat="47.71492" lon="5.00843">
        <ele>412.98</ele>
        <time>2022-06-23T09:15:27Z</time>
      </trkpt>
      <trkpt lat="47.71489" lon="5.00842">
        <ele>412.23</ele>
        <time>2022-06-23T09:15:29Z</time>
      </trkpt>
      <trkpt lat="47.71486" lon="5.00841">
        <ele>411.5</ele>
        <time>2022-06-23T09:15:30Z</time>
      </trkpt>
      <trkpt lat="47.71483" lon="5.00839">
        <ele>410.61</ele>
        <time>2022-06-23T09:15:32Z</time>
      </trkpt>
      <trkpt lat="47.7148" lon="5.00838">
        <ele>409.93</ele>
        <time>2022-06-23T09:15:35Z</time>
      </trkpt>
      <trkpt lat="47.71478" lon="5.00836">
        <ele>409.28</ele>
        <time>2022-06-23T09:15:36Z</time>
      </trkpt>
      <trkpt lat="47.71475" lon="5.00833">
        <ele>408.36</ele>
        <time>2022-06-23T09:15:37Z</time>
      </trkpt>
      <trkpt lat="47.71473" lon="5.00831">
        <ele>407.85</ele>
        <time>2022-06-23T09:15:38Z</time>
      </trkpt>
      <trkpt lat="47.7147" lon="5.00827">
        <ele>407.01</ele>
        <time>2022-06-23T09:15:40Z</time>
      </trkpt>
      <trkpt lat="47.71468" lon="5.00823">
        <ele>406.33</ele>
        <time>2022-06-23T09:15:41Z</time>
      </trkpt>
      <trkpt lat="47.71465" lon="5.0082">
        <ele>405.64</ele>
        <time>2022-06-23T09:15:44Z</time>
      </trkpt>
      <trkpt lat="47.71463" lon="5.00817">
        <ele>405.1</ele>
        <time>2022-06-23T09:15:46Z</time>
      </trkpt>
      <trkpt lat="47.7146" lon="5.00814">
        <ele>404.46</ele>
        <time>2022-06-23T09:15:48Z</time>
      </trkpt>
      <trkpt lat="47.71457" lon="5.00811">
        <ele>403.84</ele>
        <time>2022-06-23T09:15:52Z</time>
      </trkpt>
      <trkpt lat="47.71454" lon="5.0081">
        <ele>403.41</ele>
        <time>2022-06-23T09:15:53Z</time>
      </trkpt>
      <trkpt lat="47.71452" lon="5.00808">
        <ele>403.02</ele>
        <time>2022-06-23T09:15:55Z</time>
      </trkpt>
      <trkpt lat="47.71449" lon="5.00806">
        <ele>402.53</ele>
        <time>2022-06-23T09:15:57Z</time>
      </trkpt>
      <trkpt lat="47.71447" lon="5.00803">
        <ele>402.26</ele>
        <time>2022-06-23T09:16:00Z</time>
      </trkpt>
      <trkpt lat="47.71444" lon="5.00801">
        <ele>401.99</ele>
        <time>2022-06-23T09:16:02Z</time>
      </trkpt>
      <trkpt lat="47.71442" lon="5.00798">
        <ele>401.95</ele>
        <time>2022-06-23T09:16:05Z</time>
      </trkpt>
      <trkpt lat="47.71439" lon="5.00796">
        <ele>401.87</ele>
        <time>2022-06-23T09:16:08Z</time>
      </trkpt>
      <trkpt lat="47.71436" lon="5.00793">
        <ele>401.73</ele>
        <time>2022-06-23T09:16:10Z</time>
      </trkpt>
      <trkpt lat="47.71433" lon="5.00791">
        <ele>401.57</ele>
        <time>2022-06-23T09:16:11Z</time>
      </trkpt>
      <trkpt lat="47.7143" lon="5.00788">
        <ele>401.34</ele>
        <time>2022-06-23T09:16:13Z</time>
      </trkpt>
      <trkpt lat="47.71428" lon="5.00786">
        <ele>401.17</ele>
        <time>2022-06-23T09:16:15Z</time>
      </trkpt>
      <trkpt lat="47.71426" lon="5.00783">
        <ele>400.92</ele>
        <time>2022-06-23T09:16:17Z</time>
      </trkpt>
      <trkpt lat="47.71423" lon="5.00779">
        <ele>400.52</ele>
        <time>2022-06-23T09:16:20Z</time>
      </trkpt>
      <trkpt lat="47.71421" lon="5.00775">
        <ele>400.27</ele>
        <time>2022-06-23T09:16:23Z</time>
      </trkpt>
      <trkpt lat="47.71419" lon="5.00772">
        <ele>400.12</ele>
        <time>2022-06-23T09:16:25Z</time>
      </trkpt>
      <trkpt lat="47.71417" lon="5.00768">
        <ele>400.01</ele>
        <time>2022-06-23T09:16:26Z</time>
      </trkpt>
      <trkpt lat="47.71416" lon="5.00763">
        <ele>400</ele>
        <time>2022-06-23T09:16:29Z</time>
      </trkpt>
      <trkpt lat="47.71414" lon="5.0076">
        <ele>400</ele>
        <time>2022-06-23T09:16:31Z</time>
      </trkpt>
      <trkpt lat="47.71412" lon="5.00756">
        <ele>400</ele>
        <time>2022-06-23T09:16:34Z</time>
      </trkpt>
      <trkpt lat="47.7141" lon="5.00753">
        <ele>400</ele>
        <time>2022-06-23T09:16:36Z</time>
      </trkpt>
      <trkpt lat="47.71407" lon="5.0075">
        <ele>400</ele>
        <time>2022-06-23T09:16:37Z</time>
      </trkpt>
      <trkpt lat="47.71405" lon="5.00748">
        <ele>399.91</ele>
        <time>2022-06-23T09:16:37Z</time>
      </trkpt>
      <trkpt lat="47.71402" lon="5.00745">
        <ele>399.71</ele>
        <time>2022-06-23T09:16:39Z</time>
      </trkpt>
      <trkpt lat="47.71399" lon="5.00742">
        <ele>399.45</ele>
        <time>2022-06-23T09:16:40Z</time>
      </trkpt>
      <trkpt lat="47.71396" lon="5.0074">
        <ele>399.2</ele>
        <time>2022-06-23T09:16:42Z</time>
      </trkpt>
      <trkpt lat="47.71393" lon="5.00737">
        <ele>398.8</ele>
        <time>2022-06-23T09:16:44Z</time>
      </trkpt>
      <trkpt lat="47.71391" lon="5.00734">
        <ele>398.4</ele>
        <time>2022-06-23T09:16:47Z</time>
      </trkpt>
      <trkpt lat="47.71388" lon="5.0073">
        <ele>397.82</ele>
        <time>2022-06-23T09:16:49Z</time>
      </trkpt>
      <trkpt lat="47.71386" lon="5.00727">
        <ele>397.51</ele>
        <time>2022-06-23T09:16:50Z</time>
      </trkpt>
      <trkpt lat="47.71384" lon="5.00723">
        <ele>397.23</ele>
        <time>2022-06-23T09:16:53Z</time>
      </trkpt>
      <trkpt lat="47.71382" lon="5.0072">
        <ele>397.29</ele>
        <time>2022-06-23T09:16:54Z</time>
      </trkpt>
      <trkpt lat="47.71379" lon="5.00717">
        <ele>397.49</ele>
        <time>2022-06-23T09:16:55Z</time>
      </trkpt>
      <trkpt lat="47.71376" lon="5.0071">
        <ele>397.87</ele>
        <time>2022-06-23T09:16:58Z</time>
      </trkpt>
      <trkpt lat="47.71372" lon="5.00704">
        <ele>398.41</ele>
        <time>2022-06-23T09:17:00Z</time>
      </trkpt>
      <trkpt lat="47.7137" lon="5.007">
        <ele>398.77</ele>
        <time>2022-06-23T09:17:02Z</time>
      </trkpt>
      <trkpt lat="47.71368" lon="5.00697">
        <ele>399.12</ele>
        <time>2022-06-23T09:17:05Z</time>
      </trkpt>
      <trkpt lat="47.71366" lon="5.00694">
        <ele>399.47</ele>
        <time>2022-06-23T09:17:07Z</time>
      </trkpt>
      <trkpt lat="47.71365" lon="5.0069">
        <ele>399.6</ele>
        <time>2022-06-23T09:17:10Z</time>
      </trkpt>
      <trkpt lat="47.71363" lon="5.00685">
        <ele>399.82</ele>
        <time>2022-06-23T09:17:13Z</time>
      </trkpt>
      <trkpt lat="47.71363" lon="5.00681">
        <ele>399.83</ele>
        <time>2022-06-23T09:17:16Z</time>
      </trkpt>
      <trkpt lat="47.71362" lon="5.00677">
        <ele>399.92</ele>
        <time>2022-06-23T09:17:19Z</time>
      </trkpt>
      <trkpt lat="47.71362" lon="5.00673">
        <ele>399.93</ele>
        <time>2022-06-23T09:17:24Z</time>
      </trkpt>
      <trkpt lat="47.71362" lon="5.00669">
        <ele>399.93</ele>
        <time>2022-06-23T09:17:30Z</time>
      </trkpt>
      <trkpt lat="47.71363" lon="5.00665">
        <ele>399.98</ele>
        <time>2022-06-23T09:17:35Z</time>
      </trkpt>
      <trkpt lat="47.71364" lon="5.00661">
        <ele>400.16</ele>
        <time>2022-06-23T09:17:49Z</time>
      </trkpt>
      <trkpt lat="47.71365" lon="5.00657">
        <ele>400.32</ele>
        <time>2022-06-23T09:18:57Z</time>
      </trkpt>
      <trkpt lat="47.71368" lon="5.00656">
        <ele>400.08</ele>
        <time>2022-06-23T09:30:02Z</time>
      </trkpt>
    </trkseg>
  </trk>
</gpx>